Ship Status Report: callsign 000000

sailwx.info

Track history (hours):
 
Tides and Currents Weather Stations Pressure Air Temp Water Temp Dewpoint Dewpoint Depression Visibility Wind Speed Wind Dir Waves Ship Positions

Callsign 000000 (name unknown)

Last reported at 2014-Oct-25 05:33 UTC. Time now 2014-Oct-25 06:27 UTC.
Position N 23°04' E 113°29'.

Type: Fishing. MMSI: 200007452.

Date/timePositionNaut miles runAvg speedWind from/ knotsBaromVisibWave heightAir tempDewpointWater temp
2014-Oct-25 05:33N 23°04' E 113°29'66059395.7
2014-Oct-25 05:33N 31°40' E 121°13'69926484.2
2014-Oct-25 05:31N 22°11' E 113°37'6853567.6
2014-Oct-25 05:20N 31°57' E 120°16'2936.1
2014-Oct-25 04:31N 31°58' E 120°51'69858426.4
2014-Oct-25 04:30N 22°16' E 113°39'38687.2
2014-Oct-25 04:27N 22°53' E 113°32'47279.9
2014-Oct-25 04:27N 22°54' E 113°28'10241.2
2014-Oct-25 04:25N 23°04' E 113°29'6553034.2
2014-Oct-25 04:12N 31°47' E 120°53'6551028.2
2014-Oct-25 03:33N 23°04' E 113°29'65049816.5
2014-Oct-25 03:33N 31°14' E 121°29'123429.2
2014-Oct-25 03:32N 31°27' E 121°29'66585455.2
2014-Oct-25 03:32N 23°02' E 113°23'467266.2
2014-Oct-25 03:31N 22°19' E 113°42'6943482.3
2014-Oct-25 03:20N 31°58' E 120°51'4962.4
2014-Oct-25 02:33N 31°22' E 121°29'764577.1
2014-Oct-25 02:32N 31°55' E 120°08'36918.3
2014-Oct-25 02:29N 31°58' E 120°51'66211516.2
2014-Oct-25 02:26N 23°04' E 113°29'0 8.7
2014-Oct-25 02:24N 23°04' E 113°29'6562131.1
2014-Oct-25 02:06N 31°20' E 121°33'50215846.2
2014-Oct-25 02:04N 39°05' E 117°44'3 6.0
2014-Oct-25 01:32N 39°04' E 117°48'49615264.0
2014-Oct-25 01:30N 31°21' E 121°27'3179.8
2014-Oct-25 01:29N 31°21' E 121°31'513219.7
2014-Oct-25 01:28N 31°58' E 120°51'66217924.8
2014-Oct-25 01:26N 23°04' E 113°29'0 8.9
2014-Oct-25 01:24N 23°04' E 113°29'94454800.2
2014-Oct-25 01:23N 36°48' E 122°20'3103157.1
2014-Oct-25 01:17N 31°47' E 120°53'655891.4
2014-Oct-25 00:33N 23°04' E 113°29'9851182217.2
2014-Oct-25 00:33N 39°03' E 117°51'49427801.6
2014-Oct-25 00:32N 31°23' E 121°30'6576304.2
2014-Oct-25 00:26N 23°04' E 113°29'659752.4
2014-Oct-24 23:33N 31°25' E 121°30'41057.4
2014-Oct-24 23:33N 31°21' E 121°27'65490610.8
2014-Oct-24 23:33N 23°04' E 113°29'652234572.1
2014-Oct-24 23:33N 31°15' E 121°31'3364825.8
2014-Oct-24 23:28N 36°48' E 122°28'94713971.4
2014-Oct-24 23:24N 23°04' E 113°29'6622321.0
2014-Oct-24 23:07N 31°58' E 120°51'4986.8
2014-Oct-24 22:34N 31°22' E 121°30'334400655.0
2014-Oct-24 22:33N 36°53' E 122°28'30750256.4
2014-Oct-24 22:33N 31°60' E 120°37'65690857.9
2014-Oct-24 22:33N 23°04' E 113°29'66282195.8
2014-Oct-24 22:32N 31°58' E 120°51'66214355.8
2014-Oct-24 22:29N 23°04' E 113°30'96414465.6
2014-Oct-24 22:25N 37°43' E 121°11'3723101.8
2014-Oct-24 22:18N 31°30' E 121°22'5370.8
2014-Oct-24 21:34N 32°01' E 120°32'34634601.2
2014-Oct-24 21:33N 37°45' E 121°17'969436015.3
2014-Oct-24 21:33N 23°04' E 113°29'1 7.3
2014-Oct-24 21:26N 23°04' E 113°30'9515724.0
2014-Oct-24 21:16N 36°54' E 122°25'3167687.5
2014-Oct-24 21:14N 31°47' E 120°54'37228.8
2014-Oct-24 21:04N 31°57' E 120°12'611.7
2014-Oct-24 20:33N 31°58' E 120°19'35032329.7
2014-Oct-24 20:32N 37°45' E 121°19'35239617.3
2014-Oct-24 20:32N 31°57' E 120°16'3139796.7
2014-Oct-24 20:30N 36°50' E 122°29'3153358.8
2014-Oct-24 20:24N 31°59' E 120°00'63855996.2
2014-Oct-24 20:24N 23°04' E 113°29'64511839.5
2014-Oct-24 20:20N 31°58' E 120°17'442159279.3
2014-Oct-24 20:20N 24°40' E 119°02'3197084.4
2014-Oct-24 20:18N 23°04' E 113°30'653887.5
2014-Oct-24 19:33N 32°02' E 120°27'445106842.7
2014-Oct-24 19:33N 24°43' E 119°03'32139861.4
2014-Oct-24 19:33N 23°04' E 113°29'649779161.9
2014-Oct-24 19:33N 31°60' E 120°23'034.6
2014-Oct-24 19:32N 31°60' E 120°22'24180.9
2014-Oct-24 19:24N 31°58' E 120°51'3493839.4
2014-Oct-24 19:18N 37°46' E 121°14'96956268.7
2014-Oct-24 19:17N 23°04' E 113°30'6409372.3
2014-Oct-24 19:13N 31°57' E 120°10'1724.8
2014-Oct-24 18:33N 32°02' E 120°29'65490605.0
2014-Oct-24 18:33N 23°04' E 113°29'643110304.1
2014-Oct-24 18:32N 31°57' E 120°16'175702.9
2014-Oct-24 18:32N 32°01' E 120°36'5170.3
2014-Oct-24 18:30N 32°02' E 120°31'34638903.7
2014-Oct-24 18:30N 37°46' E 121°18'97016866.7
2014-Oct-24 18:26N 23°04' E 113°30'10266689.6
2014-Oct-24 18:17N 38°44' E 121°29'5980.6
2014-Oct-24 17:33N 37°45' E 121°23'34711239.7
2014-Oct-24 17:32N 32°01' E 120°36'40510571.0
2014-Oct-24 17:29N 38°44' E 121°27'102521456.5
2014-Oct-24 17:26N 23°04' E 113°30'1 8.7
2014-Oct-24 17:21N 23°04' E 113°29'4657.9
2014-Oct-24 16:33N 22°25' E 113°54'1000450074.7
2014-Oct-24 16:33N 37°46' E 121°24'972194402.2
2014-Oct-24 16:33N 23°04' E 113°28'6625345.4
2014-Oct-24 16:25N 31°58' E 120°51'4782585.4
2014-Oct-24 16:14N 24°20' E 118°19'87926152.3
2014-Oct-24 16:12N 38°44' E 121°28'102535836.5
2014-Oct-24 16:10N 23°04' E 113°29'110.3
2014-Oct-24 16:06N 23°04' E 113°30'272503.4
2014-Oct-24 15:33N 24°17' E 118°16'82450305.0
2014-Oct-24 15:32N 37°46' E 121°25'97292130.5
2014-Oct-24 15:32N 23°04' E 113°29'6623306.1
2014-Oct-24 15:19N 31°58' E 120°51'662831.2
2014-Oct-24 14:32N 23°04' E 113°29'95820777.4
2014-Oct-24 14:29N 36°36' E 123°15'78764404.5
2014-Oct-24 14:28N 24°14' E 118°10'82832058.0
2014-Oct-24 14:27N 37°44' E 121°31'601418.9
2014-Oct-24 14:24N 38°44' E 121°35'102835927.6
2014-Oct-24 14:22N 23°04' E 113°29'65911041.8
2014-Oct-24 14:19N 31°40' E 121°11'6642573.5
2014-Oct-24 14:03N 23°02' E 113°24'6641306.9
2014-Oct-24 13:33N 31°44' E 121°06'361108392.0
2014-Oct-24 13:33N 37°45' E 121°28'973291941.5
2014-Oct-24 13:32N 23°05' E 113°27'26378927.3
2014-Oct-24 13:32N 24°12' E 118°04'4895317.7
2014-Oct-24 13:27N 31°58' E 120°51'481939.0
2014-Oct-24 13:25N 31°21' E 121°26'67745139.4
2014-Oct-24 13:24N 22°23' E 113°45'4185.8
2014-Oct-24 13:23N 22°20' E 113°42'464466.8
2014-Oct-24 13:22N 23°04' E 113°29'0 0.7
2014-Oct-24 13:11N 23°04' E 113°29'5181.5
2014-Oct-24 12:33N 22°14' E 113°39'10141825440.2
2014-Oct-24 12:33N 37°45' E 121°24'1000719818.5
2014-Oct-24 12:33N 22°27' E 113°47'68541769.5
2014-Oct-24 12:32N 31°58' E 120°51'66295362.8
2014-Oct-24 12:32N 23°04' E 113°29'028.0
2014-Oct-24 12:31N 23°04' E 113°29'65621476.9
2014-Oct-24 12:30N 31°60' E 120°37'30610805.8
2014-Oct-24 12:28N 36°37' E 123°15'79929651.4
2014-Oct-24 12:26N 24°06' E 117°59'491551.2
2014-Oct-24 11:33N 31°60' E 120°21'53888.5
2014-Oct-24 11:33N 32°02' E 120°27'20600.0
2014-Oct-24 11:31N 31°58' E 120°51'30312832.4
2014-Oct-24 11:29N 36°37' E 123°15'9588647.6
2014-Oct-24 11:23N 23°04' E 113°29'030.3
2014-Oct-24 11:22N 23°04' E 113°29'5247126.7
2014-Oct-24 11:22N 22°12' E 113°34'10189094.7
2014-Oct-24 11:16N 37°45' E 121°26'3592554.6
2014-Oct-24 11:07N 31°47' E 120°55'67111847.1
2014-Oct-24 11:04N 22°33' E 113°48'6701321.3
2014-Oct-24 10:33N 32°02' E 120°27'2110710.2
2014-Oct-24 10:33N 31°58' E 120°51'348250695.7
2014-Oct-24 10:33N 37°45' E 121°29'35116603.5
2014-Oct-24 10:32N 31°59' E 120°21'67110875.7
2014-Oct-24 10:28N 22°27' E 113°46'105555842.6
2014-Oct-24 10:27N 38°44' E 121°29'102613193.7
2014-Oct-24 10:22N 23°04' E 113°29'422429.6
2014-Oct-24 10:21N 22°27' E 113°49'421486.4
2014-Oct-24 10:20N 23°04' E 113°29'522191.5
2014-Oct-24 10:18N 22°12' E 113°34'7044614.7
2014-Oct-24 10:09N 31°59' E 120°49'1424.0
2014-Oct-24 09:33N 32°02' E 120°33'211709.3
2014-Oct-24 09:33N 31°56' E 120°09'63947921.4
2014-Oct-24 09:32N 23°04' E 113°29'022.3
2014-Oct-24 09:31N 23°04' E 113°29'66137186.2
2014-Oct-24 09:30N 32°00' E 120°45'703168602.7
2014-Oct-24 09:30N 22°12' E 113°34'206034.1
2014-Oct-24 09:30N 22°27' E 113°49'100281984.9
2014-Oct-24 09:29N 37°45' E 121°33'10026296.8
2014-Oct-24 09:20N 22°27' E 113°46'100219489.5
2014-Oct-24 09:17N 37°34' E 121°57'3412825.7
2014-Oct-24 09:09N 31°58' E 120°51'348568.6
2014-Oct-24 08:33N 37°44' E 121°31'35467128.6
2014-Oct-24 08:32N 31°57' E 120°04'63843325.2
2014-Oct-24 08:31N 23°04' E 113°29'53958.9
2014-Oct-24 08:28N 22°12' E 113°34'6997073.1
2014-Oct-24 08:22N 31°39' E 121°13'680816180.5
2014-Oct-24 08:22N 22°27' E 113°46'100338816.1
2014-Oct-24 08:21N 37°34' E 122°00'3361380.8
2014-Oct-24 08:06N 32°06' E 120°33'68232297.2
2014-Oct-24 08:05N 22°27' E 113°49'6601265.3
2014-Oct-24 07:33N 31°58' E 120°00'35390848.2
2014-Oct-24 07:33N 37°45' E 121°27'100066648.5
2014-Oct-24 07:32N 22°27' E 113°48'412871.9
2014-Oct-24 07:31N 23°04' E 113°29'953190693.6
2014-Oct-24 07:31N 36°56' E 122°28'452378.1
2014-Oct-24 07:30N 37°34' E 121°59'3553460.5
2014-Oct-24 07:24N 31°42' E 121°09'31906.6
2014-Oct-24 07:22N 31°59' E 120°39'3171288.7
2014-Oct-24 07:07N 26°46' E 119°43'314559.3
2014-Oct-24 06:33N 31°59' E 120°21'349209669.6
2014-Oct-24 06:33N 37°45' E 121°22'99969146.0
2014-Oct-24 06:32N 22°27' E 113°47'1002721319.4
2014-Oct-24 06:32N 37°35' E 121°55'515199.3
2014-Oct-24 06:32N 36°52' E 122°28'31712976.5
2014-Oct-24 06:30N 31°58' E 120°03'681204275.0
2014-Oct-24 06:30N 22°12' E 113°34'19179.8
2014-Oct-24 06:24N 22°27' E 113°46'68062757.3
2014-Oct-24 06:23N 31°43' E 121°06'6593171.0
2014-Oct-24 06:10N 23°04' E 113°29'658395064.7
2014-Oct-24 06:10N 32°00' E 120°40'1625.9
2014-Oct-24 05:33N 31°59' E 120°21'64813879.1
2014-Oct-24 05:31N 23°04' E 113°29'97269966.0
2014-Oct-24 05:30N 37°31' E 121°56'99958012.9
2014-Oct-24 05:29N 22°27' E 113°47'99855272.9
2014-Oct-24 05:28N 37°45' E 121°18'36210098.3
2014-Oct-24 05:26N 31°43' E 121°06'28755.2
2014-Oct-24 05:23N 32°00' E 120°40'34415.3
2014-Oct-24 05:18N 32°01' E 119°59'3111967.2
2014-Oct-24 05:09N 36°49' E 122°20'3023670.7
2014-Oct-24 05:04N 32°00' E 120°34'6971365.2
2014-Oct-24 04:33N 22°12' E 113°34'986147863.8
2014-Oct-24 04:33N 36°45' E 122°20'3026116.3
2014-Oct-24 04:30N 31°59' E 120°21'690828533.1
2014-Oct-24 04:30N 22°10' E 113°36'70422229.7
2014-Oct-24 04:28N 31°58' E 120°51'68413681.8
2014-Oct-24 04:25N 22°27' E 113°46'68124265.1
2014-Oct-24 04:23N 32°00' E 120°40'65826047.6
2014-Oct-24 04:22N 23°04' E 113°29'6594352.0
2014-Oct-24 04:13N 31°43' E 121°06'65917569.5
2014-Oct-24 04:10N 23°04' E 113°29'971184041.8
2014-Oct-24 04:10N 37°45' E 121°25'346564.1
2014-Oct-24 03:33N 32°00' E 120°40'34618067.5
2014-Oct-24 03:32N 37°45' E 121°22'348208687.9
2014-Oct-24 03:32N 31°58' E 120°51'66262729.0
2014-Oct-24 03:31N 23°04' E 113°29'65915011.9
2014-Oct-24 03:29N 31°43' E 121°06'33866.9
2014-Oct-24 03:26N 32°01' E 120°32'675142993.6
2014-Oct-24 03:26N 22°19' E 114°08'32242.7
2014-Oct-24 03:18N 22°12' E 113°34'62304.0
2014-Oct-24 03:18N 22°16' E 113°39'6843825.5
2014-Oct-24 03:07N 31°59' E 120°21'64828089.7
2014-Oct-24 03:06N 23°04' E 113°29'6521198.8
2014-Oct-24 02:33N 32°02' E 120°26'5638.4
2014-Oct-24 02:33N 31°59' E 120°21'161548.2
2014-Oct-24 02:32N 32°00' E 120°40'7002520342.0
2014-Oct-24 02:32N 22°11' E 113°35'533621.1
2014-Oct-24 02:31N 23°04' E 113°29'5319114.9
2014-Oct-24 02:31N 22°12' E 113°35'10157096.8
2014-Oct-24 02:23N 37°44' E 121°17'36120968.8
2014-Oct-24 02:22N 31°43' E 121°06'2075.3
2014-Oct-24 02:06N 31°58' E 120°51'2647.9
2014-Oct-24 01:34N 31°60' E 120°20'30528109.8
2014-Oct-24 01:33N 36°48' E 122°20'98842357.0
2014-Oct-24 01:31N 22°12' E 113°35'5347776.4
2014-Oct-24 01:31N 23°04' E 113°29'96477116.3
2014-Oct-24 01:31N 37°42' E 121°10'3438689.5
2014-Oct-24 01:28N 32°00' E 120°40'341569.1
2014-Oct-24 01:27N 31°60' E 119°60'68111141.6
2014-Oct-24 01:23N 22°12' E 113°34'70320419.9
2014-Oct-24 01:21N 31°58' E 120°51'28156.6
2014-Oct-24 01:10N 31°57' E 120°18'3 5.1
2014-Oct-24 00:33N 31°55' E 120°15'61311.7
2014-Oct-24 00:33N 31°60' E 120°20'151617.9
2014-Oct-24 00:32N 31°58' E 120°03'54861597.9
2014-Oct-24 00:32N 23°17' E 116°53'56165103.2
2014-Oct-24 00:31N 32°00' E 120°40'70017750.0
2014-Oct-24 00:29N 22°12' E 113°35'6982479.5
2014-Oct-24 00:12N 31°60' E 120°36'3437391.6
2014-Oct-24 00:09N 37°42' E 121°09'402461.6
2014-Oct-24 00:08N 37°31' E 121°57'37012103.1
2014-Oct-24 00:06N 31°21' E 121°27'1 1.8
2014-Oct-23 23:33N 31°22' E 121°28'37333607.4
2014-Oct-23 23:33N 37°35' E 121°57'97542271.3
2014-Oct-23 23:31N 23°04' E 113°29'5347739.2
2014-Oct-23 23:31N 22°12' E 113°35'68463164.8
2014-Oct-23 23:31N 31°56' E 120°15'151564.5
2014-Oct-23 23:30N 32°01' E 120°31'8264.4
2014-Oct-23 23:28N 32°00' E 120°40'34219860.0
2014-Oct-23 23:27N 37°42' E 121°09'9633980.3
2014-Oct-23 23:13N 23°04' E 113°29'6407914.4
2014-Oct-23 23:08N 31°57' E 120°08'68719628.9
2014-Oct-23 23:06N 22°11' E 113°25'7021302.1
2014-Oct-23 22:33N 31°24' E 121°31'3912745.3
2014-Oct-23 22:33N 31°47' E 120°54'352117.8
2014-Oct-23 22:32N 31°56' E 120°15'92127.1
2014-Oct-23 22:32N 32°00' E 120°24'121907.6
2014-Oct-23 22:32N 31°57' E 120°11'25632.6
2014-Oct-23 22:29N 32°00' E 120°40'70026814.0
2014-Oct-23 22:28N 22°12' E 113°35'69033571.6
2014-Oct-23 22:26N 31°60' E 120°20'34512307.0
2014-Oct-23 22:25N 37°36' E 121°57'9761756255.2
2014-Oct-23 22:25N 23°04' E 113°29'011.6
2014-Oct-23 22:22N 23°04' E 113°29'12453.4
2014-Oct-23 22:21N 22°53' E 113°34'43172.0
2014-Oct-23 22:06N 22°11' E 113°25'1019193141.2
2014-Oct-23 22:06N 37°45' E 121°17'3259.7
2014-Oct-23 21:33N 37°34' E 121°56'34783388.6
2014-Oct-23 21:33N 31°57' E 120°16'294.0
2014-Oct-23 21:32N 31°57' E 120°18'3953.8
2014-Oct-23 21:32N 31°56' E 120°14'365387.1
2014-Oct-23 21:31N 31°47' E 120°54'35953855.6
2014-Oct-23 21:31N 37°45' E 121°19'37736673.3
2014-Oct-23 21:30N 31°28' E 121°26'69829212.7
2014-Oct-23 21:29N 22°12' E 113°35'70012299.2
2014-Oct-23 21:26N 31°40' E 121°14'501875.9
2014-Oct-23 21:24N 31°60' E 120°20'64824039.1
2014-Oct-23 21:22N 23°04' E 113°29'65957838.1
2014-Oct-23 21:22N 31°60' E 120°41'70530930.6
2014-Oct-23 21:20N 22°12' E 113°24'7044211.7
2014-Oct-23 21:10N 32°00' E 120°40'65976471.5
2014-Oct-23 21:10N 23°04' E 113°29'6481071.8
2014-Oct-23 20:33N 31°59' E 120°21'725561.8
2014-Oct-23 20:33N 31°56' E 120°14'366463.0
2014-Oct-23 20:33N 31°47' E 120°54'323478.2
2014-Oct-23 20:33N 31°60' E 120°20'173381.9
2014-Oct-23 20:32N 32°00' E 120°40'31452.6
2014-Oct-23 20:32N 31°60' E 120°36'348178773.9
2014-Oct-23 20:32N 37°45' E 121°23'101818893.9
2014-Oct-23 20:29N 22°12' E 113°35'7001260715.9
2014-Oct-23 20:29N 31°40' E 121°14'996.4
2014-Oct-23 20:23N 31°33' E 121°20'6589674.3
2014-Oct-23 20:19N 23°04' E 113°29'974103160.9
2014-Oct-23 20:19N 37°34' E 121°57'9746472.3
2014-Oct-23 20:10N 23°04' E 113°29'6551082.9
2014-Oct-23 19:33N 32°01' E 120°32'6578.1
2014-Oct-23 19:33N 32°03' E 120°26'34118309.3
2014-Oct-23 19:32N 37°35' E 122°00'337855.9
2014-Oct-23 19:32N 37°45' E 121°21'971349436.4
2014-Oct-23 19:31N 23°04' E 113°29'5331833.3
2014-Oct-23 19:31N 22°12' E 113°35'696227766.9
2014-Oct-23 19:31N 31°47' E 120°54'3618428.9
2014-Oct-23 19:31N 31°56' E 120°14'6426210.7
2014-Oct-23 19:25N 23°04' E 113°29'10638.0
2014-Oct-23 19:24N 22°57' E 113°38'6606108.9
2014-Oct-23 19:17N 32°00' E 120°40'2330.9
2014-Oct-23 18:33N 31°56' E 120°14'5262545.8
2014-Oct-23 18:33N 31°40' E 121°12'35986072.1
2014-Oct-23 18:33N 37°36' E 122°04'382972.6
2014-Oct-23 18:32N 37°46' E 121°17'34428792.8
2014-Oct-23 18:31N 32°04' E 120°32'6992516971.6
2014-Oct-23 18:31N 22°12' E 113°35'696192713.4
2014-Oct-23 18:31N 31°47' E 120°54'521475.0
2014-Oct-23 18:29N 32°03' E 119°56'68219636.8
2014-Oct-23 18:27N 22°11' E 113°35'531485.8
2014-Oct-23 18:25N 23°04' E 113°29'010.5
2014-Oct-23 18:22N 23°04' E 113°29'102810946.5
2014-Oct-23 18:17N 38°46' E 121°29'414570.7
2014-Oct-23 17:33N 31°56' E 120°14'4943934.1
2014-Oct-23 17:33N 31°42' E 121°09'35664087.8
2014-Oct-23 17:33N 37°35' E 121°59'102241820.5
2014-Oct-23 17:31N 22°12' E 113°35'681204312.5
2014-Oct-23 17:31N 31°60' E 119°60'35218922.0
2014-Oct-23 17:30N 37°46' E 121°22'101891622.6
2014-Oct-23 17:29N 22°11' E 113°35'69018820.4
2014-Oct-23 17:27N 31°60' E 120°20'64816422.9
2014-Oct-23 17:25N 23°04' E 113°29'011.2
2014-Oct-23 17:22N 23°04' E 113°29'65535197.8
2014-Oct-23 17:21N 31°47' E 120°54'18100.0
2014-Oct-23 17:10N 32°00' E 120°40'1727.5
2014-Oct-23 16:33N 31°60' E 120°20'136837.9
2014-Oct-23 16:33N 31°57' E 120°05'460118334.7
2014-Oct-23 16:33N 24°23' E 118°40'8152933503.5
2014-Oct-23 16:33N 37°45' E 121°25'35479674.5
2014-Oct-23 16:33N 31°56' E 120°14'363676.3
2014-Oct-23 16:32N 31°47' E 120°54'13750.3
2014-Oct-23 16:31N 31°42' E 121°08'6594510.3
2014-Oct-23 16:22N 23°04' E 113°29'044.3
2014-Oct-23 16:22N 23°04' E 113°29'66213103.6
2014-Oct-23 16:19N 32°01' E 120°47'637.5
2014-Oct-23 16:09N 32°00' E 120°40'70020660.4
2014-Oct-23 16:07N 22°12' E 113°35'461311.1
2014-Oct-23 16:05N 22°57' E 113°37'6601242.0
2014-Oct-23 15:33N 32°00' E 120°40'172898.9
2014-Oct-23 15:33N 31°60' E 120°20'64826199.7
2014-Oct-23 15:31N 23°04' E 113°29'659148275.9
2014-Oct-23 15:31N 31°42' E 121°08'493017.3
2014-Oct-23 15:30N 31°56' E 120°14'6842463105.4
2014-Oct-23 15:30N 22°11' E 113°35'1018282010.9
2014-Oct-23 15:30N 37°44' E 121°26'101827155.6
2014-Oct-23 15:28N 22°12' E 113°35'531061.2
2014-Oct-23 15:25N 23°04' E 113°29'65511675.1
2014-Oct-23 15:21N 31°47' E 120°54'24132.8
2014-Oct-23 15:11N 32°01' E 120°32'4073802.0
2014-Oct-23 15:04N 38°44' E 121°35'406791.0
2014-Oct-23 14:33N 32°02' E 120°30'263560.0
2014-Oct-23 14:33N 31°47' E 120°54'114759.6
2014-Oct-23 14:33N 31°44' E 121°06'466198.3
2014-Oct-23 14:32N 31°56' E 120°14'35357821.6
2014-Oct-23 14:32N 37°45' E 121°26'97287436.9
2014-Oct-23 14:31N 23°04' E 113°29'64833311.3
2014-Oct-23 14:30N 31°60' E 120°20'3448783.8
2014-Oct-23 14:28N 37°34' E 122°00'102128940.6
2014-Oct-23 14:26N 22°11' E 113°35'7005649.4
2014-Oct-23 14:18N 32°00' E 120°40'700168019.1
2014-Oct-23 14:18N 22°11' E 113°35'53603.2
2014-Oct-23 14:13N 23°04' E 113°29'6624498.4
2014-Oct-23 14:04N 31°60' E 120°48'346681.6
2014-Oct-23 13:34N 37°45' E 121°21'346124487.8
2014-Oct-23 13:33N 32°00' E 120°40'223219.4
2014-Oct-23 13:33N 31°46' E 121°01'371456.2
2014-Oct-23 13:31N 31°60' E 120°20'2383.5
2014-Oct-23 13:31N 31°60' E 120°23'69125398.7
2014-Oct-23 13:29N 22°11' E 113°35'1023111586.0
2014-Oct-23 13:29N 37°35' E 122°03'35318941.3
2014-Oct-23 13:28N 31°47' E 120°54'392481.3
2014-Oct-23 13:27N 31°56' E 120°09'41433906.7
2014-Oct-23 13:26N 38°44' E 121°36'1076184425.3
2014-Oct-23 13:26N 22°11' E 113°35'533407.9
2014-Oct-23 13:25N 23°04' E 113°29'0 4.6
2014-Oct-23 13:19N 23°04' E 113°29'11103.6
2014-Oct-23 13:13N 22°56' E 113°36'66361234.8
2014-Oct-23 13:12N 31°40' E 121°14'66869.6
2014-Oct-23 13:08N 31°60' E 119°60'1425.1
2014-Oct-23 12:33N 31°57' E 120°16'4444.1
2014-Oct-23 12:33N 31°60' E 120°20'162578.4
2014-Oct-23 12:33N 31°59' E 120°02'68147113.3
2014-Oct-23 12:32N 22°11' E 113°35'1017366252.0
2014-Oct-23 12:31N 37°44' E 121°24'351264.2
2014-Oct-23 12:30N 37°35' E 122°06'10259509.5
2014-Oct-23 12:23N 22°11' E 113°35'107619170.9
2014-Oct-23 12:20N 38°44' E 121°35'104066862.6
2014-Oct-23 12:19N 22°49' E 113°36'6685515.7
2014-Oct-23 12:12N 31°40' E 121°12'364570.7
2014-Oct-23 11:33N 37°44' E 121°27'359322758.3
2014-Oct-23 11:33N 31°47' E 120°54'4225207.0
2014-Oct-23 11:33N 31°58' E 120°07'5412888.7
2014-Oct-23 11:33N 31°43' E 121°07'29462.6
2014-Oct-23 11:29N 32°00' E 120°40'4068759.3
2014-Oct-23 11:27N 38°44' E 121°35'54731257.0
2014-Oct-23 11:25N 29°38' E 122°16'61552729.3
2014-Oct-23 11:25N 23°04' E 113°29'615158111.7
2014-Oct-23 11:25N 29°38' E 122°16'64735310.9
2014-Oct-23 11:23N 22°11' E 113°35'0 4.3
2014-Oct-23 11:18N 22°11' E 113°35'6907304.4
2014-Oct-23 11:12N 31°60' E 120°20'3249.1
2014-Oct-23 10:33N 31°47' E 120°54'3722477.9
2014-Oct-23 10:33N 31°57' E 120°12'241553.0
2014-Oct-23 10:32N 32°00' E 120°40'34569022.3
2014-Oct-23 10:32N 37°44' E 121°24'34840404.4
2014-Oct-23 10:31N 31°60' E 120°20'69026141.8
2014-Oct-23 10:30N 22°11' E 113°35'103125409.9
2014-Oct-23 10:27N 37°39' E 122°13'98521887.0
2014-Oct-23 10:25N 23°04' E 113°29'531313.1
2014-Oct-23 10:22N 22°11' E 113°35'11172.4
2014-Oct-23 10:18N 22°14' E 113°23'107610938.2
2014-Oct-23 10:13N 38°44' E 121°31'411628.8
2014-Oct-23 09:33N 31°58' E 120°17'35078689.4
2014-Oct-23 09:33N 37°43' E 121°28'35780333.5
2014-Oct-23 09:33N 31°47' E 120°54'321093.2
2014-Oct-23 09:31N 31°60' E 120°20'40839735.8
2014-Oct-23 09:30N 38°44' E 121°29'1073110403.8
2014-Oct-23 09:30N 22°11' E 113°35'70028311.3
2014-Oct-23 09:28N 32°00' E 120°40'1 9.2
2014-Oct-23 09:24N 31°60' E 120°40'7005392.4
2014-Oct-23 09:16N 22°11' E 113°35'53485.0
2014-Oct-23 09:10N 23°04' E 113°29'6551083.4
2014-Oct-23 08:34N 31°47' E 120°54'323280.0
2014-Oct-23 08:33N 31°60' E 120°20'347416570.5
2014-Oct-23 08:33N 37°42' E 121°29'34588686.5
2014-Oct-23 08:33N 32°00' E 120°35'69723463.5
2014-Oct-23 08:31N 22°11' E 113°35'103361990.2
2014-Oct-23 08:30N 37°40' E 122°17'1033371894.1
2014-Oct-23 08:30N 22°11' E 113°35'53651.1
2014-Oct-23 08:25N 23°04' E 113°29'6583435.7
2014-Oct-23 08:13N 32°00' E 120°40'68155758.7
2014-Oct-23 08:13N 22°27' E 113°46'9991529.4
2014-Oct-23 07:33N 37°41' E 121°32'34394986.0
2014-Oct-23 07:33N 32°02' E 120°30'9194.7
2014-Oct-23 07:30N 31°60' E 120°20'65293861.3
2014-Oct-23 07:30N 23°02' E 113°24'66328736.6
2014-Oct-23 07:29N 32°00' E 120°40'7004293.5
2014-Oct-23 07:19N 22°11' E 113°35'0 5.4
2014-Oct-23 07:15N 22°11' E 113°35'103128336.4
2014-Oct-23 07:12N 37°39' E 122°15'34517514.7
2014-Oct-23 07:11N 32°04' E 120°32'342541.7
2014-Oct-23 06:33N 37°42' E 121°35'344137768.4
2014-Oct-23 06:33N 32°02' E 120°30'34728415.9
2014-Oct-23 06:32N 37°39' E 122°12'103018352.2
2014-Oct-23 06:29N 22°11' E 113°35'70019246.1
2014-Oct-23 06:27N 32°04' E 120°35'66485408.1
2014-Oct-23 06:26N 23°03' E 113°20'531335.6
2014-Oct-23 06:24N 22°11' E 113°35'0 0.5
2014-Oct-23 05:33N 22°11' E 113°36'69062083.4
2014-Oct-23 05:32N 31°60' E 120°20'35036019.2
2014-Oct-23 05:32N 37°44' E 121°36'102231436.1
2014-Oct-23 05:30N 22°11' E 113°35'1027154009.1
2014-Oct-23 05:30N 37°37' E 122°08'34510515.9
2014-Oct-23 05:28N 32°02' E 120°30'66034424.8
2014-Oct-23 05:26N 23°03' E 113°20'653740.6
2014-Oct-23 04:33N 31°60' E 120°20'6959.2
2014-Oct-23 04:33N 32°02' E 120°26'34665605.9
2014-Oct-23 04:33N 37°44' E 121°32'1017130742.2
2014-Oct-23 04:32N 22°13' E 113°40'6929512.1
2014-Oct-23 04:28N 31°47' E 120°54'3561859.4
2014-Oct-23 04:17N 37°37' E 122°09'98628403.8
2014-Oct-23 04:14N 23°03' E 113°20'531240.8
2014-Oct-23 04:12N 22°11' E 113°35'103610449.2
2014-Oct-23 04:06N 39°05' E 117°44'194356.9
2014-Oct-23 03:33N 37°44' E 121°28'349104577.0
2014-Oct-23 03:33N 31°60' E 120°20'1733.8
2014-Oct-23 03:33N 31°58' E 120°20'3118686.6
2014-Oct-23 03:33N 31°47' E 120°54'6962506440.2
2014-Oct-23 03:33N 22°10' E 113°36'1037162313.6
2014-Oct-23 03:33N 39°04' E 117°47'221797125.9
2014-Oct-23 03:33N 37°35' E 122°06'34224648.2
2014-Oct-23 03:32N 32°00' E 120°40'28348.7
2014-Oct-23 03:27N 31°44' E 121°07'66674925.9
2014-Oct-23 03:26N 23°03' E 113°20'6593925.7
2014-Oct-23 03:16N 31°51' E 120°43'2130.0
2014-Oct-23 02:33N 31°60' E 120°20'348313145.5
2014-Oct-23 02:33N 37°44' E 121°23'3223018.8
2014-Oct-23 02:33N 37°34' E 122°01'35235160.8
2014-Oct-23 02:33N 31°47' E 120°54'69847393.9
2014-Oct-23 02:32N 22°11' E 113°32'103727853.8
2014-Oct-23 02:30N 39°03' E 117°52'9889668.2
2014-Oct-23 02:23N 23°03' E 113°20'828.0
2014-Oct-23 02:06N 23°04' E 113°29'432307.5
2014-Oct-23 02:05N 22°24' E 113°44'6751296.7
2014-Oct-23 01:33N 31°60' E 120°20'344176664.9
2014-Oct-23 01:33N 37°33' E 121°60'35174285.0
2014-Oct-23 01:33N 31°47' E 120°54'678152661.6
2014-Oct-23 01:33N 22°26' E 113°45'102050988.7
2014-Oct-23 01:32N 39°04' E 117°50'1778953.1
2014-Oct-23 01:30N 37°42' E 121°10'101229617.6
2014-Oct-23 01:28N 22°11' E 113°32'44558.0
2014-Oct-23 01:24N 22°53' E 113°18'15153.1
2014-Oct-23 01:18N 23°04' E 113°29'97913827.6
2014-Oct-23 01:14N 37°34' E 122°11'353523.6
2014-Oct-23 00:33N 31°47' E 120°54'35123376.3
2014-Oct-23 00:32N 37°31' E 122°15'34042157.9
2014-Oct-23 00:32N 32°00' E 120°40'34067959.3
2014-Oct-23 00:31N 37°34' E 121°56'1002106053.4
2014-Oct-23 00:31N 22°27' E 113°46'341794.8
2014-Oct-23 00:30N 22°55' E 113°25'442010.3
2014-Oct-23 00:28N 22°11' E 113°32'69217919.3
2014-Oct-23 00:26N 31°60' E 120°20'6483449.2
2014-Oct-23 00:15N 23°04' E 113°29'43257.3
2014-Oct-23 00:05N 22°27' E 113°53'6741294.0
2014-Oct-22 23:33N 31°47' E 120°54'663341032.3
2014-Oct-22 23:33N 22°53' E 113°31'65684356.8
2014-Oct-22 23:33N 31°60' E 120°20'64812402.5
2014-Oct-22 23:30N 23°04' E 113°29'6583269.3
2014-Oct-22 23:18N 32°00' E 120°40'6653996.7
2014-Oct-22 23:08N 23°03' E 113°18'66719362.7
2014-Oct-22 23:06N 31°27' E 121°29'3564.5
2014-Oct-22 22:33N 31°47' E 120°54'358128724.9
2014-Oct-22 22:33N 37°44' E 121°14'34518794.2
2014-Oct-22 22:32N 32°00' E 120°40'171110.1
2014-Oct-22 22:31N 31°60' E 120°20'4463319.1
2014-Oct-22 22:23N 24°38' E 119°07'3233919.0
2014-Oct-22 22:18N 23°04' E 113°29'6598568.1
2014-Oct-22 22:13N 31°25' E 121°32'70105.3
2014-Oct-22 21:33N 31°60' E 120°20'35112043.0
2014-Oct-22 21:31N 37°47' E 121°23'592877.3
2014-Oct-22 21:30N 38°46' E 121°27'1027184897.9
2014-Oct-22 21:30N 23°04' E 113°29'97525621.7
2014-Oct-22 21:27N 37°34' E 121°60'35297354.1
2014-Oct-22 21:27N 31°47' E 120°54'1895.4
2014-Oct-22 21:16N 32°00' E 120°40'1723.8
2014-Oct-22 20:33N 31°60' E 120°20'352140604.4
2014-Oct-22 20:33N 37°47' E 121°26'36116675.9
2014-Oct-22 20:31N 31°47' E 120°54'3542369.9
2014-Oct-22 20:23N 37°35' E 122°05'97812621.4
2014-Oct-22 20:18N 23°04' E 113°29'65818093.5
2014-Oct-22 20:16N 32°00' E 120°40'1825.5
2014-Oct-22 19:33N 31°47' E 120°54'36281417.9
2014-Oct-22 19:32N 37°48' E 121°23'372414.5
2014-Oct-22 19:31N 37°37' E 122°08'3447651.4
2014-Oct-22 19:29N 32°00' E 120°40'65820611.0
2014-Oct-22 19:27N 23°04' E 113°29'10254928.9
2014-Oct-22 19:14N 38°43' E 121°31'2 2.4
2014-Oct-22 18:33N 38°43' E 121°29'102517483.3
2014-Oct-22 18:30N 23°04' E 113°29'658592561.2
2014-Oct-22 18:30N 32°00' E 120°40'67189459.1
2014-Oct-22 18:29N 22°42' E 113°40'995111949.9
2014-Oct-22 18:29N 37°36' E 122°07'324659.7
2014-Oct-22 18:28N 37°46' E 121°28'5761.9
2014-Oct-22 17:33N 38°43' E 121°28'562902.8
2014-Oct-22 17:32N 37°46' E 121°28'30903.3
2014-Oct-22 17:30N 37°35' E 122°03'977106553.6
2014-Oct-22 17:30N 23°04' E 113°29'20422.8
2014-Oct-22 17:27N 22°45' E 113°33'6695549.0
2014-Oct-22 17:20N 31°47' E 120°54'362467.4
2014-Oct-22 16:33N 37°47' E 121°25'9931787481.9
2014-Oct-22 16:33N 22°44' E 113°27'99362739.8
2014-Oct-22 16:32N 37°34' E 121°58'97410597.1
2014-Oct-22 16:27N 23°04' E 113°29'102637311.5
2014-Oct-22 16:25N 38°43' E 121°32'41713909.3
2014-Oct-22 16:23N 31°47' E 120°54'18421.2
2014-Oct-22 16:21N 32°00' E 120°40'69110631.3
2014-Oct-22 16:17N 22°11' E 113°54'17123.0
2014-Oct-22 16:08N 22°27' E 113°46'6718192.2
2014-Oct-22 16:04N 31°60' E 120°20'671142051.9
2014-Oct-22 16:03N 22°27' E 113°48'6811336.4
2014-Oct-22 15:33N 32°00' E 120°40'6921246116.9
2014-Oct-22 15:33N 22°13' E 113°49'652234889.7
2014-Oct-22 15:32N 29°47' E 122°30'48792231.4
2014-Oct-22 15:32N 37°51' E 121°27'285612.9
2014-Oct-22 15:32N 37°34' E 121°56'35140780.1
2014-Oct-22 15:31N 31°47' E 120°54'65524563.0
2014-Oct-22 15:30N 23°04' E 113°29'648105984.1
2014-Oct-22 15:29N 31°60' E 120°20'40925839.9
2014-Oct-22 15:28N 38°44' E 121°35'104652314.8
2014-Oct-22 15:27N 22°48' E 113°21'32332.7
2014-Oct-22 15:21N 22°23' E 113°45'10031252.7
2014-Oct-22 14:33N 37°31' E 121°57'100975651.6
2014-Oct-22 14:33N 22°19' E 113°41'61486.2
2014-Oct-22 14:32N 22°20' E 113°48'68537353.3
2014-Oct-22 14:31N 31°60' E 120°38'67360592.0
2014-Oct-22 14:31N 22°51' E 113°18'66634258.4
2014-Oct-22 14:29N 31°13' E 121°30'645481.5
2014-Oct-22 14:29N 32°00' E 120°40'68118035.3
2014-Oct-22 14:26N 22°27' E 113°46'67186308.4
2014-Oct-22 14:26N 31°60' E 120°20'32201.0
2014-Oct-22 14:16N 31°47' E 120°54'1361988.0
2014-Oct-22 14:12N 29°53' E 122°22'62852580.6
2014-Oct-22 14:12N 23°04' E 113°29'6481018.2
2014-Oct-22 13:33N 31°60' E 120°20'111805.9
2014-Oct-22 13:33N 32°04' E 120°32'696139282.6
2014-Oct-22 13:33N 22°13' E 113°38'463041.0
2014-Oct-22 13:32N 22°54' E 113°14'6729227.2
2014-Oct-22 13:27N 31°47' E 120°54'181379.2
2014-Oct-22 13:27N 32°00' E 120°40'3405296.8
2014-Oct-22 13:23N 37°35' E 121°54'721094.2
2014-Oct-22 13:19N 38°44' E 121°32'405533.7
2014-Oct-22 12:33N 32°03' E 120°26'621392.7
2014-Oct-22 12:33N 31°60' E 120°20'17596.8
2014-Oct-22 12:32N 32°00' E 120°40'67533759.7
2014-Oct-22 12:30N 22°54' E 113°13'67437902.7
2014-Oct-22 12:29N 31°20' E 121°32'69512512.1
2014-Oct-22 12:26N 22°12' E 113°34'69654452.2
2014-Oct-22 12:25N 31°47' E 120°54'4372325.9
2014-Oct-22 12:14N 24°41' E 119°05'4253043.1
2014-Oct-22 12:06N 31°26' E 121°29'66122.6
2014-Oct-22 11:33N 31°59' E 120°21'41077598.5
2014-Oct-22 11:33N 38°44' E 121°35'409122750.4
2014-Oct-22 11:33N 31°60' E 120°20'325466.6
2014-Oct-22 11:32N 31°47' E 120°54'31980.8
2014-Oct-22 11:30N 31°30' E 121°26'69923964.7
2014-Oct-22 11:29N 22°12' E 113°34'531430.5
2014-Oct-22 11:26N 23°04' E 113°29'65810676.9
2014-Oct-22 11:23N 32°00' E 120°40'45095279.0
2014-Oct-22 11:22N 24°39' E 119°02'7896777.1
2014-Oct-22 11:15N 37°33' E 121°58'343489.7
2014-Oct-22 10:33N 31°60' E 120°20'51946.5
2014-Oct-22 10:33N 31°56' E 120°15'694594.4
2014-Oct-22 10:32N 31°27' E 121°28'534675.3
2014-Oct-22 10:32N 32°00' E 120°40'4066556.1
2014-Oct-22 10:28N 38°44' E 121°32'41929562.2
2014-Oct-22 10:27N 31°47' E 120°54'65510670.8
2014-Oct-22 10:23N 23°04' E 113°29'53282.0
2014-Oct-22 10:12N 22°12' E 113°34'471197.4
2014-Oct-22 10:10N 22°54' E 113°13'6751111.0
2014-Oct-22 09:33N 31°31' E 121°22'284610.7
2014-Oct-22 09:33N 31°47' E 120°54'4191507095.0
2014-Oct-22 09:33N 38°44' E 121°32'107522754.4
2014-Oct-22 09:30N 22°12' E 113°34'69070979.8
2014-Oct-22 09:30N 31°60' E 120°20'64812337.5
2014-Oct-22 09:26N 23°04' E 113°29'18777.2
2014-Oct-22 09:25N 22°54' E 113°13'19996.0
2014-Oct-22 09:24N 22°55' E 113°33'4085129.4
2014-Oct-22 09:19N 26°46' E 119°43'65818805.5
2014-Oct-22 09:17N 37°34' E 121°59'3589770.2
2014-Oct-22 09:15N 31°38' E 121°15'5174.4
2014-Oct-22 08:33N 31°60' E 120°20'487448.6
2014-Oct-22 08:33N 31°40' E 121°11'660169675.5
2014-Oct-22 08:33N 23°03' E 113°31'97683649.2
2014-Oct-22 08:32N 37°34' E 122°00'991132083.2
2014-Oct-22 08:32N 22°54' E 113°13'1861.7
2014-Oct-22 08:14N 23°04' E 113°29'53292.5
2014-Oct-22 08:04N 22°12' E 113°34'5199.7
2014-Oct-22 07:33N 23°02' E 113°23'664239131.9
2014-Oct-22 07:33N 31°43' E 121°07'35515019.3
2014-Oct-22 07:31N 37°35' E 122°04'98331594.5
2014-Oct-22 07:29N 22°55' E 113°36'663125577.2
2014-Oct-22 07:29N 31°41' E 121°10'42425856.1
2014-Oct-22 07:28N 38°44' E 121°37'4067862.3
2014-Oct-22 07:25N 31°60' E 120°49'412711.5
2014-Oct-22 07:24N 31°59' E 120°01'63879183.1
2014-Oct-22 07:24N 23°04' E 113°29'6523146.3
2014-Oct-22 07:11N 30°25' E 122°27'68727461.2
2014-Oct-22 07:10N 22°12' E 113°34'107553020.8
2014-Oct-22 07:08N 38°44' E 121°34'0 0.4
2014-Oct-22 06:34N 38°44' E 121°34'409163646.6
2014-Oct-22 06:33N 31°60' E 120°20'346103846.5
2014-Oct-22 06:33N 37°35' E 122°07'35343833.0
2014-Oct-22 06:33N 31°45' E 121°03'699419567.3
2014-Oct-22 06:33N 22°12' E 113°34'69644732.6
2014-Oct-22 06:32N 31°47' E 120°54'1141488.0
2014-Oct-22 06:27N 30°25' E 122°27'65265199.1
2014-Oct-22 06:26N 23°04' E 113°29'6596979.0
2014-Oct-22 06:21N 31°45' E 121°04'3681663.0
2014-Oct-22 06:08N 37°51' E 121°46'5495.2
2014-Oct-22 05:33N 38°44' E 121°30'539140.9
2014-Oct-22 05:33N 37°52' E 121°43'363652938.1
2014-Oct-22 05:33N 31°57' E 120°14'34989752.1
2014-Oct-22 05:33N 37°34' E 122°02'9821767512.7
2014-Oct-22 05:33N 22°56' E 113°34'44718.5
2014-Oct-22 05:29N 22°12' E 113°34'2754.0
2014-Oct-22 05:29N 22°14' E 113°35'511282.2
2014-Oct-22 05:26N 23°04' E 113°29'10279653.3
2014-Oct-22 05:20N 38°44' E 121°31'4094353.6
2014-Oct-22 05:14N 31°60' E 120°20'24249.9
2014-Oct-22 05:09N 32°05' E 119°52'1666635.8
2014-Oct-22 05:07N 30°25' E 122°27'13719790.6
2014-Oct-22 05:07N 32°05' E 120°36'0 0.8
2014-Oct-22 04:33N 32°04' E 120°36'668114487.4
2014-Oct-22 04:33N 22°51' E 113°34'656472159.6
2014-Oct-22 04:33N 31°59' E 120°20'68417976.7
2014-Oct-22 04:31N 22°17' E 113°35'471911.2
2014-Oct-22 04:29N 23°04' E 113°29'652391203.1
2014-Oct-22 04:29N 30°25' E 122°27'1621061.0
2014-Oct-22 04:20N 32°03' E 119°55'64112334.8
2014-Oct-22 04:17N 22°57' E 113°37'97511664.1
2014-Oct-22 04:12N 37°32' E 121°57'9811539.4
2014-Oct-22 03:33N 22°54' E 113°28'1035338882.6
2014-Oct-22 03:33N 38°44' E 121°29'4081468985.4
2014-Oct-22 03:33N 31°60' E 120°20'652293565.7
2014-Oct-22 03:33N 23°02' E 113°24'6552358210.0
2014-Oct-22 03:33N 32°01' E 120°23'659263640.4
2014-Oct-22 03:33N 22°51' E 113°34'65843078.9
2014-Oct-22 03:32N 30°25' E 122°27'68636311.2
2014-Oct-22 03:31N 22°11' E 113°36'6882465.3
2014-Oct-22 03:14N 31°14' E 121°29'3806741.3
2014-Oct-22 03:11N 37°34' E 121°56'3514955.8
2014-Oct-22 03:07N 31°45' E 121°03'25499.7
2014-Oct-22 03:04N 31°60' E 120°39'3162.7
2014-Oct-22 02:34N 31°58' E 120°02'204299.6
2014-Oct-22 02:33N 32°03' E 120°26'33953093.0
2014-Oct-22 02:33N 37°34' E 121°54'430193610.7
2014-Oct-22 02:33N 30°25' E 122°27'698224.2
2014-Oct-22 02:32N 31°15' E 121°33'658789368.3
2014-Oct-22 02:32N 22°57' E 113°30'4581370.2
2014-Oct-22 02:32N 22°13' E 113°40'367110121.8
2014-Oct-22 02:32N 22°33' E 120°17'56712076.5
2014-Oct-22 02:29N 31°60' E 120°20'327165.6
2014-Oct-22 02:29N 31°47' E 120°54'4193694.6
2014-Oct-22 02:22N 38°44' E 121°34'4076058.4
2014-Oct-22 02:18N 31°59' E 120°38'4126363.7
2014-Oct-22 02:14N 38°48' E 121°44'4232519.1
2014-Oct-22 02:04N 31°46' E 121°03'66582539.7
2014-Oct-22 02:04N 23°03' E 113°20'6451282.5
2014-Oct-22 01:33N 31°57' E 120°08'674808310.8
2014-Oct-22 01:33N 22°17' E 113°44'680222481.3
2014-Oct-22 01:33N 31°58' E 120°20'3927827.0
2014-Oct-22 01:33N 31°46' E 121°03'65943133.9
2014-Oct-22 01:32N 23°03' E 113°30'6579531.7
2014-Oct-22 01:28N 31°59' E 120°38'66027300.4
2014-Oct-22 01:27N 23°03' E 113°25'979440440.4
2014-Oct-22 01:26N 37°48' E 121°30'38787120.0
2014-Oct-22 01:26N 31°20' E 121°33'729984.1
2014-Oct-22 01:26N 30°25' E 122°27'1142708.2
2014-Oct-22 01:23N 31°47' E 120°54'4426.5
2014-Oct-22 01:23N 31°47' E 120°59'4182241.7
2014-Oct-22 01:12N 38°44' E 121°35'103224608.1
2014-Oct-22 01:09N 22°57' E 113°37'1017.7
2014-Oct-22 00:33N 23°04' E 113°29'655393037.0
2014-Oct-22 00:33N 31°47' E 120°54'3716568.6
2014-Oct-22 00:33N 31°57' E 120°13'2115047.7
2014-Oct-22 00:33N 32°04' E 120°36'13770608.1
2014-Oct-22 00:33N 30°25' E 122°27'44346915.8
2014-Oct-22 00:32N 37°45' E 121°20'100463382.3
2014-Oct-22 00:32N 22°22' E 113°44'4208784.5
2014-Oct-22 00:29N 26°45' E 119°43'29238985.3
2014-Oct-22 00:28N 31°23' E 121°30'66336190.8
2014-Oct-22 00:27N 22°52' E 113°34'13173.7
2014-Oct-22 00:22N 23°04' E 113°29'97212068.9
2014-Oct-22 00:18N 37°32' E 121°56'4715261.4
2014-Oct-22 00:12N 29°42' E 122°12'65312443.4
2014-Oct-22 00:09N 22°09' E 113°28'5592.6
2014-Oct-21 23:33N 23°04' E 113°29'0100.5
2014-Oct-21 23:33N 23°04' E 113°29'645774182.8
2014-Oct-21 23:33N 31°58' E 120°18'161444.0
2014-Oct-21 23:32N 32°04' E 120°36'13711494.4
2014-Oct-21 23:32N 30°25' E 122°27'13311377.0
2014-Oct-21 23:31N 31°60' E 120°38'581935.9
2014-Oct-21 23:29N 31°24' E 121°32'32210439.9
2014-Oct-21 23:27N 36°43' E 122°23'86758883.7
2014-Oct-21 23:26N 23°09' E 116°40'96817003.2
2014-Oct-21 23:23N 38°44' E 121°32'4199914.8
2014-Oct-21 23:21N 31°47' E 120°54'6636981.4
2014-Oct-21 23:15N 22°51' E 113°34'6477535.2
2014-Oct-21 23:10N 31°58' E 120°02'6381057.8
2014-Oct-21 22:34N 23°04' E 113°29'6492337181.7
2014-Oct-21 22:33N 32°00' E 120°22'12681.8
2014-Oct-21 22:32N 32°04' E 120°36'261538.0
2014-Oct-21 22:31N 31°58' E 120°06'15226056.7
2014-Oct-21 22:31N 30°25' E 122°27'126151028.6
2014-Oct-21 22:31N 31°59' E 120°49'66358174.4
2014-Oct-21 22:30N 23°04' E 113°29'949179741.9
2014-Oct-21 22:30N 36°50' E 122°28'95816271.9
2014-Oct-21 22:26N 22°51' E 113°34'62427714.6
2014-Oct-21 22:25N 29°34' E 122°24'15415796.6
2014-Oct-21 22:25N 31°47' E 120°54'483768.0
2014-Oct-21 22:24N 31°59' E 119°60'68363009.5
2014-Oct-21 22:23N 22°10' E 113°32'686829.7
2014-Oct-21 21:34N 31°57' E 120°11'145169.7
2014-Oct-21 21:33N 32°02' E 120°27'6032171671.6
2014-Oct-21 21:33N 23°04' E 115°19'60186564.4
2014-Oct-21 21:33N 31°47' E 120°54'227351.8
2014-Oct-21 21:33N 32°02' E 120°35'308158484.2
2014-Oct-21 21:33N 36°56' E 122°28'880132027.8
2014-Oct-21 21:32N 23°09' E 116°40'535192693.9
2014-Oct-21 21:32N 30°25' E 122°27'65244282.3
2014-Oct-21 21:31N 23°04' E 113°29'662238263.0
2014-Oct-21 21:31N 32°02' E 120°45'641.4
2014-Oct-21 21:22N 31°60' E 120°38'3542539.1
2014-Oct-21 21:22N 32°03' E 119°56'4407687.6
2014-Oct-21 21:19N 24°47' E 118°47'308410.4
2014-Oct-21 20:34N 23°04' E 113°30'645290145.6
2014-Oct-21 20:33N 31°58' E 120°18'645773956.6
2014-Oct-21 20:33N 23°04' E 113°29'656393422.0
2014-Oct-21 20:33N 32°02' E 120°33'13754851.5
2014-Oct-21 20:33N 30°25' E 122°27'137247021.4
2014-Oct-21 20:33N 32°01' E 120°32'2427.9
2014-Oct-21 20:33N 32°00' E 120°35'222094.9
2014-Oct-21 20:32N 31°47' E 120°54'5652911.5
2014-Oct-21 20:20N 23°10' E 116°37'57579601.1
2014-Oct-21 20:20N 32°02' E 120°45'34210814.5
2014-Oct-21 20:18N 37°39' E 121°56'9781313.4
2014-Oct-21 19:33N 23°04' E 113°30'654213976.5
2014-Oct-21 19:33N 32°02' E 120°29'2610549.6
2014-Oct-21 19:33N 31°47' E 120°54'1933922.7
2014-Oct-21 19:33N 32°00' E 120°39'1322644.8
2014-Oct-21 19:33N 32°01' E 120°24'14226895.2
2014-Oct-21 19:33N 30°25' E 122°27'65216300.6
2014-Oct-21 19:30N 23°04' E 113°29'654214131.1
2014-Oct-21 19:30N 32°02' E 120°30'69929950.9
2014-Oct-21 19:29N 22°10' E 113°32'102629783.2
2014-Oct-21 19:27N 37°38' E 121°57'10025820.4
2014-Oct-21 19:16N 22°27' E 113°53'671939.4
2014-Oct-21 18:33N 32°01' E 120°25'6597.2
2014-Oct-21 18:33N 32°02' E 120°31'13855298.8
2014-Oct-21 18:33N 30°25' E 122°27'1393188.4
2014-Oct-21 18:30N 32°02' E 120°30'4059993.1
2014-Oct-21 18:28N 38°44' E 121°27'40414263.2
2014-Oct-21 18:26N 32°02' E 120°45'17504.1
2014-Oct-21 18:24N 31°47' E 120°54'6982176.8
2014-Oct-21 18:05N 22°10' E 113°32'6921317.4
2014-Oct-21 17:33N 31°59' E 120°21'815052.5
2014-Oct-21 17:33N 32°02' E 120°30'406291987.0
2014-Oct-21 17:33N 38°44' E 121°30'1026175961.5
2014-Oct-21 17:33N 23°04' E 113°30'65751451.5
2014-Oct-21 17:32N 32°00' E 120°39'66679931.1
2014-Oct-21 17:31N 22°51' E 113°34'141035.5
2014-Oct-21 17:31N 23°04' E 113°29'65242678.1
2014-Oct-21 17:30N 30°25' E 122°27'68940023.1
2014-Oct-21 17:29N 22°10' E 113°32'10226093.3
2014-Oct-21 17:19N 37°33' E 121°58'347460.9
2014-Oct-21 16:33N 31°57' E 120°15'643105137.2
2014-Oct-21 16:33N 23°04' E 113°30'64330854.0
2014-Oct-21 16:32N 31°56' E 120°16'41333763.4
2014-Oct-21 16:31N 38°44' E 121°33'40625187.8
2014-Oct-21 16:30N 32°02' E 120°30'34247376.6
2014-Oct-21 16:30N 37°36' E 121°59'97629051.6
2014-Oct-21 16:28N 23°04' E 113°29'41580.5
2014-Oct-21 16:23N 22°27' E 113°47'27441.5
2014-Oct-21 16:20N 22°51' E 113°34'67014895.3
2014-Oct-21 16:17N 32°02' E 120°45'6724161.1
2014-Oct-21 16:07N 22°55' E 113°26'451012.4
2014-Oct-21 16:05N 22°10' E 113°32'6991328.4
2014-Oct-21 15:33N 32°02' E 120°30'6541177769.6
2014-Oct-21 15:33N 23°04' E 113°29'647387971.9
2014-Oct-21 15:33N 31°59' E 120°19'41013907.6
2014-Oct-21 15:31N 38°43' E 121°36'50036006.3
2014-Oct-21 15:30N 30°25' E 122°27'65928587.9
2014-Oct-21 15:29N 22°54' E 113°29'32868.4
2014-Oct-21 15:27N 22°27' E 113°47'419134.1
2014-Oct-21 15:27N 23°04' E 113°30'66268054.9
2014-Oct-21 15:26N 32°02' E 120°45'70612900.8
2014-Oct-21 15:23N 22°10' E 113°32'695846.5
2014-Oct-21 14:33N 32°01' E 120°24'408112848.4
2014-Oct-21 14:33N 38°44' E 121°36'97045923.9
2014-Oct-21 14:32N 22°37' E 120°14'48333447.5
2014-Oct-21 14:31N 30°25' E 122°27'11425559.8
2014-Oct-21 14:31N 31°47' E 120°54'65531855.0
2014-Oct-21 14:30N 23°04' E 113°30'543956.0
2014-Oct-21 14:29N 22°10' E 113°32'2392.3
2014-Oct-21 14:14N 22°27' E 113°49'219.5
2014-Oct-21 14:09N 22°27' E 113°47'68453562.0
2014-Oct-21 14:08N 32°02' E 120°45'6621149.4
2014-Oct-21 13:33N 23°04' E 113°29'6452321690.2
2014-Oct-21 13:33N 31°57' E 120°18'668267208.7
2014-Oct-21 13:33N 22°27' E 113°47'40657.2
2014-Oct-21 13:30N 23°04' E 113°30'16345.2
2014-Oct-21 13:27N 22°53' E 113°18'6686945.1
2014-Oct-21 13:21N 30°25' E 122°27'1302559.6
2014-Oct-21 13:18N 32°02' E 120°45'17408.0
2014-Oct-21 13:16N 31°47' E 120°54'6983496.8
2014-Oct-21 13:04N 22°10' E 113°32'6851365.0
2014-Oct-21 12:33N 31°56' E 120°11'64095973.5
2014-Oct-21 12:33N 23°04' E 113°29'656295261.4
2014-Oct-21 12:33N 31°21' E 121°31'561166.4
2014-Oct-21 12:30N 32°02' E 120°45'66295277.9
2014-Oct-21 12:30N 23°04' E 113°30'65535719.3
2014-Oct-21 12:28N 31°47' E 120°54'11417039.0
2014-Oct-21 12:28N 30°25' E 122°27'6672778.1
2014-Oct-21 12:14N 22°28' E 113°47'311124230.1
2014-Oct-21 12:14N 24°37' E 118°55'3263495.0
2014-Oct-21 12:08N 22°53' E 113°17'7104.6
2014-Oct-21 12:04N 22°55' E 113°25'1020.0
2014-Oct-21 11:33N 23°04' E 113°29'27919334.5
2014-Oct-21 11:32N 23°17' E 118°32'51192046.5
2014-Oct-21 11:32N 31°23' E 121°30'666342387.7
2014-Oct-21 11:32N 22°55' E 113°28'3223386.3
2014-Oct-21 11:32N 22°28' E 113°47'67016187.2
2014-Oct-21 11:29N 31°59' E 120°20'1443063.9
2014-Oct-21 11:26N 30°25' E 122°27'1143587.2
2014-Oct-21 11:24N 31°47' E 120°54'67210756.0
2014-Oct-21 11:21N 22°49' E 113°20'67912860.2
2014-Oct-21 11:18N 31°59' E 120°48'6612380724.0
2014-Oct-21 11:18N 23°04' E 113°30'18411.4
2014-Oct-21 11:15N 22°54' E 113°13'9915044.5
2014-Oct-21 11:03N 37°35' E 121°57'9751938.2
2014-Oct-21 10:33N 23°04' E 113°29'655262024.6
2014-Oct-21 10:33N 31°47' E 120°54'3642999.2
2014-Oct-21 10:33N 31°26' E 121°29'66631147.3
2014-Oct-21 10:31N 22°53' E 113°32'4733598.9
2014-Oct-21 10:31N 22°06' E 113°34'102516330.4
2014-Oct-21 10:28N 37°33' E 121°58'97458427.6
2014-Oct-21 10:27N 23°04' E 113°30'65278202.9
2014-Oct-21 10:26N 30°25' E 122°27'66796010.5
2014-Oct-21 10:26N 22°28' E 113°47'68424609.9
2014-Oct-21 10:24N 32°02' E 120°45'38676.3
2014-Oct-21 10:21N 32°00' E 119°60'67611370.7
2014-Oct-21 10:17N 22°17' E 113°35'6883647.9
2014-Oct-21 10:06N 32°01' E 120°25'2 3.8
2014-Oct-21 09:34N 32°02' E 120°27'661793411.8
2014-Oct-21 09:33N 22°52' E 113°33'13987.5
2014-Oct-21 09:33N 23°04' E 113°29'65263437.1
2014-Oct-21 09:32N 30°25' E 122°27'15422142.5
2014-Oct-21 09:32N 31°58' E 120°04'661476272.5
2014-Oct-21 09:32N 22°28' E 113°47'67617636.9
2014-Oct-21 09:29N 31°47' E 120°54'69310141.2
2014-Oct-21 09:25N 22°14' E 113°36'29717.9
2014-Oct-21 09:23N 22°42' E 113°29'99193882.4
2014-Oct-21 09:22N 37°31' E 121°57'79631149.6
2014-Oct-21 09:21N 24°32' E 118°42'1342880.3
2014-Oct-21 09:18N 22°37' E 117°28'703537.1
2014-Oct-21 09:17N 23°14' E 118°32'2788013.0
2014-Oct-21 09:15N 23°04' E 113°30'41308.4
2014-Oct-21 09:07N 22°27' E 113°48'68411556.5
2014-Oct-21 09:03N 32°02' E 120°45'6621346.9
2014-Oct-21 08:34N 23°04' E 113°29'135675.4
2014-Oct-21 08:33N 22°52' E 113°33'298214770.1
2014-Oct-21 08:33N 24°25' E 118°42'467560262.6
2014-Oct-21 08:33N 32°02' E 120°31'67714868.1
2014-Oct-21 08:31N 22°28' E 113°47'66722223.4
2014-Oct-21 08:29N 30°25' E 122°27'53813184.3
2014-Oct-21 08:26N 22°38' E 117°27'57750662.1
2014-Oct-21 08:26N 31°57' E 120°11'291135.3
2014-Oct-21 08:24N 32°02' E 120°45'68413452.2
2014-Oct-21 08:21N 22°27' E 113°48'41385.1
2014-Oct-21 08:15N 23°04' E 113°30'2838208.9
2014-Oct-21 08:13N 23°14' E 118°37'5277801.6
2014-Oct-21 08:08N 31°47' E 120°54'114190.9
2014-Oct-21 07:33N 30°25' E 122°27'114102229.9
2014-Oct-21 07:33N 31°47' E 120°54'65584222.2
2014-Oct-21 07:32N 23°04' E 113°29'4210688.9
2014-Oct-21 07:32N 22°27' E 113°48'68420861.7
2014-Oct-21 07:30N 32°02' E 120°45'1591778.2
2014-Oct-21 07:25N 29°42' E 122°12'6156249.4
2014-Oct-21 07:19N 23°04' E 113°29'28485109.1
2014-Oct-21 07:19N 23°15' E 118°37'2792777.8
2014-Oct-21 07:13N 22°55' E 113°35'17123.7
2014-Oct-21 07:04N 22°53' E 113°17'6711301.0
2014-Oct-21 06:33N 32°04' E 120°28'65669409.1
2014-Oct-21 06:33N 23°04' E 113°29'58105027.0
2014-Oct-21 06:33N 22°06' E 113°34'69154066.4
2014-Oct-21 06:32N 30°25' E 122°27'6529096.6
2014-Oct-21 06:28N 23°04' E 113°29'6558332.6
2014-Oct-21 06:23N 31°47' E 120°54'5392598.3
2014-Oct-21 06:11N 23°23' E 117°18'2062981.4
2014-Oct-21 06:06N 22°55' E 113°35'6541188.8
2014-Oct-21 05:33N 30°25' E 122°27'6522347028.2
2014-Oct-21 05:33N 23°04' E 113°29'655157166.6
2014-Oct-21 05:33N 31°60' E 120°34'67820325.2
2014-Oct-21 05:31N 22°27' E 113°48'41734.7
2014-Oct-21 05:28N 23°04' E 113°29'541730.8
2014-Oct-21 05:26N 22°11' E 113°34'22393.3
2014-Oct-21 05:22N 22°24' E 113°54'35523.1
2014-Oct-21 05:18N 22°55' E 113°35'436.2
2014-Oct-21 05:12N 22°51' E 113°34'1421.1
2014-Oct-21 04:33N 23°04' E 113°29'65229338.0
2014-Oct-21 04:32N 30°25' E 122°27'68925579.8
2014-Oct-21 04:30N 22°10' E 113°32'4532096.8
2014-Oct-21 04:30N 22°55' E 113°35'11257.1
2014-Oct-21 04:28N 23°04' E 113°29'45500.8
2014-Oct-21 04:22N 22°21' E 113°43'674814.3
2014-Oct-21 03:33N 30°25' E 122°27'65698365.3
2014-Oct-21 03:32N 23°03' E 113°25'48495.9
2014-Oct-21 03:27N 22°17' E 113°40'99133345.0
2014-Oct-21 03:25N 36°55' E 122°28'9598898.3
2014-Oct-21 03:18N 22°55' E 113°35'322.0
2014-Oct-21 03:10N 22°52' E 113°34'13132.9
2014-Oct-21 03:04N 23°04' E 113°29'6551296.9
2014-Oct-21 02:33N 32°01' E 120°32'138165117.4
2014-Oct-21 02:33N 30°25' E 122°27'68460097.9
2014-Oct-21 02:33N 22°12' E 113°37'69625307.8
2014-Oct-21 02:31N 32°04' E 120°28'656117991.0
2014-Oct-21 02:31N 23°04' E 113°29'11131.2
2014-Oct-21 02:26N 22°56' E 113°36'66224070.3
2014-Oct-21 02:24N 31°30' E 121°26'32332.7
2014-Oct-21 02:19N 31°47' E 120°54'0 0.0
2014-Oct-21 01:33N 31°47' E 120°54'293451.8
2014-Oct-21 01:33N 32°04' E 120°28'676172.5
2014-Oct-21 01:32N 31°25' E 121°31'698167442.2
2014-Oct-21 01:32N 22°12' E 113°34'529932.0
2014-Oct-21 01:32N 23°04' E 113°29'652782306.4
2014-Oct-21 01:32N 30°25' E 122°27'142422.5
2014-Oct-21 01:12N 32°01' E 120°24'2944.9
2014-Oct-21 00:33N 31°47' E 120°54'11451111.1
2014-Oct-21 00:33N 30°25' E 122°27'1428391.6
2014-Oct-21 00:32N 32°04' E 120°28'671827.9
2014-Oct-21 00:30N 31°21' E 121°27'9428235.1
2014-Oct-21 00:29N 29°57' E 122°15'626125274.4
2014-Oct-21 00:29N 23°04' E 113°29'652703.2
2014-Oct-20 23:33N 30°25' E 122°27'142170665.2
2014-Oct-20 23:33N 32°04' E 120°28'698193219.9
2014-Oct-20 23:33N 22°12' E 113°35'69689471.1
2014-Oct-20 23:33N 31°47' E 120°54'6602376989.9
2014-Oct-20 23:33N 23°02' E 113°23'633325559.7
2014-Oct-20 23:33N 29°55' E 122°19'976235.0
2014-Oct-20 23:32N 31°21' E 121°27'673161634.6
2014-Oct-20 23:31N 22°27' E 113°48'678695.7
2014-Oct-20 22:33N 32°04' E 120°28'14263999.4
2014-Oct-20 22:33N 30°25' E 122°27'11429216.3
2014-Oct-20 22:33N 31°47' E 120°54'69617390.4
2014-Oct-20 22:30N 22°11' E 113°36'19500.9
2014-Oct-20 22:28N 22°27' E 113°48'67386590.0
2014-Oct-20 22:27N 31°21' E 121°27'6624421.1
2014-Oct-20 22:18N 22°51' E 113°34'664885.2
2014-Oct-20 21:33N 32°04' E 120°28'14236571.1
2014-Oct-20 21:33N 30°25' E 122°27'65828203.4
2014-Oct-20 21:32N 22°51' E 113°34'66214442.9
2014-Oct-20 21:29N 31°21' E 121°27'69380477.6
2014-Oct-20 21:28N 22°11' E 113°36'6817571.1
2014-Oct-20 21:23N 31°58' E 120°05'66230170.3
2014-Oct-20 21:22N 22°27' E 113°48'1642729.3
2014-Oct-20 21:18N 23°09' E 116°40'15418421.3
2014-Oct-20 21:18N 24°09' E 119°14'448610.0
2014-Oct-20 20:34N 31°21' E 121°27'677482.4
2014-Oct-20 20:33N 32°04' E 120°28'173184.1
2014-Oct-20 20:33N 31°57' E 120°10'48883642.4
2014-Oct-20 20:32N 23°58' E 118°22'2854303.6
2014-Oct-20 20:28N 22°11' E 113°36'191894.2
2014-Oct-20 20:28N 22°27' E 113°48'66724241.1
2014-Oct-20 20:26N 30°25' E 122°27'5356375.0
2014-Oct-20 20:21N 23°09' E 116°40'154718.2
2014-Oct-20 20:08N 24°11' E 119°14'478827.6
2014-Oct-20 19:34N 32°04' E 120°28'121450.1
2014-Oct-20 19:33N 31°57' E 120°17'47299898.5
2014-Oct-20 19:33N 24°09' E 119°14'41324801.7
2014-Oct-20 19:32N 30°25' E 122°27'766512.5
2014-Oct-20 19:31N 31°21' E 121°27'6931548.7
2014-Oct-20 19:04N 22°11' E 113°36'6921332.1
2014-Oct-20 18:33N 32°00' E 120°24'6968.4
2014-Oct-20 18:33N 32°04' E 120°28'6717103.6
2014-Oct-20 18:32N 31°21' E 121°27'766512.5
2014-Oct-20 18:32N 30°25' E 122°27'6555680.7
2014-Oct-20 18:25N 22°54' E 113°35'64740882.6
2014-Oct-20 18:24N 32°07' E 119°55'6852072.0
2014-Oct-20 18:04N 22°11' E 113°36'6861343.8
2014-Oct-20 17:33N 30°25' E 122°27'7639072.8
2014-Oct-20 17:33N 31°21' E 121°27'674517.7
2014-Oct-20 17:32N 32°04' E 120°28'44809.4
2014-Oct-20 17:32N 32°02' E 120°31'681612786.0
2014-Oct-20 17:32N 22°24' E 113°46'342126.5
2014-Oct-20 17:31N 22°57' E 113°38'66410726.0
2014-Oct-20 17:28N 31°59' E 120°51'48515717.3
2014-Oct-20 17:26N 24°02' E 119°14'3303064.9
2014-Oct-20 17:19N 22°11' E 113°36'68187518.5
2014-Oct-20 17:19N 32°00' E 119°59'64712253.5
2014-Oct-20 17:16N 22°51' E 113°34'6675372.0
2014-Oct-20 17:08N 31°27' E 121°29'4 6.1
2014-Oct-20 16:33N 31°24' E 121°32'8237063.7
2014-Oct-20 16:33N 31°58' E 120°03'224341.2
2014-Oct-20 16:33N 32°04' E 120°28'696104376.3
2014-Oct-20 16:32N 22°12' E 113°38'68439085.6
2014-Oct-20 16:31N 30°25' E 122°27'764483.8
2014-Oct-20 16:30N 31°21' E 121°27'565171.3
2014-Oct-20 16:30N 32°00' E 120°40'48228936.3
2014-Oct-20 16:29N 24°04' E 119°14'320115089.8
2014-Oct-20 16:29N 22°53' E 113°34'361029.0
2014-Oct-20 16:26N 22°17' E 113°40'35951.1
2014-Oct-20 16:24N 22°51' E 113°34'418.3
2014-Oct-20 16:11N 22°55' E 113°35'6581047.7
2014-Oct-20 15:33N 31°21' E 121°27'6723945.0
2014-Oct-20 15:33N 32°04' E 120°28'1611828.6
2014-Oct-20 15:33N 31°57' E 120°11'67693646.0
2014-Oct-20 15:33N 22°15' E 113°43'7408.0
2014-Oct-20 15:32N 22°12' E 113°36'401181.5
2014-Oct-20 15:30N 22°51' E 113°34'65844705.3
2014-Oct-20 15:29N 30°25' E 122°27'6546847.5
2014-Oct-20 15:23N 22°55' E 113°35'66642079.5
2014-Oct-20 15:22N 32°02' E 120°45'4154.0
2014-Oct-20 15:20N 32°00' E 120°49'1923.3
2014-Oct-20 14:33N 32°04' E 120°28'68520726.0
2014-Oct-20 14:31N 22°21' E 113°45'68022067.6
2014-Oct-20 14:29N 31°21' E 121°27'69312666.3
2014-Oct-20 14:26N 22°12' E 113°34'697801.2
2014-Oct-20 13:34N 32°04' E 120°28'677482.4
2014-Oct-20 13:33N 31°21' E 121°27'541652.3
2014-Oct-20 13:31N 32°02' E 120°45'6664855.3
2014-Oct-20 13:23N 22°55' E 113°35'43826.5
2014-Oct-20 13:20N 22°12' E 113°34'6983313.5
2014-Oct-20 13:07N 31°48' E 120°56'2952.1
2014-Oct-20 12:33N 32°04' E 120°28'673069.5
2014-Oct-20 12:32N 31°21' E 121°27'69392443.5
2014-Oct-20 12:32N 22°12' E 113°35'69675977.7
2014-Oct-20 12:31N 31°47' E 120°55'6775611.8
2014-Oct-20 12:24N 22°28' E 113°47'4415725.3
2014-Oct-20 12:24N 23°03' E 113°19'659131899.4
2014-Oct-20 12:23N 30°25' E 122°27'656786.2
2014-Oct-20 11:33N 23°03' E 113°25'65984684.5
2014-Oct-20 11:33N 32°04' E 120°28'69854587.0
2014-Oct-20 11:32N 22°11' E 113°35'69259327.3
2014-Oct-20 11:31N 31°21' E 121°27'37742.5
2014-Oct-20 11:28N 31°47' E 120°55'113916.9
2014-Oct-20 11:21N 30°25' E 122°27'1442027.6
2014-Oct-20 11:17N 31°58' E 120°18'3 4.4
2014-Oct-20 10:33N 31°60' E 120°22'76236.2
2014-Oct-20 10:33N 32°04' E 120°28'655786570.4
2014-Oct-20 10:33N 23°04' E 113°29'65749256.6
2014-Oct-20 10:33N 32°04' E 120°30'651709.4
2014-Oct-20 10:30N 31°21' E 121°27'541388.4
2014-Oct-20 10:28N 32°02' E 120°45'17233.2
2014-Oct-20 10:23N 31°47' E 120°55'34128.7
2014-Oct-20 10:07N 31°57' E 120°17'2 4.1
2014-Oct-20 09:33N 31°57' E 120°14'1113674.8
2014-Oct-20 09:33N 32°02' E 120°26'32592.3
2014-Oct-20 09:33N 32°04' E 120°28'122994.6
2014-Oct-20 09:33N 31°57' E 120°17'342697.3
2014-Oct-20 09:32N 31°47' E 120°55'696227841.4
2014-Oct-20 09:32N 22°11' E 113°35'532778.6
2014-Oct-20 09:31N 23°04' E 113°29'65433139.7
2014-Oct-20 09:30N 31°21' E 121°27'764031.3
2014-Oct-20 09:29N 30°25' E 122°27'6664080.1
2014-Oct-20 09:19N 22°27' E 113°49'670883.7
2014-Oct-20 08:33N 31°59' E 120°20'43281.5
2014-Oct-20 08:33N 31°57' E 120°17'1315845.2
2014-Oct-20 08:33N 32°02' E 120°32'6237353.9
2014-Oct-20 08:33N 31°21' E 121°27'668515.5
2014-Oct-20 08:33N 32°04' E 120°28'1428532.8
2014-Oct-20 08:32N 30°25' E 122°27'6843507.5
2014-Oct-20 08:20N 22°12' E 113°38'531192.3
2014-Oct-20 08:17N 23°04' E 113°30'66211563.5
2014-Oct-20 08:14N 32°02' E 120°45'17286.1
2014-Oct-20 08:10N 31°47' E 120°55'6551063.9
2014-Oct-20 07:33N 23°04' E 113°30'5122825.1
2014-Oct-20 07:33N 22°14' E 113°41'681408677.6
2014-Oct-20 07:33N 31°57' E 120°17'125989.1
2014-Oct-20 07:33N 32°04' E 120°28'19316174.9
2014-Oct-20 07:32N 29°31' E 122°45'165296817.5
2014-Oct-20 07:32N 31°47' E 120°55'372556.6
2014-Oct-20 07:31N 31°21' E 121°27'33813681.3
2014-Oct-20 07:30N 36°55' E 122°29'390998.4
2014-Oct-20 07:06N 30°25' E 122°27'6521182.4
2014-Oct-20 06:33N 23°04' E 113°30'951428061.0
2014-Oct-20 06:33N 36°53' E 122°27'305219811.9
2014-Oct-20 06:33N 32°04' E 120°28'1428127.6
2014-Oct-20 06:32N 30°25' E 122°27'764284.3
2014-Oct-20 06:31N 31°21' E 121°27'371772.2
2014-Oct-20 06:30N 31°47' E 120°55'685107242.7
2014-Oct-20 06:29N 22°19' E 113°44'8310.7
2014-Oct-20 06:28N 22°27' E 113°47'97342724.3
2014-Oct-20 06:26N 36°48' E 122°28'9573987.1
2014-Oct-20 06:12N 22°51' E 113°34'6691038.0
2014-Oct-20 05:33N 32°01' E 120°43'2340844.0
2014-Oct-20 05:33N 31°57' E 120°17'318286361.8
2014-Oct-20 05:33N 36°54' E 122°37'316162296.6
2014-Oct-20 05:33N 31°59' E 120°20'6911769.7
2014-Oct-20 05:33N 31°21' E 121°27'6611353.3
2014-Oct-20 05:32N 32°04' E 120°28'142170665.2
2014-Oct-20 05:32N 30°25' E 122°27'1131711.3
2014-Oct-20 05:28N 31°47' E 120°55'6775959.9
2014-Oct-20 05:22N 22°27' E 113°47'1 4.0
2014-Oct-20 05:05N 22°27' E 113°48'6781299.3
2014-Oct-20 04:33N 32°04' E 120°28'655471867.0
2014-Oct-20 04:33N 23°04' E 113°30'6531175169.6
2014-Oct-20 04:33N 32°02' E 120°27'14139143.3
2014-Oct-20 04:33N 30°25' E 122°27'13066944.6
2014-Oct-20 04:33N 32°02' E 120°45'542525.9
2014-Oct-20 04:32N 31°21' E 121°27'673346232.6
2014-Oct-20 04:32N 22°27' E 113°47'67716813.5
2014-Oct-20 04:29N 31°47' E 120°55'11148.7
2014-Oct-20 04:25N 31°58' E 120°52'6672583.0
2014-Oct-20 04:09N 22°55' E 113°35'6601111.6
2014-Oct-20 03:33N 32°04' E 120°28'655393219.6
2014-Oct-20 03:33N 23°04' E 113°30'467821.2
2014-Oct-20 03:33N 22°20' E 113°42'693356195.4
2014-Oct-20 03:33N 32°02' E 120°45'5432415.2
2014-Oct-20 03:33N 31°21' E 121°27'661132222.6
2014-Oct-20 03:33N 22°51' E 113°34'28808.1
2014-Oct-20 03:30N 22°27' E 113°47'66854627.1
2014-Oct-20 03:30N 30°25' E 122°27'1167476.3
2014-Oct-20 03:29N 31°50' E 120°54'201076.8
2014-Oct-20 03:28N 32°01' E 120°35'23293.7
2014-Oct-20 03:23N 31°47' E 120°55'1 9.6
2014-Oct-20 03:17N 31°47' E 120°54'6 8.8
2014-Oct-20 02:33N 31°47' E 121°02'6592372487.5
2014-Oct-20 02:33N 23°04' E 113°29'652782283.9
2014-Oct-20 02:33N 30°25' E 122°27'763188.1
2014-Oct-20 02:32N 31°21' E 121°27'68855003.0
2014-Oct-20 02:31N 22°15' E 113°39'69530533.4
2014-Oct-20 02:30N 31°45' E 121°06'25510.7
2014-Oct-20 02:27N 32°02' E 120°45'182256.0
2014-Oct-20 02:26N 31°47' E 120°55'50528.0
2014-Oct-20 02:21N 32°01' E 119°59'681860.7
2014-Oct-20 01:33N 22°12' E 113°34'698279174.1
2014-Oct-20 01:33N 32°04' E 120°29'14184857.1
2014-Oct-20 01:33N 30°25' E 122°27'652117342.6
2014-Oct-20 01:33N 23°04' E 113°29'660215909.8
2014-Oct-20 01:33N 31°42' E 121°10'66518704.9
2014-Oct-20 01:30N 23°02' E 113°22'66133528.6
2014-Oct-20 01:29N 31°22' E 121°29'82296760.9
2014-Oct-20 01:29N 31°58' E 120°02'25250.2
2014-Oct-20 01:23N 32°01' E 120°32'6639783.5
2014-Oct-20 01:19N 22°51' E 113°34'17223769.9
2014-Oct-20 01:19N 23°09' E 116°39'5653596.9
2014-Oct-20 01:09N 31°47' E 120°54'677187473.4
2014-Oct-20 01:09N 22°27' E 113°46'9921669.0
2014-Oct-20 00:33N 37°42' E 121°10'44179414.0
2014-Oct-20 00:33N 30°25' E 122°27'7533967.0
2014-Oct-20 00:33N 31°22' E 121°29'64231502.7
2014-Oct-20 00:33N 32°04' E 120°32'66333157.7
2014-Oct-20 00:32N 22°56' E 113°30'661264231.0
2014-Oct-20 00:32N 32°01' E 120°32'570513035.5
2014-Oct-20 00:32N 23°09' E 116°39'56478116.4
2014-Oct-20 00:31N 31°37' E 121°17'70033598.3
2014-Oct-20 00:30N 22°11' E 113°34'69719001.3
2014-Oct-20 00:28N 31°47' E 120°55'65628788.4
2014-Oct-20 00:26N 23°04' E 113°29'6553148.7
2014-Oct-20 00:14N 31°47' E 120°54'171213.4
2014-Oct-20 00:13N 32°02' E 120°45'6855563.5
2014-Oct-20 00:06N 22°27' E 113°47'6781266.0
2014-Oct-19 23:33N 32°01' E 120°32'2421723.1
2014-Oct-19 23:33N 31°47' E 120°54'35764233.7
2014-Oct-19 23:33N 37°43' E 121°20'35732106.4
2014-Oct-19 23:32N 31°47' E 120°55'11311000.8
2014-Oct-19 23:32N 30°25' E 122°27'75271752.2
2014-Oct-19 23:32N 31°22' E 121°29'69586242.3
2014-Oct-19 23:31N 22°12' E 113°34'21337.7
2014-Oct-19 23:28N 22°28' E 113°48'40544.2
2014-Oct-19 23:23N 23°04' E 113°29'111523.2
2014-Oct-19 23:23N 22°54' E 113°24'67210570.0
2014-Oct-19 23:19N 32°02' E 120°45'46486.8
2014-Oct-19 23:13N 31°31' E 121°24'56214149.2
2014-Oct-19 23:11N 23°09' E 116°39'561892.3
2014-Oct-19 22:33N 31°28' E 121°28'343823.6
2014-Oct-19 22:33N 31°47' E 120°54'418753238.2
2014-Oct-19 22:33N 38°44' E 121°31'6172748.0
2014-Oct-19 22:33N 37°43' E 121°30'34625915.9
2014-Oct-19 22:32N 32°00' E 120°40'13222604.5
2014-Oct-19 22:31N 30°25' E 122°27'1388394.0
2014-Oct-19 22:30N 32°01' E 120°32'69759710.4
2014-Oct-19 22:30N 22°11' E 113°35'69719140.5
2014-Oct-19 22:28N 31°47' E 120°55'65628442.2
2014-Oct-19 22:26N 23°04' E 113°29'14454.1
2014-Oct-19 22:24N 22°51' E 113°34'9831155.8
2014-Oct-19 21:33N 37°43' E 121°32'358644484.2
2014-Oct-19 21:33N 31°47' E 120°55'1162.3
2014-Oct-19 21:33N 31°47' E 120°54'11425553.0
2014-Oct-19 21:33N 30°25' E 122°27'796281.0
2014-Oct-19 21:32N 31°26' E 121°29'66612624.1
2014-Oct-19 21:29N 22°51' E 113°34'66685618.3
2014-Oct-19 21:28N 31°24' E 121°31'697278820.3
2014-Oct-19 21:28N 22°11' E 113°35'69655717.5
2014-Oct-19 21:27N 32°01' E 120°32'6559099.1
2014-Oct-19 21:23N 23°04' E 113°29'6626406.6
2014-Oct-19 21:17N 32°02' E 120°45'24184.1
2014-Oct-19 21:09N 31°58' E 120°17'3456.4
2014-Oct-19 20:33N 31°47' E 120°54'3581290528.4
2014-Oct-19 20:33N 37°43' E 121°36'985506439.0
2014-Oct-19 20:33N 22°51' E 113°34'670172381.8
2014-Oct-19 20:33N 32°02' E 120°45'13042619.9
2014-Oct-19 20:33N 30°25' E 122°27'1449630.7
2014-Oct-19 20:32N 31°56' E 120°16'141614.0
2014-Oct-19 20:31N 32°01' E 120°32'69616941.3
2014-Oct-19 20:29N 22°11' E 113°35'69619432.8
2014-Oct-19 20:27N 31°47' E 120°55'49659497.7
2014-Oct-19 20:26N 23°52' E 118°14'2665200.1
2014-Oct-19 20:23N 23°04' E 113°29'102715868.5
2014-Oct-19 20:19N 38°43' E 121°35'116451.4
2014-Oct-19 20:04N 36°53' E 122°26'316625.2
2014-Oct-19 19:33N 31°47' E 120°54'359107709.2
2014-Oct-19 19:33N 37°44' E 121°32'442122278.5
2014-Oct-19 19:33N 30°25' E 122°27'13058604.4
2014-Oct-19 19:33N 32°02' E 120°45'3011816.1
2014-Oct-19 19:33N 31°56' E 120°11'3181143781.4
2014-Oct-19 19:33N 36°53' E 122°28'9961194781.8
2014-Oct-19 19:33N 22°11' E 113°35'69627547.6
2014-Oct-19 19:31N 31°47' E 120°55'252884.6
2014-Oct-19 19:31N 32°01' E 120°32'663149202.6
2014-Oct-19 19:30N 22°51' E 113°34'14195.8
2014-Oct-19 19:26N 23°04' E 113°29'655744.6
2014-Oct-19 18:33N 31°47' E 120°54'359143587.2
2014-Oct-19 18:33N 37°45' E 121°27'35944549.6
2014-Oct-19 18:33N 31°47' E 120°55'696835617.0
2014-Oct-19 18:33N 22°11' E 113°35'69696437.7
2014-Oct-19 18:32N 32°01' E 120°32'11281.6
2014-Oct-19 18:30N 32°02' E 120°45'34311.4
2014-Oct-19 18:23N 31°57' E 120°06'638135157.9
2014-Oct-19 18:23N 23°04' E 113°29'2731121.8
2014-Oct-19 18:09N 23°55' E 118°21'2715699.1
2014-Oct-19 18:06N 22°52' E 113°34'6621235.0
2014-Oct-19 17:34N 31°47' E 120°54'35999443.7
2014-Oct-19 17:33N 37°45' E 121°29'35999419.4
2014-Oct-19 17:33N 31°47' E 120°55'696139271.5
2014-Oct-19 17:33N 22°11' E 113°35'4478420.4
2014-Oct-19 17:33N 22°55' E 113°35'187.8
2014-Oct-19 17:32N 22°56' E 113°36'6588970.4
2014-Oct-19 17:27N 32°01' E 120°31'65530212.7
2014-Oct-19 17:26N 23°04' E 113°29'65227614.6
2014-Oct-19 17:25N 30°25' E 122°27'1315955.8
2014-Oct-19 17:23N 32°02' E 120°45'371316.9
2014-Oct-19 17:22N 31°58' E 120°02'581384.7
2014-Oct-19 17:19N 31°42' E 121°08'28124.8
2014-Oct-19 17:06N 32°02' E 120°45'67016875.7
2014-Oct-19 17:04N 22°51' E 113°34'6631320.3
2014-Oct-19 16:33N 32°01' E 120°31'255255.8
2014-Oct-19 16:33N 31°47' E 120°55'696139274.3
2014-Oct-19 16:33N 22°11' E 113°35'69620041.7
2014-Oct-19 16:31N 31°47' E 120°54'35921886.1
2014-Oct-19 16:30N 37°44' E 121°34'36031594.3
2014-Oct-19 16:29N 31°45' E 121°05'6619180.8
2014-Oct-19 16:25N 22°57' E 113°38'103013736.0
2014-Oct-19 16:20N 38°43' E 121°32'5002333.4
2014-Oct-19 16:07N 30°25' E 122°27'1305390.2
2014-Oct-19 16:06N 32°02' E 120°45'1832.1
2014-Oct-19 15:33N 31°47' E 120°55'185739.3
2014-Oct-19 15:33N 32°02' E 120°45'40327393.3
2014-Oct-19 15:32N 38°43' E 121°29'40515682.8
2014-Oct-19 15:31N 32°01' E 120°31'638096.7
2014-Oct-19 15:30N 31°24' E 121°31'697100312.5
2014-Oct-19 15:30N 22°11' E 113°35'421105.8
2014-Oct-19 15:27N 22°54' E 113°31'11552.7
2014-Oct-19 15:26N 23°04' E 113°29'65529483.3
2014-Oct-19 15:25N 31°47' E 120°54'67311825.6
2014-Oct-19 15:21N 22°19' E 114°08'100337237.8
2014-Oct-19 15:20N 37°43' E 121°39'9781264.4
2014-Oct-19 14:33N 22°60' E 113°31'979881135.3
2014-Oct-19 14:33N 37°42' E 121°42'102252559.0
2014-Oct-19 14:32N 22°11' E 113°36'69545516.9
2014-Oct-19 14:31N 31°47' E 120°54'17825.1
2014-Oct-19 14:30N 32°02' E 120°45'542102.0
2014-Oct-19 14:28N 31°22' E 121°28'624550.7
2014-Oct-19 14:28N 32°01' E 120°32'66015953.6
2014-Oct-19 14:25N 23°03' E 113°20'65928929.2
2014-Oct-19 14:24N 30°25' E 122°27'65269037.6
2014-Oct-19 14:23N 23°04' E 113°29'14146.0
2014-Oct-19 14:18N 22°51' E 113°34'6536736.3
2014-Oct-19 14:12N 31°57' E 120°17'64713300.2
2014-Oct-19 14:09N 22°57' E 113°37'9791653.2
2014-Oct-19 13:33N 37°43' E 121°38'354159203.3
2014-Oct-19 13:33N 31°56' E 120°15'68048973.6
2014-Oct-19 13:32N 22°14' E 113°40'69245295.9
2014-Oct-19 13:31N 32°01' E 120°32'627432.9
2014-Oct-19 13:31N 31°22' E 121°28'65678720.3
2014-Oct-19 13:30N 23°05' E 113°26'654117641.3
2014-Oct-19 13:30N 30°25' E 122°27'6529946.0
2014-Oct-19 13:26N 23°04' E 113°29'6559003.0
2014-Oct-19 13:22N 31°47' E 120°54'66313567.6
2014-Oct-19 13:19N 22°51' E 113°34'66470280.4
2014-Oct-19 13:18N 31°47' E 120°55'18447.7
2014-Oct-19 13:16N 32°02' E 120°45'66436766.4
2014-Oct-19 13:15N 22°57' E 113°37'10125.6
2014-Oct-19 13:10N 23°04' E 113°30'4879.2
2014-Oct-19 12:34N 22°17' E 113°44'1012227781.8
2014-Oct-19 12:33N 37°44' E 121°33'3591292359.2
2014-Oct-19 12:33N 31°47' E 120°55'674161852.6
2014-Oct-19 12:33N 22°18' E 114°08'1056253506.5
2014-Oct-19 12:33N 38°44' E 121°29'41339121.5
2014-Oct-19 12:32N 31°56' E 120°07'774061.2
2014-Oct-19 12:31N 31°22' E 121°28'621581.4
2014-Oct-19 12:29N 32°01' E 120°32'69173174.9
2014-Oct-19 12:28N 22°15' E 113°40'511646.8
2014-Oct-19 12:26N 23°04' E 113°29'0 0.8
2014-Oct-19 12:19N 23°04' E 113°29'6525458.2
2014-Oct-19 12:12N 30°25' E 122°27'1141919.3
2014-Oct-19 12:09N 31°47' E 120°54'114194.1
2014-Oct-19 11:33N 30°25' E 122°27'445228779.0
2014-Oct-19 11:33N 37°47' E 121°30'1018229021.2
2014-Oct-19 11:33N 22°11' E 113°48'1913822.9
2014-Oct-19 11:33N 22°18' E 114°08'674242612.9
2014-Oct-19 11:33N 31°47' E 120°54'65865821.0
2014-Oct-19 11:32N 22°56' E 113°36'65751424.6
2014-Oct-19 11:31N 31°22' E 121°28'68054396.6
2014-Oct-19 11:31N 22°22' E 113°44'683204964.4
2014-Oct-19 11:30N 32°01' E 120°32'25255.9
2014-Oct-19 11:25N 31°47' E 120°55'6564047.8
2014-Oct-19 11:15N 23°04' E 113°30'66319721.7
2014-Oct-19 11:13N 31°59' E 120°51'6634589.5
2014-Oct-19 11:04N 23°04' E 113°30'9761872.8
2014-Oct-19 10:33N 37°50' E 121°25'36419292.2
2014-Oct-19 10:32N 31°47' E 120°54'383160.3
2014-Oct-19 10:31N 31°22' E 121°28'662625.8
2014-Oct-19 10:30N 32°02' E 120°27'293444.8
2014-Oct-19 10:29N 31°47' E 120°55'65643701.9
2014-Oct-19 10:28N 23°04' E 113°30'66017595.8
2014-Oct-19 10:26N 32°00' E 120°43'13031190.9
2014-Oct-19 10:26N 30°25' E 122°27'66112330.1
2014-Oct-19 10:23N 22°18' E 114°08'68268198.4
2014-Oct-19 10:22N 32°02' E 120°45'6624774.2
2014-Oct-19 10:14N 23°04' E 113°30'646965.6
2014-Oct-19 09:33N 31°59' E 120°19'310367.7
2014-Oct-19 09:33N 31°60' E 120°22'30822.8
2014-Oct-19 09:31N 31°47' E 120°54'3867945.8
2014-Oct-19 09:31N 31°22' E 121°28'582240.6
2014-Oct-19 09:30N 31°60' E 120°36'2174517.9
2014-Oct-19 09:30N 31°47' E 120°55'65539328.2
2014-Oct-19 09:29N 23°04' E 113°30'66258105.9
2014-Oct-19 09:28N 32°02' E 120°45'68268193.7
2014-Oct-19 09:27N 22°18' E 114°08'10597428.5
2014-Oct-19 09:19N 38°44' E 121°36'6482.4
2014-Oct-19 08:32N 37°43' E 121°13'343137382.9
2014-Oct-19 08:32N 32°01' E 120°31'2514847.3
2014-Oct-19 08:32N 31°47' E 120°54'333653.8
2014-Oct-19 08:32N 31°57' E 120°17'6292.8
2014-Oct-19 08:30N 32°01' E 120°22'64917319.6
2014-Oct-19 08:28N 23°04' E 113°30'65248878.5
2014-Oct-19 08:27N 30°25' E 122°27'65220945.4
2014-Oct-19 08:26N 23°04' E 113°30'654138579.2
2014-Oct-19 08:25N 31°22' E 121°28'54976.8
2014-Oct-19 08:22N 32°02' E 120°45'181150.6
2014-Oct-19 08:21N 31°47' E 120°55'6566483.1
2014-Oct-19 08:15N 23°04' E 113°30'651936.6
2014-Oct-19 07:33N 32°01' E 120°25'295159.8
2014-Oct-19 07:33N 31°47' E 120°54'381461.4
2014-Oct-19 07:31N 31°22' E 121°28'682415.8
2014-Oct-19 07:30N 32°01' E 120°22'64937107.4
2014-Oct-19 07:29N 23°04' E 113°30'029.3
2014-Oct-19 07:28N 23°04' E 113°30'65247881.0
2014-Oct-19 07:27N 30°25' E 122°27'65280897.8
2014-Oct-19 07:27N 23°04' E 113°30'656262203.4
2014-Oct-19 07:27N 31°47' E 120°55'18576.1
2014-Oct-19 07:25N 32°02' E 120°45'6702893.6
2014-Oct-19 07:11N 22°51' E 113°34'6561041.9
2014-Oct-19 06:33N 31°59' E 120°21'3219089.8
2014-Oct-19 06:33N 31°47' E 120°55'11367840.8
2014-Oct-19 06:33N 30°25' E 122°27'114204431.4
2014-Oct-19 06:33N 31°47' E 120°54'663119399.5
2014-Oct-19 06:33N 22°51' E 113°34'658338517.7
2014-Oct-19 06:33N 32°01' E 120°22'683422.4
2014-Oct-19 06:31N 31°22' E 121°28'65412532.9
2014-Oct-19 06:28N 23°04' E 113°30'0 3.7
2014-Oct-19 06:26N 23°04' E 113°30'10276451.6
2014-Oct-19 06:16N 38°44' E 121°31'40336266.5
2014-Oct-19 06:15N 32°04' E 120°29'65633730.3
2014-Oct-19 06:14N 23°04' E 113°30'6625540.4
2014-Oct-19 06:07N 32°02' E 120°45'2545.0
2014-Oct-19 05:33N 31°56' E 120°16'348257.7
2014-Oct-19 05:33N 31°47' E 120°54'314677.6
2014-Oct-19 05:33N 32°01' E 120°22'649212524.1
2014-Oct-19 05:32N 23°04' E 113°30'3413448.6
2014-Oct-19 05:32N 22°34' E 113°46'66376970.9
2014-Oct-19 05:32N 30°25' E 122°27'14218202.3
2014-Oct-19 05:31N 32°04' E 120°29'293122.6
2014-Oct-19 05:31N 31°47' E 120°55'371056.7
2014-Oct-19 05:29N 31°22' E 121°28'49842706.9
2014-Oct-19 05:28N 39°05' E 117°44'177159010.2
2014-Oct-19 05:28N 38°44' E 121°29'105516949.5
2014-Oct-19 05:24N 22°27' E 113°48'41260.7
2014-Oct-19 05:15N 23°04' E 113°30'66221856.8
2014-Oct-19 05:13N 32°02' E 120°45'44821228.5
2014-Oct-19 05:12N 39°05' E 117°44'98641256.2
2014-Oct-19 05:10N 23°04' E 113°30'3861.7
2014-Oct-19 04:33N 22°31' E 113°51'67128431.5
2014-Oct-19 04:32N 31°47' E 120°54'38136186.6
2014-Oct-19 04:32N 31°22' E 121°28'665266.7
2014-Oct-19 04:31N 32°04' E 120°29'181405.4
2014-Oct-19 04:30N 31°56' E 120°10'44369384.3
2014-Oct-19 04:30N 39°04' E 117°50'2107.1
2014-Oct-19 04:29N 39°04' E 117°47'986168962.8
2014-Oct-19 04:28N 23°04' E 113°30'6508411.1
2014-Oct-19 04:24N 32°01' E 120°22'65011188.4
2014-Oct-19 04:20N 23°04' E 113°29'65610217.2
2014-Oct-19 04:16N 31°47' E 120°55'1 1.1
2014-Oct-19 03:33N 31°47' E 120°54'671268258.0
2014-Oct-19 03:33N 22°32' E 113°51'667100012.6
2014-Oct-19 03:33N 32°01' E 120°22'14443075.6
2014-Oct-19 03:32N 30°25' E 122°27'652195580.3
2014-Oct-19 03:32N 23°04' E 113°29'66491968.2
2014-Oct-19 03:32N 32°02' E 120°49'18521.6
2014-Oct-19 03:30N 32°04' E 120°29'4414814.9
2014-Oct-19 03:24N 39°05' E 117°44'99749175.3
2014-Oct-19 03:23N 22°51' E 113°34'99715814.1
2014-Oct-19 03:19N 39°05' E 117°45'44227896.6
2014-Oct-19 03:18N 31°58' E 120°03'46780.4
2014-Oct-19 03:15N 31°47' E 120°55'18272.0
2014-Oct-19 03:11N 32°02' E 120°45'130206.6
2014-Oct-19 02:33N 30°25' E 122°27'14419893.9
2014-Oct-19 02:33N 32°01' E 120°22'191707.9
2014-Oct-19 02:32N 32°02' E 120°45'66214099.9
2014-Oct-19 02:29N 23°04' E 113°29'65653641.7
2014-Oct-19 02:28N 31°47' E 120°55'656294987.8
2014-Oct-19 02:28N 23°04' E 113°30'985141875.8
2014-Oct-19 02:28N 39°04' E 117°48'46326045.6
2014-Oct-19 02:27N 31°47' E 120°54'46214857.1
2014-Oct-19 02:25N 39°04' E 117°51'4384300.6
2014-Oct-19 02:19N 32°06' E 120°32'6763052.5
2014-Oct-19 02:06N 22°32' E 113°51'0 0.0
2014-Oct-19 01:33N 22°31' E 113°51'66753340.9
2014-Oct-19 01:33N 32°01' E 120°22'65077946.7
2014-Oct-19 01:32N 23°04' E 113°29'662183293.4
2014-Oct-19 01:32N 32°02' E 120°45'182628.9
2014-Oct-19 01:32N 31°47' E 120°55'169430.6
2014-Oct-19 01:31N 32°02' E 120°49'12811199.3
2014-Oct-19 01:31N 30°25' E 122°27'65894770.4
2014-Oct-19 01:30N 22°51' E 113°34'66526027.2
2014-Oct-19 01:29N 31°31' E 121°20'48424551.5
2014-Oct-19 01:28N 39°04' E 117°50'1019192985.2
2014-Oct-19 01:27N 22°27' E 113°48'41220.8
2014-Oct-19 01:16N 23°04' E 113°30'58674.5
2014-Oct-19 01:11N 22°19' E 114°09'17452.2
2014-Oct-19 01:09N 22°09' E 113°54'4 6.7
2014-Oct-19 00:33N 22°11' E 113°50'686822832.7
2014-Oct-19 00:33N 32°01' E 120°22'14415668.5
2014-Oct-19 00:32N 30°25' E 122°27'8226933.8
2014-Oct-19 00:32N 31°29' E 121°26'68416875.7
2014-Oct-19 00:29N 22°23' E 113°43'432104.7
2014-Oct-19 00:28N 23°04' E 113°30'66416376.2
2014-Oct-19 00:26N 32°02' E 120°49'6647032.7
2014-Oct-19 00:20N 23°04' E 113°29'6596759.0
2014-Oct-19 00:14N 31°36' E 121°17'21361.1
2014-Oct-19 00:11N 31°47' E 120°55'18221.3
2014-Oct-19 00:06N 32°02' E 120°45'1731.7
2014-Oct-18 23:33N 31°47' E 120°54'689103410.0
2014-Oct-18 23:33N 22°14' E 113°43'697278882.8
2014-Oct-18 23:33N 32°02' E 120°45'193890.1
2014-Oct-18 23:33N 32°01' E 120°22'6927695.7
2014-Oct-18 23:32N 31°24' E 121°31'658107727.4
2014-Oct-18 23:32N 23°04' E 113°29'652102044.2
2014-Oct-18 23:32N 30°25' E 122°27'44179430.1
2014-Oct-18 23:31N 37°42' E 121°09'100348803.0
2014-Oct-18 23:30N 22°17' E 113°40'48361.2
2014-Oct-18 23:22N 23°04' E 113°30'6567023.9
2014-Oct-18 23:17N 31°47' E 120°55'4373605.3
2014-Oct-18 23:09N 24°41' E 119°05'388647.1
2014-Oct-18 22:33N 30°25' E 122°27'44251308.4
2014-Oct-18 22:33N 37°43' E 121°19'96875771.0
2014-Oct-18 22:32N 23°04' E 113°29'65015907.6
2014-Oct-18 22:30N 32°01' E 120°22'692146470.0
2014-Oct-18 22:29N 22°11' E 113°36'532799.9
2014-Oct-18 22:28N 23°04' E 113°30'65859227.9
2014-Oct-18 22:28N 31°24' E 121°31'79449.7
2014-Oct-18 22:17N 31°58' E 120°06'66215688.7
2014-Oct-18 22:15N 22°28' E 113°46'67854225.0
2014-Oct-18 22:14N 31°48' E 120°55'6616466.9
2014-Oct-18 22:08N 22°55' E 113°35'9781713.1
2014-Oct-18 21:33N 37°44' E 121°28'34729767.5
2014-Oct-18 21:33N 32°01' E 120°22'692191574.5
2014-Oct-18 21:32N 22°12' E 113°34'5315755.8
2014-Oct-18 21:32N 23°04' E 113°29'014.5
2014-Oct-18 21:32N 23°04' E 113°29'65224450.8
2014-Oct-18 21:30N 30°25' E 122°27'6558153.3
2014-Oct-18 21:26N 22°55' E 113°35'453.5
2014-Oct-18 21:21N 22°51' E 113°34'66718621.6
2014-Oct-18 21:19N 31°52' E 120°53'12135.8
2014-Oct-18 21:14N 32°02' E 120°45'1781069.1
2014-Oct-18 21:04N 34°49' E 119°31'3 5.0
2014-Oct-18 20:33N 34°50' E 119°28'304365192.7
2014-Oct-18 20:33N 30°25' E 122°27'14513747.7
2014-Oct-18 20:33N 31°57' E 120°15'73091.4
2014-Oct-18 20:33N 32°01' E 120°22'692249049.8
2014-Oct-18 20:32N 22°12' E 113°34'3911808.9
2014-Oct-18 20:32N 22°51' E 113°34'142897.0
2014-Oct-18 20:32N 23°04' E 113°29'97318831.9
2014-Oct-18 20:29N 37°43' E 121°33'3442587.7
2014-Oct-18 20:21N 32°02' E 120°45'66248628.1
2014-Oct-18 20:20N 23°04' E 113°29'9741249.2
2014-Oct-18 19:33N 37°43' E 121°35'350157633.0
2014-Oct-18 19:33N 31°58' E 120°20'214431.4
2014-Oct-18 19:33N 32°02' E 120°45'704361807.6
2014-Oct-18 19:33N 22°12' E 113°34'692276765.3
2014-Oct-18 19:33N 32°01' E 120°22'6581184874.2
2014-Oct-18 19:33N 22°51' E 113°34'141296.6
2014-Oct-18 19:32N 23°04' E 113°29'0 1.2
2014-Oct-18 19:29N 23°04' E 113°29'652335276.7
2014-Oct-18 19:29N 30°25' E 122°27'128846.7
2014-Oct-18 19:20N 32°00' E 120°47'40292.6
2014-Oct-18 19:12N 31°59' E 119°59'1813057.1
2014-Oct-18 19:08N 29°49' E 122°25'3662.3
2014-Oct-18 18:33N 30°25' E 122°27'658338479.0
2014-Oct-18 18:33N 22°51' E 113°34'403987.8
2014-Oct-18 18:32N 22°11' E 113°35'7011261646.8
2014-Oct-18 18:32N 32°00' E 120°42'34544348.7
2014-Oct-18 18:32N 37°42' E 121°38'34796013.7
2014-Oct-18 18:32N 32°01' E 120°22'65016238.7
2014-Oct-18 18:29N 23°04' E 113°29'0 0.2
2014-Oct-18 18:08N 23°04' E 113°29'10478.3
2014-Oct-18 18:07N 22°54' E 113°30'30645.9
2014-Oct-18 18:04N 22°28' E 113°46'6771337.4
2014-Oct-18 17:34N 31°24' E 121°31'587470.4
2014-Oct-18 17:33N 32°00' E 120°37'66599748.1
2014-Oct-18 17:33N 22°51' E 113°34'141296.6
2014-Oct-18 17:32N 23°04' E 113°29'652146692.4
2014-Oct-18 17:32N 30°25' E 122°27'144103412.1
2014-Oct-18 17:32N 32°01' E 120°22'69215006.3
2014-Oct-18 17:29N 22°11' E 113°35'53271.3
2014-Oct-18 17:17N 23°04' E 113°29'657897.6
2014-Oct-18 16:33N 32°03' E 120°33'666149760.7
2014-Oct-18 16:33N 22°51' E 113°34'658182254.4
2014-Oct-18 16:33N 30°25' E 122°27'65261764.5
2014-Oct-18 16:32N 23°04' E 113°29'057.1
2014-Oct-18 16:32N 23°04' E 113°29'64270075.0
2014-Oct-18 16:31N 31°57' E 120°14'68516327.0
2014-Oct-18 16:29N 22°11' E 113°35'68118299.6
2014-Oct-18 16:27N 31°56' E 120°08'13759.5
2014-Oct-18 16:26N 32°01' E 120°22'691381.1
2014-Oct-18 16:23N 31°24' E 121°31'6680.2
2014-Oct-18 15:33N 32°04' E 120°29'6623860.6
2014-Oct-18 15:33N 31°23' E 121°30'702960.9
2014-Oct-18 15:32N 31°59' E 120°20'2515.4
2014-Oct-18 15:32N 32°01' E 120°22'321816.6
2014-Oct-18 15:31N 31°47' E 120°55'422670.6
2014-Oct-18 15:30N 31°56' E 120°08'1502295.3
2014-Oct-18 15:26N 30°25' E 122°27'68629421.4
2014-Oct-18 15:24N 22°11' E 113°35'53753.7
2014-Oct-18 15:20N 23°04' E 113°29'62718644.2
2014-Oct-18 15:18N 29°51' E 122°22'1021738.2
2014-Oct-18 15:15N 31°22' E 121°28'65565460.8
2014-Oct-18 15:14N 23°04' E 113°29'102911910.6
2014-Oct-18 15:09N 38°44' E 121°37'97013850.4
2014-Oct-18 15:05N 22°38' E 120°05'5651090.6
2014-Oct-18 14:34N 32°02' E 120°25'14364219.5
2014-Oct-18 14:33N 30°25' E 122°27'14272821.2
2014-Oct-18 14:33N 32°01' E 120°25'34933923.6
2014-Oct-18 14:33N 37°44' E 121°43'38592438.2
2014-Oct-18 14:32N 31°19' E 121°34'65690860.6
2014-Oct-18 14:32N 23°04' E 113°29'543212.8
2014-Oct-18 14:31N 22°11' E 113°38'69228955.8
2014-Oct-18 14:30N 31°22' E 121°28'684562.5
2014-Oct-18 14:29N 32°01' E 120°22'5637067.7
2014-Oct-18 14:24N 22°38' E 120°10'55114057.8
2014-Oct-18 14:22N 31°47' E 120°55'66017863.0
2014-Oct-18 14:19N 22°55' E 113°35'11309.6
2014-Oct-18 14:17N 23°04' E 113°29'6485472.6
2014-Oct-18 14:10N 31°58' E 120°22'1301318.8
2014-Oct-18 14:04N 30°32' E 122°15'13719026.5
2014-Oct-18 14:04N 31°56' E 120°08'1122.5
2014-Oct-18 13:33N 31°59' E 120°21'91766.8
2014-Oct-18 13:33N 32°02' E 120°31'81425.8
2014-Oct-18 13:33N 31°58' E 120°22'14222208.6
2014-Oct-18 13:32N 30°25' E 122°27'7616098.4
2014-Oct-18 13:32N 31°22' E 121°28'688798.7
2014-Oct-18 13:32N 32°01' E 120°22'3257214.6
2014-Oct-18 13:32N 31°47' E 120°55'4422681.0
2014-Oct-18 13:32N 31°15' E 121°31'65216292.7
2014-Oct-18 13:29N 23°04' E 113°29'3776710.1
2014-Oct-18 13:26N 22°37' E 120°16'3642082.7
2014-Oct-18 13:15N 22°16' E 113°43'50426.4
2014-Oct-18 13:08N 23°04' E 113°29'6481119.4
2014-Oct-18 12:33N 31°58' E 120°22'72723.8
2014-Oct-18 12:33N 31°56' E 120°14'196174.8
2014-Oct-18 12:33N 32°01' E 120°36'12502.6
2014-Oct-18 12:32N 32°01' E 120°22'14432318.1
2014-Oct-18 12:31N 30°25' E 122°27'764702.8
2014-Oct-18 12:30N 31°22' E 121°29'65529492.8
2014-Oct-18 12:29N 23°04' E 113°29'97829590.5
2014-Oct-18 12:27N 37°45' E 121°44'42127556.4
2014-Oct-18 12:26N 30°44' E 122°16'49327.8
2014-Oct-18 12:17N 31°11' E 121°28'6736409.0
2014-Oct-18 12:11N 22°20' E 113°44'32301.9
2014-Oct-18 12:05N 22°51' E 113°34'64627377.9
2014-Oct-18 12:03N 31°59' E 120°01'650779523.9
2014-Oct-18 12:03N 22°54' E 113°22'6641327.8
2014-Oct-18 11:33N 30°25' E 122°27'672604648.4
2014-Oct-18 11:33N 22°23' E 113°44'667218290.9
2014-Oct-18 11:33N 31°56' E 120°07'645193550.2
2014-Oct-18 11:33N 22°54' E 113°35'66792381.7
2014-Oct-18 11:32N 30°51' E 122°17'415497503.2
2014-Oct-18 11:32N 37°45' E 121°39'9771171832.7
2014-Oct-18 11:32N 23°04' E 113°29'65089937.1
2014-Oct-18 11:32N 32°01' E 120°22'65924472.3
2014-Oct-18 11:30N 22°55' E 113°26'1086.7
2014-Oct-18 11:23N 23°04' E 113°29'6394476.2
2014-Oct-18 11:14N 31°58' E 120°06'43389.7
2014-Oct-18 11:08N 31°47' E 120°55'521205.6
2014-Oct-18 11:05N 31°04' E 121°28'6481222.2
2014-Oct-18 10:33N 22°55' E 113°30'658124644.5
2014-Oct-18 10:33N 30°25' E 122°27'1499921.3
2014-Oct-18 10:32N 31°57' E 120°10'640576366.1
2014-Oct-18 10:32N 23°04' E 113°29'975134996.5
2014-Oct-18 10:32N 37°45' E 121°34'3542797.1
2014-Oct-18 10:24N 31°59' E 119°60'17770731.1
2014-Oct-18 10:24N 29°51' E 122°22'62745125.1
2014-Oct-18 10:23N 23°04' E 113°29'65093543.2
2014-Oct-18 10:23N 32°01' E 120°22'191591.4
2014-Oct-18 10:22N 32°02' E 120°45'130161.1
2014-Oct-18 09:33N 30°25' E 122°27'653261255.8
2014-Oct-18 09:33N 23°01' E 113°31'976100348.6
2014-Oct-18 09:33N 37°45' E 121°29'353211930.6
2014-Oct-18 09:33N 31°57' E 120°16'7438.4
2014-Oct-18 09:32N 32°01' E 120°22'23107.5
2014-Oct-18 09:19N 32°02' E 120°49'66426568.0
2014-Oct-18 09:17N 23°04' E 113°29'0418.0
2014-Oct-18 09:17N 23°04' E 113°29'6624873.5
2014-Oct-18 09:09N 32°02' E 120°45'18597.3
2014-Oct-18 09:07N 31°47' E 120°55'383222.9
2014-Oct-18 09:06N 31°24' E 121°31'70126.5
2014-Oct-18 08:33N 31°60' E 120°21'144103491.0
2014-Oct-18 08:33N 30°25' E 122°27'65231703.7
2014-Oct-18 08:32N 23°04' E 113°30'64980619.8
2014-Oct-18 08:32N 32°01' E 120°22'684584.9
2014-Oct-18 08:31N 31°26' E 121°29'523622.9
2014-Oct-18 08:30N 32°02' E 120°45'66250700.1
2014-Oct-18 08:29N 23°04' E 113°29'6386437.8
2014-Oct-18 08:23N 32°02' E 119°57'638383070.9
2014-Oct-18 08:23N 23°04' E 113°29'97419927.2
2014-Oct-18 08:20N 37°46' E 121°29'3491393.6
2014-Oct-18 08:05N 31°59' E 120°51'6631256.6
2014-Oct-18 07:33N 23°04' E 113°30'6912459.7
2014-Oct-18 07:33N 21°58' E 113°08'1045940410.4
2014-Oct-18 07:33N 37°48' E 121°30'379681631.8
2014-Oct-18 07:33N 31°29' E 121°25'79282900.5
2014-Oct-18 07:33N 31°60' E 119°60'639135269.7
2014-Oct-18 07:33N 23°05' E 113°26'653112009.8
2014-Oct-18 07:32N 30°25' E 122°27'14412321.9
2014-Oct-18 07:32N 32°01' E 120°22'2106.5
2014-Oct-18 07:31N 31°59' E 120°23'7170.0
2014-Oct-18 07:28N 31°57' E 120°15'25344.9
2014-Oct-18 07:24N 32°02' E 120°45'6625741.9
2014-Oct-18 07:17N 23°04' E 113°29'51509.8
2014-Oct-18 07:11N 22°14' E 113°36'6881098.8
2014-Oct-18 06:34N 31°60' E 120°21'6482333139.5
2014-Oct-18 06:34N 23°04' E 113°30'652391008.2
2014-Oct-18 06:33N 30°25' E 122°27'714642863.8
2014-Oct-18 06:33N 21°53' E 113°12'1047289837.1
2014-Oct-18 06:33N 37°48' E 121°26'350251762.8
2014-Oct-18 06:33N 32°02' E 120°26'69038823.3
2014-Oct-18 06:32N 22°16' E 113°36'687154641.8
2014-Oct-18 06:32N 32°01' E 120°22'13846.5
2014-Oct-18 06:31N 31°56' E 120°08'663076.1
2014-Oct-18 06:30N 31°32' E 121°20'65887775.7
2014-Oct-18 06:29N 23°04' E 113°29'63910843.0
2014-Oct-18 06:26N 31°58' E 120°05'45547.8
2014-Oct-18 06:21N 31°47' E 120°55'66022847.3
2014-Oct-18 06:19N 22°55' E 113°35'330.7
2014-Oct-18 06:13N 22°57' E 113°37'6598.4
2014-Oct-18 05:34N 21°57' E 113°12'712427137.8
2014-Oct-18 05:33N 30°25' E 122°27'149537180.3
2014-Oct-18 05:33N 31°57' E 120°09'6131131.3
2014-Oct-18 05:33N 31°36' E 121°16'371133461.4
2014-Oct-18 05:33N 37°47' E 121°30'975219445.6
2014-Oct-18 05:33N 23°04' E 113°30'65357371.7
2014-Oct-18 05:32N 32°02' E 120°27'655262172.9
2014-Oct-18 05:32N 22°57' E 113°37'652130303.4
2014-Oct-18 05:32N 32°01' E 120°22'65448084.3
2014-Oct-18 05:31N 22°55' E 113°35'13108.5
2014-Oct-18 05:24N 23°02' E 113°23'10333718629.1
2014-Oct-18 05:23N 38°44' E 121°36'10299594.3
2014-Oct-18 05:17N 23°04' E 113°29'1459.8
2014-Oct-18 05:03N 22°51' E 113°34'1326.7
2014-Oct-18 04:33N 23°04' E 113°30'659395565.2
2014-Oct-18 04:33N 31°40' E 121°12'5246350.7
2014-Oct-18 04:33N 31°57' E 120°15'356106921.2
2014-Oct-18 04:33N 37°48' E 121°29'4451603573.5
2014-Oct-18 04:33N 30°25' E 122°27'13644433.7
2014-Oct-18 04:33N 32°01' E 120°35'66123561.7
2014-Oct-18 04:31N 22°55' E 113°35'65467311.9
2014-Oct-18 04:31N 32°01' E 120°22'67228810.7
2014-Oct-18 04:29N 22°27' E 113°48'4114776.5
2014-Oct-18 04:29N 23°04' E 113°29'6623024.0
2014-Oct-18 04:16N 32°02' E 120°45'4046385.1
2014-Oct-18 04:12N 38°44' E 121°33'10271595.8
2014-Oct-18 03:34N 23°04' E 113°30'652335153.9
2014-Oct-18 03:33N 30°25' E 122°27'10312779.0
2014-Oct-18 03:33N 31°42' E 121°08'4414435.3
2014-Oct-18 03:33N 31°59' E 120°20'71280151.0
2014-Oct-18 03:32N 21°58' E 113°11'7042534807.6
2014-Oct-18 03:32N 31°56' E 120°08'64338607.5
2014-Oct-18 03:31N 22°55' E 113°35'3823063.1
2014-Oct-18 03:31N 22°19' E 113°19'1072160817.0
2014-Oct-18 03:31N 38°44' E 121°31'407733095.1
2014-Oct-18 03:31N 32°01' E 120°22'67226891.1
2014-Oct-18 03:29N 22°27' E 113°48'67814708.0
2014-Oct-18 03:26N 32°00' E 120°36'4474498.6
2014-Oct-18 03:20N 39°05' E 117°44'98517647.7
2014-Oct-18 03:17N 23°04' E 113°29'6626492.9
2014-Oct-18 03:11N 32°02' E 120°45'6689175.9
2014-Oct-18 03:07N 23°03' E 113°19'18413.3
2014-Oct-18 03:04N 22°51' E 113°34'1326.1
2014-Oct-18 02:34N 23°04' E 113°30'649467008.2
2014-Oct-18 02:33N 31°60' E 120°22'443797347.5
2014-Oct-18 02:33N 39°05' E 117°47'441105950.5
2014-Oct-18 02:33N 32°02' E 120°24'143171741.2
2014-Oct-18 02:33N 30°25' E 122°27'442318284.5
2014-Oct-18 02:33N 37°43' E 121°12'34181804.0
2014-Oct-18 02:33N 32°03' E 120°32'237372.7
2014-Oct-18 02:33N 31°56' E 120°07'4929483.4
2014-Oct-18 02:32N 31°45' E 121°04'7505.9
2014-Oct-18 02:32N 31°47' E 120°55'4181506424.8
2014-Oct-18 02:32N 38°44' E 121°30'10303709180.3
2014-Oct-18 02:32N 23°02' E 113°24'131761.2
2014-Oct-18 02:31N 22°55' E 113°35'65478530.6
2014-Oct-18 02:31N 32°01' E 120°22'44038671.0
2014-Oct-18 02:30N 39°04' E 117°50'10188726.2
2014-Oct-18 02:23N 22°27' E 113°48'6842461924.8
2014-Oct-18 02:23N 32°02' E 120°45'6626751.2
2014-Oct-18 02:17N 23°04' E 113°29'14342.7
2014-Oct-18 02:15N 22°51' E 113°34'663966.5
2014-Oct-18 01:34N 32°02' E 120°28'14163335.8
2014-Oct-18 01:33N 30°25' E 122°27'652167644.8
2014-Oct-18 01:33N 23°04' E 113°29'655392944.3
2014-Oct-18 01:33N 32°04' E 120°27'1922.3
2014-Oct-18 01:33N 32°03' E 120°26'362274.0
2014-Oct-18 01:32N 31°45' E 121°03'41962921.3
2014-Oct-18 01:32N 38°44' E 121°30'172310411.1
2014-Oct-18 01:32N 39°05' E 117°50'44227884.8
2014-Oct-18 01:31N 32°01' E 120°22'67223962.2
2014-Oct-18 01:29N 22°27' E 113°48'41830.0
2014-Oct-18 01:26N 23°04' E 113°29'98663376.9
2014-Oct-18 01:25N 39°05' E 117°46'44712680.8
2014-Oct-18 01:23N 32°02' E 120°45'67011070.4
2014-Oct-18 01:19N 22°51' E 113°34'1499.4
2014-Oct-18 01:11N 23°04' E 113°29'6571049.1
2014-Oct-18 00:33N 32°04' E 120°31'140167859.2
2014-Oct-18 00:33N 30°25' E 122°27'13619544.0
2014-Oct-18 00:33N 32°01' E 120°35'656214809.3
2014-Oct-18 00:33N 23°04' E 113°29'65955145.9
2014-Oct-18 00:32N 31°45' E 121°03'4208534.1
2014-Oct-18 00:29N 38°44' E 121°33'1028462496.8
2014-Oct-18 00:29N 23°04' E 113°29'65028173.7
2014-Oct-18 00:28N 32°01' E 120°22'6559706.8
2014-Oct-18 00:24N 22°54' E 113°35'111124.2
2014-Oct-18 00:23N 23°04' E 113°29'41372.8
2014-Oct-18 00:16N 22°27' E 113°48'101929817.1
2014-Oct-18 00:14N 39°04' E 117°50'99435076.9
2014-Oct-18 00:13N 22°55' E 113°35'64617894.6
2014-Oct-18 00:11N 31°56' E 120°13'65011304.2
2014-Oct-18 00:07N 22°51' E 113°34'96014160.3
2014-Oct-18 00:03N 36°51' E 122°29'304615.8
2014-Oct-17 23:33N 32°02' E 120°35'340407444.9
2014-Oct-17 23:33N 37°40' E 121°08'962576960.9
2014-Oct-17 23:33N 23°04' E 113°29'953263780.5
2014-Oct-17 23:33N 36°54' E 122°28'38982448.8
2014-Oct-17 23:33N 30°25' E 122°27'1463631.5
2014-Oct-17 23:30N 31°56' E 120°13'442097.5
2014-Oct-17 23:29N 31°45' E 121°03'381604.0
2014-Oct-17 23:28N 32°01' E 120°22'4062413.6
2014-Oct-17 23:18N 38°42' E 121°32'10269467.6
2014-Oct-17 23:11N 23°04' E 113°29'1220.5
2014-Oct-17 23:11N 23°04' E 113°29'11162.8
2014-Oct-17 23:07N 22°55' E 113°35'6551170.0
2014-Oct-17 22:33N 30°25' E 122°27'133119978.1
2014-Oct-17 22:33N 32°00' E 120°38'2522379.2
2014-Oct-17 22:33N 31°56' E 120°09'639575319.8
2014-Oct-17 22:33N 23°04' E 113°29'4113440.8
2014-Oct-17 22:33N 22°27' E 113°47'68054387.3
2014-Oct-17 22:32N 31°45' E 121°03'36028812.2
2014-Oct-17 22:32N 37°45' E 121°20'3485417.2
2014-Oct-17 22:28N 32°01' E 120°22'662401.9
2014-Oct-17 22:26N 32°15' E 119°05'626375524.8
2014-Oct-17 22:26N 23°04' E 113°29'6563386.8
2014-Oct-17 22:14N 31°47' E 120°55'66023527.0
2014-Oct-17 22:13N 22°55' E 113°35'95910626.2
2014-Oct-17 22:07N 36°56' E 122°28'9531699.3
2014-Oct-17 21:34N 23°04' E 113°29'659139658.8
2014-Oct-17 21:33N 32°01' E 120°42'1316740.7
2014-Oct-17 21:32N 30°25' E 122°27'11225164.8
2014-Oct-17 21:32N 31°47' E 120°58'31830113.6
2014-Oct-17 21:31N 36°56' E 122°28'31337512.6
2014-Oct-17 21:31N 32°01' E 120°22'34720500.3
2014-Oct-17 21:30N 37°45' E 121°19'97015516.0
2014-Oct-17 21:26N 23°04' E 113°29'46599.1
2014-Oct-17 21:21N 22°19' E 113°42'677848.2
2014-Oct-17 20:33N 30°25' E 122°27'652234704.2
2014-Oct-17 20:33N 23°04' E 113°29'9711748028.3
2014-Oct-17 20:33N 37°45' E 121°23'3481251999.5
2014-Oct-17 20:33N 32°01' E 120°22'31039856.7
2014-Oct-17 20:33N 36°53' E 122°28'304547004.6
2014-Oct-17 20:33N 32°01' E 120°45'11530.5
2014-Oct-17 20:31N 31°52' E 120°53'696147467.1
2014-Oct-17 20:31N 22°13' E 113°38'424061.2
2014-Oct-17 20:30N 22°55' E 113°35'66726083.3
2014-Oct-17 20:29N 32°02' E 120°45'6626583.4
2014-Oct-17 20:23N 23°04' E 113°29'640460595.1
2014-Oct-17 20:23N 32°04' E 119°55'65811223.9
2014-Oct-17 20:19N 22°32' E 113°51'520.2
2014-Oct-17 20:04N 22°29' E 113°47'6711315.7
2014-Oct-17 19:33N 32°01' E 120°22'650146144.7
2014-Oct-17 19:33N 23°04' E 113°29'973318342.1
2014-Oct-17 19:33N 37°45' E 121°28'983196598.4
2014-Oct-17 19:32N 22°51' E 113°34'658118467.6
2014-Oct-17 19:32N 30°25' E 122°27'65523801.3
2014-Oct-17 19:30N 22°55' E 113°35'66717647.9
2014-Oct-17 19:28N 31°58' E 120°51'3452.4
2014-Oct-17 19:28N 31°60' E 120°50'494615.1
2014-Oct-17 19:27N 32°10' E 119°53'64330069.9
2014-Oct-17 19:26N 23°04' E 113°29'521871.6
2014-Oct-17 19:24N 22°12' E 113°34'7038012.1
2014-Oct-17 19:19N 32°02' E 120°45'662868.4
2014-Oct-17 18:33N 23°04' E 113°29'14980.0
2014-Oct-17 18:32N 22°51' E 113°34'3917557.2
2014-Oct-17 18:32N 22°12' E 113°34'68647506.4
2014-Oct-17 18:31N 30°25' E 122°27'12923191.5
2014-Oct-17 18:31N 32°01' E 120°46'34423379.4
2014-Oct-17 18:30N 37°43' E 121°31'3476855.8
2014-Oct-17 18:27N 32°01' E 120°22'65031180.1
2014-Oct-17 18:26N 23°04' E 113°29'66220368.1
2014-Oct-17 18:24N 32°02' E 120°45'8338.4
2014-Oct-17 18:23N 31°57' E 120°52'6673882.9
2014-Oct-17 18:12N 22°55' E 113°35'6621022.8
2014-Oct-17 17:33N 31°60' E 120°39'132237784.3
2014-Oct-17 17:33N 30°25' E 122°27'14430432.3
2014-Oct-17 17:33N 32°01' E 120°22'34843217.7
2014-Oct-17 17:33N 37°44' E 121°31'973146014.7
2014-Oct-17 17:32N 23°04' E 113°29'14255.2
2014-Oct-17 17:29N 22°51' E 113°34'13128.8
2014-Oct-17 17:23N 23°04' E 113°29'66018426.2
2014-Oct-17 17:21N 31°54' E 120°53'7957.5
2014-Oct-17 17:20N 31°47' E 120°55'69696433.2
2014-Oct-17 17:20N 22°12' E 113°34'7048673.6
2014-Oct-17 17:15N 32°02' E 120°45'1015.0
2014-Oct-17 16:33N 32°01' E 120°32'655294770.1
2014-Oct-17 16:33N 23°04' E 113°29'144460.4
2014-Oct-17 16:33N 22°51' E 113°34'983121973.3
2014-Oct-17 16:33N 37°43' E 121°32'35314958.2
2014-Oct-17 16:31N 31°51' E 120°54'11716840.8
2014-Oct-17 16:31N 30°25' E 122°27'6877846.2
2014-Oct-17 16:25N 22°12' E 113°34'192846.4
2014-Oct-17 16:25N 22°27' E 113°47'411105.5
2014-Oct-17 16:23N 23°04' E 113°29'65022062.0
2014-Oct-17 16:21N 32°01' E 120°22'6544379.0
2014-Oct-17 16:12N 22°55' E 113°35'28376.7
2014-Oct-17 16:08N 22°32' E 113°51'671115050.8
2014-Oct-17 16:07N 31°47' E 120°55'2950.8
2014-Oct-17 15:33N 32°02' E 120°26'652782855.4
2014-Oct-17 15:33N 23°04' E 113°29'649292269.0
2014-Oct-17 15:33N 32°01' E 120°22'325495.7
2014-Oct-17 15:33N 31°48' E 120°56'113204083.4
2014-Oct-17 15:33N 30°25' E 122°27'438157575.2
2014-Oct-17 15:33N 37°41' E 121°35'35613912.3
2014-Oct-17 15:31N 31°47' E 120°55'6567639.4
2014-Oct-17 15:26N 23°04' E 113°29'538601.9
2014-Oct-17 15:26N 22°12' E 113°34'192273.1
2014-Oct-17 15:25N 22°27' E 113°47'68510142.7
2014-Oct-17 15:21N 32°02' E 120°45'66714033.1
2014-Oct-17 15:18N 22°55' E 113°35'4594.6
2014-Oct-17 15:18N 22°51' E 113°34'1418.3
2014-Oct-17 14:33N 23°04' E 113°29'6481165924.2
2014-Oct-17 14:33N 31°59' E 120°21'21168.1
2014-Oct-17 14:33N 32°01' E 120°22'345248659.6
2014-Oct-17 14:33N 37°41' E 121°38'97342697.2
2014-Oct-17 14:32N 23°04' E 113°29'5327270.3
2014-Oct-17 14:32N 22°12' E 113°35'431944.3
2014-Oct-17 14:30N 22°55' E 113°35'4200.2
2014-Oct-17 14:29N 22°51' E 113°34'27215.6
2014-Oct-17 14:21N 22°27' E 113°47'68582157.7
2014-Oct-17 14:21N 32°02' E 120°45'18212.0
2014-Oct-17 14:16N 31°47' E 120°55'65618734.4
2014-Oct-17 14:14N 23°04' E 113°29'0 0.6
2014-Oct-17 13:33N 23°04' E 113°29'643385712.5
2014-Oct-17 13:33N 31°56' E 120°16'724421.1
2014-Oct-17 13:33N 32°01' E 120°22'650167023.5
2014-Oct-17 13:33N 23°04' E 113°29'97370047.9
2014-Oct-17 13:32N 37°43' E 121°34'100157208.6
2014-Oct-17 13:31N 22°27' E 113°47'302127.9
2014-Oct-17 13:30N 22°55' E 113°35'4109.7
2014-Oct-17 13:28N 22°51' E 113°34'40695.6
2014-Oct-17 13:25N 22°11' E 113°36'5362.5
2014-Oct-17 12:33N 23°04' E 113°29'650194850.4
2014-Oct-17 12:33N 32°01' E 120°22'128471.8
2014-Oct-17 12:33N 31°56' E 120°09'639209219.6
2014-Oct-17 12:33N 23°04' E 113°29'5237187.4
2014-Oct-17 12:33N 22°14' E 113°41'101482939.7
2014-Oct-17 12:32N 37°43' E 121°30'981294220.7
2014-Oct-17 12:32N 22°54' E 113°28'985443385.3
2014-Oct-17 12:32N 37°34' E 122°02'3383000.3
2014-Oct-17 12:25N 32°02' E 120°45'679101797.8
2014-Oct-17 12:25N 22°33' E 113°48'67237195.3
2014-Oct-17 12:23N 31°47' E 120°55'65512226.3
2014-Oct-17 12:20N 23°04' E 113°30'649827.2
2014-Oct-17 11:33N 32°01' E 120°22'649167013.4
2014-Oct-17 11:33N 23°04' E 113°29'63742482.5
2014-Oct-17 11:32N 31°58' E 120°02'35321533.1
2014-Oct-17 11:31N 37°43' E 121°31'97951808.2
2014-Oct-17 11:30N 22°55' E 113°35'1166.2
2014-Oct-17 11:20N 23°04' E 113°30'97640399.8
2014-Oct-17 11:19N 37°35' E 122°02'9765897.5
2014-Oct-17 11:09N 23°04' E 113°29'0 0.3
2014-Oct-17 10:33N 23°04' E 113°29'136.4
2014-Oct-17 10:32N 23°04' E 113°30'971317911.2
2014-Oct-17 10:32N 37°43' E 121°29'34610751.4
2014-Oct-17 10:30N 32°01' E 120°22'65011870.1
2014-Oct-17 10:27N 23°04' E 113°29'97538980.4
2014-Oct-17 10:25N 37°34' E 121°59'9817951.6
2014-Oct-17 10:18N 22°55' E 113°35'66719831.8
2014-Oct-17 10:16N 32°02' E 120°45'1824.8
2014-Oct-17 09:33N 31°47' E 120°55'35747622.1
2014-Oct-17 09:33N 37°43' E 121°23'9693489785.5
2014-Oct-17 09:33N 23°04' E 113°29'27236232.1
2014-Oct-17 09:33N 23°58' E 118°20'49512293.9
2014-Oct-17 09:30N 32°01' E 120°22'650194957.9
2014-Oct-17 09:30N 23°03' E 113°30'8205.9
2014-Oct-17 09:28N 23°02' E 113°22'66714830.4
2014-Oct-17 09:25N 32°02' E 120°45'66223587.7
2014-Oct-17 09:23N 23°04' E 113°30'28365.2
2014-Oct-17 09:19N 22°38' E 113°41'13421.5
2014-Oct-17 09:17N 22°27' E 113°48'461575.9
2014-Oct-17 09:15N 21°58' E 113°11'103937031.6
2014-Oct-17 09:13N 37°31' E 121°57'9711452.9
2014-Oct-17 08:33N 23°05' E 113°27'6920602.7
2014-Oct-17 08:33N 21°58' E 113°11'6910286.7
2014-Oct-17 08:33N 23°04' E 113°29'186.7
2014-Oct-17 08:32N 23°04' E 113°30'64918554.1
2014-Oct-17 08:30N 32°01' E 120°22'65487256.2
2014-Oct-17 08:30N 22°55' E 113°35'96914015.3
2014-Oct-17 08:26N 37°42' E 121°09'355106502.6
2014-Oct-17 08:25N 31°47' E 120°55'67128426.7
2014-Oct-17 08:24N 22°38' E 113°41'1009201864.3
2014-Oct-17 08:24N 39°04' E 117°51'9963581.9
2014-Oct-17 08:07N 22°54' E 113°30'1118.9
2014-Oct-17 07:33N 23°04' E 113°29'52389.9
2014-Oct-17 07:33N 22°59' E 113°31'2328032.2
2014-Oct-17 07:33N 22°38' E 113°41'666479586.2
2014-Oct-17 07:33N 32°01' E 120°22'49511968.1
2014-Oct-17 07:31N 23°57' E 118°20'2653991.1
2014-Oct-17 07:27N 22°27' E 113°48'68491201.0
2014-Oct-17 07:26N 31°59' E 120°51'66313406.1
2014-Oct-17 07:23N 23°04' E 113°30'1153.8
2014-Oct-17 07:11N 22°55' E 113°35'64512422.3
2014-Oct-17 07:08N 31°57' E 120°10'44427548.8
2014-Oct-17 07:07N 39°05' E 117°45'9851745.6
2014-Oct-17 06:33N 23°04' E 113°29'649137539.4
2014-Oct-17 06:33N 32°01' E 120°22'666171279.5
2014-Oct-17 06:33N 22°38' E 113°41'282605.1
2014-Oct-17 06:32N 23°04' E 113°30'111509.4
2014-Oct-17 06:32N 22°54' E 113°35'31027.3
2014-Oct-17 06:32N 22°53' E 113°32'6702561.0
2014-Oct-17 06:16N 32°02' E 120°45'1592550.5
2014-Oct-17 06:12N 29°42' E 122°12'168259.1
2014-Oct-17 05:33N 31°59' E 120°19'663796158.6
2014-Oct-17 05:33N 22°38' E 113°41'625321499.7
2014-Oct-17 05:33N 29°42' E 122°13'169607792.9
2014-Oct-17 05:33N 32°01' E 120°22'650584551.6
2014-Oct-17 05:33N 23°04' E 113°29'98693371.7
2014-Oct-17 05:32N 39°05' E 117°47'91171315.7
2014-Oct-17 05:32N 23°54' E 118°16'40714943.1
2014-Oct-17 05:30N 29°42' E 122°12'1594571.4
2014-Oct-17 05:28N 32°02' E 120°45'684129543.7
2014-Oct-17 05:28N 22°27' E 113°48'41560.8
2014-Oct-17 05:23N 23°04' E 113°30'1351.1
2014-Oct-17 05:08N 22°51' E 113°34'490.5
2014-Oct-17 05:05N 22°55' E 113°35'1120.9
2014-Oct-17 04:33N 23°04' E 113°29'65280904.3
2014-Oct-17 04:33N 32°01' E 120°25'6681202816.2
2014-Oct-17 04:33N 22°38' E 113°41'666141052.6
2014-Oct-17 04:33N 32°01' E 120°22'64997408.4
2014-Oct-17 04:32N 23°04' E 113°30'6629198.3
2014-Oct-17 04:28N 32°02' E 120°45'50126515.7
2014-Oct-17 04:27N 23°58' E 118°20'2665656.1
2014-Oct-17 04:24N 22°27' E 113°48'30177.9
2014-Oct-17 04:14N 22°55' E 113°35'6603748.6
2014-Oct-17 04:03N 31°47' E 120°55'1834.7
2014-Oct-17 03:33N 32°02' E 120°45'113000.5
2014-Oct-17 03:33N 32°02' E 120°32'97874.7
2014-Oct-17 03:33N 32°01' E 120°22'64997409.8
2014-Oct-17 03:32N 23°04' E 113°30'126.9
2014-Oct-17 03:31N 23°04' E 113°29'412141.1
2014-Oct-17 03:30N 22°27' E 113°48'30437.8
2014-Oct-17 03:26N 22°55' E 113°35'9775471.0
2014-Oct-17 03:15N 37°31' E 121°57'3442261.0
2014-Oct-17 03:06N 31°57' E 120°15'6431186.1
2014-Oct-17 02:33N 23°04' E 113°29'66282165.7
2014-Oct-17 02:33N 32°02' E 120°45'204140.6
2014-Oct-17 02:33N 32°01' E 120°22'65832918.2
2014-Oct-17 02:31N 22°54' E 113°28'7172.1
2014-Oct-17 02:29N 22°55' E 113°35'11791.8
2014-Oct-17 02:28N 23°04' E 113°29'4174094.7
2014-Oct-17 02:28N 22°27' E 113°48'66914077.9
2014-Oct-17 02:25N 31°59' E 120°19'1441989.0
2014-Oct-17 02:21N 30°25' E 122°27'142179.2
2014-Oct-17 01:33N 32°00' E 120°23'6501169290.4
2014-Oct-17 01:33N 23°04' E 113°29'662595825.9
2014-Oct-17 01:33N 32°01' E 120°46'67018425.9
2014-Oct-17 01:31N 22°54' E 113°30'32622.7
2014-Oct-17 01:28N 22°27' E 113°48'67227813.0
2014-Oct-17 01:27N 32°01' E 120°22'14414782.2
2014-Oct-17 01:26N 30°25' E 122°27'655102472.7
2014-Oct-17 01:26N 22°55' E 113°35'6675171.7
2014-Oct-17 01:18N 32°02' E 120°45'66224315.6
2014-Oct-17 01:16N 23°04' E 113°29'14170.8
2014-Oct-17 01:12N 22°51' E 113°34'1421.4
2014-Oct-17 00:33N 23°04' E 113°29'65267073.3
2014-Oct-17 00:33N 30°25' E 122°27'65832464.1
2014-Oct-17 00:32N 22°51' E 113°34'66319092.0
2014-Oct-17 00:29N 32°02' E 120°29'286614.2
2014-Oct-17 00:29N 31°47' E 120°55'65644543.7
2014-Oct-17 00:28N 23°04' E 113°29'417054.8
2014-Oct-17 00:28N 22°27' E 113°48'67217792.0
2014-Oct-17 00:26N 32°01' E 120°22'6644672.1
2014-Oct-17 00:17N 22°53' E 113°18'169517.7
2014-Oct-17 00:17N 22°55' E 113°35'940187997.1
2014-Oct-17 00:17N 36°40' E 122°15'5317456.6
2014-Oct-17 00:17N 37°31' E 121°57'3353041.8
2014-Oct-17 00:10N 32°02' E 120°45'915.2
2014-Oct-16 23:33N 32°01' E 120°34'136245684.1
2014-Oct-16 23:33N 30°25' E 122°27'652469516.2
2014-Oct-16 23:33N 23°04' E 113°29'975319226.2
2014-Oct-16 23:33N 37°34' E 121°59'34314361.2
2014-Oct-16 23:32N 32°01' E 120°22'65827237.3
2014-Oct-16 23:30N 22°51' E 113°34'97579774.5
2014-Oct-16 23:30N 37°43' E 121°11'96513725.9
2014-Oct-16 23:25N 23°04' E 113°29'27048611.8
2014-Oct-16 23:25N 23°56' E 118°18'2641709.6
2014-Oct-16 23:16N 22°27' E 113°48'68314204.5
2014-Oct-16 23:13N 32°07' E 120°34'6601002.5
2014-Oct-16 22:33N 23°04' E 113°29'27335128.7
2014-Oct-16 22:33N 23°59' E 118°21'26814639.3
2014-Oct-16 22:32N 22°56' E 113°37'65337293.8
2014-Oct-16 22:31N 32°01' E 120°22'65018269.2
2014-Oct-16 22:29N 23°04' E 113°29'976100391.3
2014-Oct-16 22:28N 37°35' E 122°00'35233348.8
2014-Oct-16 22:27N 31°47' E 120°55'183008.3
2014-Oct-16 22:27N 32°02' E 120°45'3473840.0
2014-Oct-16 22:22N 37°47' E 121°18'36114759.5
2014-Oct-16 22:20N 31°47' E 121°00'331887.0
2014-Oct-16 22:19N 32°01' E 120°25'6562796.8
2014-Oct-16 22:05N 22°55' E 113°35'1121.0
2014-Oct-16 21:33N 23°04' E 113°29'971233150.4
2014-Oct-16 21:33N 37°47' E 121°20'98282212.5
2014-Oct-16 21:32N 22°51' E 113°35'151127.6
2014-Oct-16 21:32N 23°04' E 113°29'66076648.0
2014-Oct-16 21:31N 31°45' E 121°05'406890.0
2014-Oct-16 21:31N 32°01' E 120°22'67623183.1
2014-Oct-16 21:29N 22°24' E 113°45'68116347.4
2014-Oct-16 21:26N 32°02' E 120°30'1401784.4
2014-Oct-16 21:22N 30°25' E 122°27'4303136.1
2014-Oct-16 21:14N 37°35' E 122°03'9771459.0
2014-Oct-16 20:33N 23°04' E 113°29'66059408.2
2014-Oct-16 20:33N 31°42' E 121°10'365164220.3
2014-Oct-16 20:33N 37°47' E 121°25'301358.8
2014-Oct-16 20:31N 37°35' E 122°00'34439957.6
2014-Oct-16 20:31N 32°01' E 120°22'68411623.0
2014-Oct-16 20:27N 22°17' E 113°40'67928761.8
2014-Oct-16 20:26N 30°25' E 122°27'1301623.1
2014-Oct-16 20:21N 32°02' E 120°45'6629095.3
2014-Oct-16 20:17N 23°04' E 113°29'6564355.8
2014-Oct-16 20:08N 31°47' E 120°55'66014853.8
2014-Oct-16 20:05N 22°55' E 113°35'4381.9
2014-Oct-16 19:33N 22°12' E 113°36'1020203983.2
2014-Oct-16 19:33N 37°46' E 121°29'974876411.2
2014-Oct-16 19:33N 23°04' E 113°29'97785769.4
2014-Oct-16 19:32N 37°37' E 121°57'97779921.8
2014-Oct-16 19:32N 23°04' E 113°29'66225083.5
2014-Oct-16 19:30N 32°02' E 120°45'6705718.0
2014-Oct-16 19:23N 22°53' E 113°31'65831587.7
2014-Oct-16 19:22N 32°01' E 120°22'4064740.3
2014-Oct-16 19:17N 38°43' E 121°30'5003678.1
2014-Oct-16 19:08N 30°25' E 122°27'65510962.1
2014-Oct-16 19:05N 22°55' E 113°35'9811853.1
2014-Oct-16 18:33N 37°45' E 121°30'974701377.4
2014-Oct-16 18:33N 23°04' E 113°29'662794276.5
2014-Oct-16 18:33N 32°02' E 120°45'70326100.6
2014-Oct-16 18:31N 22°12' E 113°34'69263839.8
2014-Oct-16 18:31N 32°01' E 120°22'755779.0
2014-Oct-16 18:30N 31°13' E 121°30'38741009.6
2014-Oct-16 18:29N 37°40' E 121°55'988169412.1
2014-Oct-16 18:29N 22°55' E 113°27'82112.8
2014-Oct-16 18:29N 22°55' E 113°35'113378.5
2014-Oct-16 18:29N 23°04' E 113°29'65233539.5
2014-Oct-16 18:27N 30°25' E 122°27'6903134.3
2014-Oct-16 18:14N 22°10' E 113°32'107628071.2
2014-Oct-16 18:12N 38°43' E 121°34'1265227.3
2014-Oct-16 18:10N 36°40' E 122°14'9351510.7
2014-Oct-16 17:33N 23°04' E 113°29'975195020.7
2014-Oct-16 17:33N 37°48' E 121°27'216790.0
2014-Oct-16 17:33N 37°42' E 121°52'102894865.4
2014-Oct-16 17:32N 22°10' E 113°32'69427472.4
2014-Oct-16 17:31N 32°01' E 120°22'65419470.2
2014-Oct-16 17:29N 22°55' E 113°35'439023.0
2014-Oct-16 17:28N 22°12' E 113°34'68717782.4
2014-Oct-16 17:26N 30°25' E 122°27'692686.3
2014-Oct-16 17:25N 31°16' E 121°33'6537893.2
2014-Oct-16 17:20N 23°04' E 113°29'102813164.6
2014-Oct-16 17:15N 38°43' E 121°37'4032212.9
2014-Oct-16 17:04N 32°02' E 120°45'6621297.1
2014-Oct-16 16:33N 23°04' E 113°29'65242681.6
2014-Oct-16 16:32N 30°25' E 122°27'690190950.4
2014-Oct-16 16:32N 22°10' E 113°32'69427472.4
2014-Oct-16 16:31N 32°01' E 120°22'7488562.3
2014-Oct-16 16:31N 31°20' E 121°33'6705386.9
2014-Oct-16 16:23N 22°38' E 113°41'29479.8
2014-Oct-16 16:20N 23°04' E 113°29'97921753.4
2014-Oct-16 16:17N 37°44' E 121°48'985236455.2
2014-Oct-16 16:17N 22°55' E 113°35'66759990.7
2014-Oct-16 16:16N 32°02' E 120°45'68460094.4
2014-Oct-16 16:15N 22°27' E 113°47'19402.4
2014-Oct-16 16:12N 22°12' E 113°34'70412607.0
2014-Oct-16 16:09N 31°59' E 120°51'124209.0
2014-Oct-16 15:33N 30°25' E 122°27'7530043.4
2014-Oct-16 15:33N 31°22' E 121°30'656147656.6
2014-Oct-16 15:33N 23°04' E 113°29'978880446.9
2014-Oct-16 15:33N 37°44' E 121°45'998513312.5
2014-Oct-16 15:33N 22°38' E 113°41'292747.7
2014-Oct-16 15:32N 22°10' E 113°32'69428408.8
2014-Oct-16 15:31N 32°01' E 120°22'20431.8
2014-Oct-16 15:28N 32°02' E 120°45'6460.3
2014-Oct-16 15:27N 31°59' E 120°51'70436223.2
2014-Oct-16 15:26N 22°11' E 113°35'19245.2
2014-Oct-16 15:21N 22°27' E 113°47'411416.7
2014-Oct-16 15:20N 23°04' E 113°29'652847.9
2014-Oct-16 14:33N 30°25' E 122°27'652469492.1
2014-Oct-16 14:33N 23°04' E 113°29'4173419.3
2014-Oct-16 14:33N 22°27' E 113°47'221144.0
2014-Oct-16 14:32N 22°10' E 113°32'1026194429.3
2014-Oct-16 14:32N 37°45' E 121°40'977206953.4
2014-Oct-16 14:32N 23°04' E 113°29'65044967.2
2014-Oct-16 14:31N 32°01' E 120°22'66612620.8
2014-Oct-16 14:28N 22°38' E 113°41'27442.1
2014-Oct-16 14:24N 22°12' E 113°35'7047154.6
2014-Oct-16 14:18N 32°02' E 120°45'4357.3
2014-Oct-16 13:33N 32°07' E 119°55'3481254035.6
2014-Oct-16 13:33N 37°44' E 121°43'998276242.7
2014-Oct-16 13:33N 22°38' E 113°41'2910313.8
2014-Oct-16 13:33N 23°04' E 113°29'543743.8
2014-Oct-16 13:32N 22°10' E 113°32'276992620.7
2014-Oct-16 13:32N 23°50' E 118°11'26327804.5
2014-Oct-16 13:32N 23°04' E 113°29'65044118.7
2014-Oct-16 13:31N 32°01' E 120°22'1444498.9
2014-Oct-16 13:29N 30°25' E 122°27'190210265.6
2014-Oct-16 13:18N 00°01' E 113°11'138277760.6
2014-Oct-16 13:17N 23°03' E 113°25'66524691.4
2014-Oct-16 13:15N 32°02' E 120°45'68417230.7
2014-Oct-16 13:13N 22°27' E 113°47'191252.5
2014-Oct-16 13:12N 22°12' E 113°35'432163.0
2014-Oct-16 13:10N 22°55' E 113°35'1118.0
2014-Oct-16 12:33N 23°04' E 113°29'977219837.7
2014-Oct-16 12:33N 37°44' E 121°42'102667149.9
2014-Oct-16 12:32N 22°10' E 113°32'69057728.8
2014-Oct-16 12:31N 30°25' E 122°27'14411497.3
2014-Oct-16 12:31N 32°01' E 120°22'673201841.0
2014-Oct-16 12:30N 22°27' E 113°47'68476994.6
2014-Oct-16 12:30N 32°02' E 120°45'50749290.3
2014-Oct-16 12:29N 23°53' E 118°15'50641408.5
2014-Oct-16 12:29N 32°04' E 120°31'299475.8
2014-Oct-16 12:28N 32°02' E 119°57'523955.0
2014-Oct-16 12:28N 31°47' E 120°55'41723450.0
2014-Oct-16 12:27N 38°43' E 121°30'58177.0
2014-Oct-16 12:07N 37°47' E 121°48'712.3
2014-Oct-16 11:33N 37°44' E 121°40'977703116.3
2014-Oct-16 11:33N 23°04' E 113°29'654168126.6
2014-Oct-16 11:33N 32°03' E 120°26'35039366.3
2014-Oct-16 11:33N 37°47' E 121°45'1030148326.0
2014-Oct-16 11:32N 22°10' E 113°32'69428735.3
2014-Oct-16 11:31N 32°01' E 120°22'49981641.1
2014-Oct-16 11:30N 23°54' E 118°16'50564880.4
2014-Oct-16 11:30N 32°02' E 120°45'66282168.8
2014-Oct-16 11:29N 23°04' E 113°29'532330.1
2014-Oct-16 11:28N 22°12' E 113°35'68714289.1
2014-Oct-16 11:25N 30°25' E 122°27'1554246.5
2014-Oct-16 11:23N 31°58' E 120°03'6435949.8
2014-Oct-16 11:16N 22°55' E 113°35'1115.5
2014-Oct-16 10:33N 23°04' E 113°29'644165696.0
2014-Oct-16 10:33N 31°57' E 120°17'687824169.0
2014-Oct-16 10:33N 22°11' E 113°35'695312600.8
2014-Oct-16 10:33N 31°22' E 121°29'38353037.0
2014-Oct-16 10:32N 37°45' E 121°37'35060067.0
2014-Oct-16 10:32N 32°00' E 120°22'139.0
2014-Oct-16 10:31N 32°01' E 120°22'132690.3
2014-Oct-16 10:30N 31°57' E 120°08'15028478.8
2014-Oct-16 10:30N 30°25' E 122°27'66814834.9
2014-Oct-16 10:27N 22°27' E 113°47'203820.3
2014-Oct-16 10:27N 22°11' E 113°34'54250.3
2014-Oct-16 10:14N 23°04' E 113°29'5580.1
2014-Oct-16 09:33N 22°10' E 113°36'5517891.1
2014-Oct-16 09:33N 23°04' E 113°29'6412307041.5
2014-Oct-16 09:33N 31°56' E 120°12'646101105.0
2014-Oct-16 09:33N 23°02' E 113°22'256346.8
2014-Oct-16 09:32N 22°43' E 113°40'65632793.0
2014-Oct-16 09:31N 31°57' E 120°16'35785747.3
2014-Oct-16 09:31N 37°47' E 121°43'35290578.5
2014-Oct-16 09:31N 32°01' E 120°22'65026877.4
2014-Oct-16 09:29N 23°04' E 113°29'65221538.7
2014-Oct-16 09:27N 30°25' E 122°27'44151197.3
2014-Oct-16 09:27N 37°44' E 121°38'38226454.8
2014-Oct-16 09:26N 31°22' E 121°29'55231.5
2014-Oct-16 09:12N 32°02' E 120°45'2919513.0
2014-Oct-16 09:10N 36°41' E 122°22'98530298.1
2014-Oct-16 09:08N 22°10' E 113°34'5494.1
2014-Oct-16 08:33N 23°04' E 113°29'975389965.2
2014-Oct-16 08:33N 37°44' E 121°35'97590011.5
2014-Oct-16 08:33N 23°05' E 113°27'552566.5
2014-Oct-16 08:31N 22°10' E 113°31'1028127568.6
2014-Oct-16 08:31N 37°47' E 121°38'352105565.4
2014-Oct-16 08:31N 32°01' E 120°22'1449076.8
2014-Oct-16 08:30N 30°25' E 122°27'11333960.3
2014-Oct-16 08:30N 31°47' E 120°55'371612.6
2014-Oct-16 08:28N 31°56' E 120°14'741.1
2014-Oct-16 08:18N 31°58' E 120°21'65117767.7
2014-Oct-16 08:16N 22°55' E 113°35'6679158.8
2014-Oct-16 08:12N 32°02' E 120°45'67740617.6
2014-Oct-16 08:11N 22°45' E 113°31'20209.3
2014-Oct-16 08:05N 23°04' E 113°29'0 0.3
2014-Oct-16 07:33N 23°04' E 113°29'64780267.0
2014-Oct-16 07:33N 31°58' E 120°21'35190334.3
2014-Oct-16 07:32N 37°44' E 121°33'35816131.6
2014-Oct-16 07:31N 31°47' E 120°55'361162551.3
2014-Oct-16 07:31N 37°47' E 121°27'347124861.7
2014-Oct-16 07:31N 32°02' E 120°45'2017649.0
2014-Oct-16 07:31N 32°01' E 120°22'65026273.8
2014-Oct-16 07:29N 23°04' E 113°29'977103481.4
2014-Oct-16 07:29N 38°54' E 117°56'4286214.8
2014-Oct-16 07:25N 31°59' E 120°01'1155.8
2014-Oct-16 07:13N 31°56' E 120°13'64756779.4
2014-Oct-16 07:12N 22°55' E 113°35'631567639.3
2014-Oct-16 07:12N 29°53' E 122°22'629967.8
2014-Oct-16 06:33N 23°04' E 113°29'973700626.3
2014-Oct-16 06:33N 37°42' E 121°36'99677915.6
2014-Oct-16 06:33N 22°31' E 113°51'664108670.3
2014-Oct-16 06:32N 31°58' E 120°21'3130.6
2014-Oct-16 06:31N 32°01' E 120°22'65026571.9
2014-Oct-16 06:29N 23°04' E 113°29'639209172.2
2014-Oct-16 06:29N 31°58' E 120°06'64440683.7
2014-Oct-16 06:28N 22°55' E 113°35'973291941.1
2014-Oct-16 06:28N 37°44' E 121°14'35718369.0
2014-Oct-16 06:27N 31°47' E 120°55'6747632.3
2014-Oct-16 06:21N 22°48' E 113°19'67550648.4
2014-Oct-16 06:21N 31°60' E 120°38'2329.6
2014-Oct-16 05:33N 31°57' E 120°11'6411153500.5
2014-Oct-16 05:33N 23°04' E 113°29'324166390.0
2014-Oct-16 05:33N 24°48' E 119°04'43920275.7
2014-Oct-16 05:32N 32°01' E 120°32'345138105.2
2014-Oct-16 05:32N 37°42' E 121°39'34717580.8
2014-Oct-16 05:31N 32°01' E 120°22'1734398.0
2014-Oct-16 05:28N 29°47' E 122°30'1715549.5
2014-Oct-16 05:26N 31°58' E 120°21'786.3
2014-Oct-16 05:22N 31°56' E 120°13'6428370.3
2014-Oct-16 05:17N 23°04' E 113°29'1193.7
2014-Oct-16 05:10N 22°55' E 113°35'66060913.9
2014-Oct-16 05:09N 31°21' E 121°31'57747.8
2014-Oct-16 05:05N 32°02' E 120°45'2547.2
2014-Oct-16 04:34N 31°57' E 120°16'644772390.7
2014-Oct-16 04:33N 23°04' E 113°29'642330013.7
2014-Oct-16 04:33N 31°56' E 120°13'73463.8
2014-Oct-16 04:33N 31°58' E 120°21'350114428.8
2014-Oct-16 04:33N 37°42' E 121°35'974233842.0
2014-Oct-16 04:33N 23°01' E 113°31'65381052.1
2014-Oct-16 04:32N 32°01' E 120°25'3120.7
2014-Oct-16 04:31N 32°01' E 120°22'672127253.9
2014-Oct-16 04:30N 22°25' E 113°54'462315.3
2014-Oct-16 04:29N 23°04' E 113°29'6627446.6
2014-Oct-16 04:24N 32°02' E 120°45'66720866.5
2014-Oct-16 04:22N 22°55' E 113°35'6627791.0
2014-Oct-16 04:17N 31°24' E 121°31'67214235.2
2014-Oct-16 04:14N 22°31' E 113°52'26186.2
2014-Oct-16 04:06N 22°51' E 113°34'6551223.1
2014-Oct-16 03:33N 31°58' E 120°20'35054791.1
2014-Oct-16 03:33N 37°43' E 121°33'348626976.1
2014-Oct-16 03:33N 31°59' E 120°21'65862324.1
2014-Oct-16 03:32N 22°55' E 113°25'101815.6
2014-Oct-16 03:32N 23°04' E 113°29'65027837.1
2014-Oct-16 03:31N 32°01' E 120°22'69473477.9
2014-Oct-16 03:30N 22°11' E 113°32'68631675.7
2014-Oct-16 03:29N 31°56' E 120°14'64742328.0
2014-Oct-16 03:28N 22°55' E 113°35'651167525.8
2014-Oct-16 03:28N 31°58' E 120°21'64726156.0
2014-Oct-16 03:26N 23°04' E 113°29'9404059.0
2014-Oct-16 03:12N 36°43' E 122°23'96113511.6
2014-Oct-16 03:08N 22°31' E 113°52'3967.9
2014-Oct-16 02:33N 23°04' E 113°29'103105.2
2014-Oct-16 02:33N 22°54' E 113°29'983589663.9
2014-Oct-16 02:33N 37°42' E 121°37'345207094.9
2014-Oct-16 02:33N 32°02' E 120°26'2934219.1
2014-Oct-16 02:33N 31°47' E 120°55'361885.9
2014-Oct-16 02:32N 31°56' E 120°14'68482062.9
2014-Oct-16 02:31N 22°10' E 113°38'68888519.9
2014-Oct-16 02:31N 31°58' E 120°21'31214.6
2014-Oct-16 02:31N 32°01' E 120°22'66812784.2
2014-Oct-16 02:28N 22°30' E 113°51'40229.5
2014-Oct-16 02:17N 23°04' E 113°29'6526050.8
2014-Oct-16 02:11N 30°25' E 122°27'65717511.5
2014-Oct-16 02:08N 22°57' E 113°30'569.6
2014-Oct-16 02:04N 22°55' E 113°35'1121.9
2014-Oct-16 01:33N 23°04' E 113°29'311453.7
2014-Oct-16 01:33N 23°02' E 113°31'65354650.4
2014-Oct-16 01:33N 30°25' E 122°27'1469921.3
2014-Oct-16 01:32N 31°56' E 120°13'161144.2
2014-Oct-16 01:31N 32°02' E 120°31'81790.6
2014-Oct-16 01:31N 32°01' E 120°22'685205487.8
2014-Oct-16 01:31N 22°15' E 113°43'68219331.4
2014-Oct-16 01:28N 31°58' E 120°21'3492033.5
2014-Oct-16 01:18N 37°40' E 121°42'97463735.3
2014-Oct-16 01:17N 23°04' E 113°29'65616502.3
2014-Oct-16 01:15N 31°47' E 120°55'111.1
2014-Oct-16 01:11N 31°47' E 120°55'2134.2
2014-Oct-16 00:34N 32°01' E 120°36'2138584.9
2014-Oct-16 00:33N 31°47' E 120°55'656786936.8
2014-Oct-16 00:33N 23°04' E 113°29'649212558.4
2014-Oct-16 00:33N 32°01' E 120°22'3246.7
2014-Oct-16 00:32N 31°58' E 120°21'794.4
2014-Oct-16 00:28N 31°56' E 120°14'36278.0
2014-Oct-16 00:20N 31°47' E 120°55'3240.1
2014-Oct-15 23:33N 32°00' E 120°21'322269.5
2014-Oct-15 23:32N 31°47' E 120°55'6601187387.8
2014-Oct-15 23:32N 22°57' E 113°33'651146497.2
2014-Oct-15 23:32N 31°58' E 120°21'15819.6
2014-Oct-15 23:31N 32°00' E 120°39'65871758.7
2014-Oct-15 23:30N 23°04' E 113°29'066.6
2014-Oct-15 23:30N 23°04' E 113°29'65645405.0
2014-Oct-15 23:30N 31°47' E 120°55'37507.8
2014-Oct-15 23:25N 31°56' E 120°14'306862.7
2014-Oct-15 23:04N 36°43' E 122°21'296577.2
2014-Oct-15 22:33N 32°02' E 120°30'9339.9
2014-Oct-15 22:32N 32°00' E 120°40'161693.4
2014-Oct-15 22:31N 31°58' E 120°21'64722383.9
2014-Oct-15 22:29N 23°04' E 113°29'111328.4
2014-Oct-15 22:29N 22°55' E 113°36'659182614.4
2014-Oct-15 22:28N 31°47' E 120°55'377352.6
2014-Oct-15 22:28N 31°56' E 120°14'642288958.6
2014-Oct-15 22:28N 23°03' E 113°30'163.0
2014-Oct-15 22:27N 23°04' E 113°29'65643738.1
2014-Oct-15 22:26N 32°00' E 120°36'13453797.7
2014-Oct-15 22:26N 30°25' E 122°27'762132.0
2014-Oct-15 22:24N 31°22' E 121°28'385081.5
2014-Oct-15 22:23N 31°47' E 120°55'3036.3
2014-Oct-15 21:34N 31°58' E 120°21'647465570.5
2014-Oct-15 21:33N 23°04' E 113°29'6561180389.3
2014-Oct-15 21:33N 31°47' E 120°55'30619352.9
2014-Oct-15 21:32N 36°43' E 122°28'3084001.7
2014-Oct-15 21:28N 31°56' E 120°14'191319.5
2014-Oct-15 21:27N 32°01' E 120°35'22103.3
2014-Oct-15 21:14N 31°47' E 120°55'114168.0
2014-Oct-15 20:33N 30°25' E 122°27'387174099.1
2014-Oct-15 20:33N 36°52' E 122°28'950311029.6
2014-Oct-15 20:33N 23°04' E 113°29'647775932.6
2014-Oct-15 20:33N 31°58' E 120°21'206655.5
2014-Oct-15 20:33N 32°02' E 120°45'171303.8
2014-Oct-15 20:32N 31°47' E 120°55'160.6
2014-Oct-15 20:31N 31°47' E 120°55'37619.5
2014-Oct-15 20:28N 31°56' E 120°14'64223575.3
2014-Oct-15 20:26N 23°04' E 113°29'65720202.9
2014-Oct-15 20:24N 32°01' E 120°35'14569.4
2014-Oct-15 20:23N 31°59' E 120°51'66311098.4
2014-Oct-15 20:19N 23°04' E 113°30'646842.0
2014-Oct-15 19:33N 31°58' E 120°21'78024.8
2014-Oct-15 19:33N 31°56' E 120°14'3339657.3
2014-Oct-15 19:33N 31°56' E 120°53'9652.1
2014-Oct-15 19:32N 31°47' E 120°55'1149097.3
2014-Oct-15 19:31N 30°25' E 122°27'1138853.9
2014-Oct-15 19:31N 31°47' E 120°55'65627452.1
2014-Oct-15 19:29N 23°04' E 113°29'0126.8
2014-Oct-15 19:29N 23°04' E 113°29'65739392.5
2014-Oct-15 19:28N 32°01' E 120°35'989.8
2014-Oct-15 19:22N 32°02' E 120°45'66324604.2
2014-Oct-15 19:21N 23°05' E 113°27'13910.4
2014-Oct-15 19:20N 22°59' E 113°39'646833.4
2014-Oct-15 18:33N 31°58' E 120°21'64729465.3
2014-Oct-15 18:32N 23°04' E 113°29'659474806.6
2014-Oct-15 18:32N 31°53' E 120°54'185495.4
2014-Oct-15 18:32N 32°01' E 120°35'2341226.0
2014-Oct-15 18:32N 31°47' E 120°55'37468.5
2014-Oct-15 18:27N 31°56' E 120°14'35274470.6
2014-Oct-15 18:27N 37°40' E 121°42'34210520.0
2014-Oct-15 18:25N 32°02' E 120°45'6189.8
2014-Oct-15 18:23N 31°59' E 120°51'663170591.2
2014-Oct-15 18:23N 23°05' E 113°27'13906.8
2014-Oct-15 18:22N 22°59' E 113°39'65434637.6
2014-Oct-15 18:21N 31°47' E 120°55'68613135.2
2014-Oct-15 18:18N 22°19' E 113°42'47838.8
2014-Oct-15 18:14N 23°04' E 113°29'66270114.3
2014-Oct-15 18:14N 32°02' E 120°45'1304992.0
2014-Oct-15 18:12N 30°25' E 122°27'6525024.2
2014-Oct-15 18:04N 23°04' E 113°30'6461246.5
2014-Oct-15 17:33N 31°58' E 120°21'647775920.5
2014-Oct-15 17:33N 23°04' E 113°29'66333149.7
2014-Oct-15 17:32N 31°59' E 120°51'141024.8
2014-Oct-15 17:31N 32°01' E 120°35'69429752.6
2014-Oct-15 17:30N 22°14' E 113°39'6948084.9
2014-Oct-15 17:25N 31°49' E 120°55'298.0
2014-Oct-15 17:23N 31°47' E 120°55'1145686.1
2014-Oct-15 17:22N 30°25' E 122°27'6496229.9
2014-Oct-15 17:16N 22°59' E 113°39'13612.7
2014-Oct-15 17:15N 23°05' E 113°27'34693.6
2014-Oct-15 17:12N 22°37' E 113°06'100714923.8
2014-Oct-15 17:08N 37°41' E 121°42'974159388.8
2014-Oct-15 17:07N 23°04' E 113°30'122.0
2014-Oct-15 17:05N 23°04' E 113°29'0 0.3
2014-Oct-15 16:33N 23°04' E 113°29'657196961.2
2014-Oct-15 16:33N 32°01' E 120°35'124819.8
2014-Oct-15 16:33N 31°58' E 120°21'64768502.2
2014-Oct-15 16:33N 23°05' E 113°27'656196772.6
2014-Oct-15 16:32N 31°47' E 120°55'122005.1
2014-Oct-15 16:32N 31°59' E 120°51'132589.8
2014-Oct-15 16:32N 31°47' E 120°57'65776276.0
2014-Oct-15 16:31N 23°04' E 113°30'662125386.5
2014-Oct-15 16:31N 32°02' E 120°45'2316435.8
2014-Oct-15 16:31N 31°57' E 120°18'68729088.9
2014-Oct-15 16:29N 22°12' E 113°34'696278520.4
2014-Oct-15 16:29N 31°47' E 120°55'1135989.2
2014-Oct-15 16:28N 30°25' E 122°27'649111247.8
2014-Oct-15 16:28N 22°59' E 113°39'97528082.8
2014-Oct-15 16:26N 37°41' E 121°42'3615057.1
2014-Oct-15 16:21N 31°41' E 121°11'6592452.4
2014-Oct-15 16:05N 23°04' E 113°29'1 2.8
2014-Oct-15 15:33N 23°05' E 113°27'43770.7
2014-Oct-15 15:33N 23°02' E 113°24'6512343940.6
2014-Oct-15 15:33N 31°58' E 120°21'35089964.9
2014-Oct-15 15:33N 37°41' E 121°41'35820782.8
2014-Oct-15 15:32N 31°44' E 121°05'315561.8
2014-Oct-15 15:31N 32°01' E 120°35'272339.6
2014-Oct-15 15:31N 31°47' E 121°02'65926363.0
2014-Oct-15 15:29N 23°04' E 113°29'139.4
2014-Oct-15 15:28N 23°04' E 113°30'6526428.2
2014-Oct-15 15:22N 30°25' E 122°27'68735829.7
2014-Oct-15 15:21N 22°12' E 113°34'69678347.7
2014-Oct-15 15:20N 31°47' E 120°55'65417192.4
2014-Oct-15 15:18N 22°59' E 113°39'64455207.1
2014-Oct-15 15:17N 31°57' E 120°18'33953.0
2014-Oct-15 15:15N 31°47' E 120°55'3144.4
2014-Oct-15 14:33N 31°58' E 120°21'14220410.9
2014-Oct-15 14:33N 30°25' E 122°27'687176535.7
2014-Oct-15 14:33N 22°11' E 113°35'5448239.3
2014-Oct-15 14:33N 23°03' E 113°19'66291601.2
2014-Oct-15 14:32N 31°47' E 120°55'228024.1
2014-Oct-15 14:32N 32°01' E 120°35'315291.7
2014-Oct-15 14:32N 31°45' E 121°06'91599.4
2014-Oct-15 14:31N 31°47' E 120°55'35818659.9
2014-Oct-15 14:30N 37°42' E 121°43'35222635.3
2014-Oct-15 14:29N 31°57' E 120°18'5003542.3
2014-Oct-15 14:21N 23°50' E 118°10'2624304.2
2014-Oct-15 14:17N 23°04' E 113°29'137.3
2014-Oct-15 14:16N 23°04' E 113°30'9741360.1
2014-Oct-15 13:33N 37°42' E 121°39'36186659.8
2014-Oct-15 13:33N 31°42' E 121°09'131545.2
2014-Oct-15 13:32N 31°47' E 120°55'32116491.5
2014-Oct-15 13:32N 31°57' E 120°18'2231.1
2014-Oct-15 13:32N 31°58' E 120°21'64666491.6
2014-Oct-15 13:31N 23°04' E 113°30'120.8
2014-Oct-15 13:29N 23°04' E 113°29'53745.0
2014-Oct-15 13:25N 22°11' E 113°35'69792870.1
2014-Oct-15 13:24N 31°47' E 120°55'4954604.8
2014-Oct-15 13:18N 23°53' E 118°14'4654427.2
2014-Oct-15 13:12N 30°44' E 122°17'419651.7
2014-Oct-15 12:33N 37°42' E 121°38'345207155.1
2014-Oct-15 12:33N 32°02' E 120°30'44159177.8
2014-Oct-15 12:33N 31°39' E 121°14'192153.2
2014-Oct-15 12:32N 31°47' E 120°55'301555.6
2014-Oct-15 12:31N 31°58' E 120°21'689103329.1
2014-Oct-15 12:31N 22°11' E 113°35'53674.3
2014-Oct-15 12:26N 23°04' E 113°29'6526765.5
2014-Oct-15 12:20N 30°25' E 122°27'1432866.8
2014-Oct-15 12:17N 31°57' E 120°18'64531371.8
2014-Oct-15 12:16N 23°04' E 113°29'652914.9
2014-Oct-15 11:33N 30°25' E 122°27'439526890.3
2014-Oct-15 11:33N 37°42' E 121°39'35157354.6
2014-Oct-15 11:33N 31°58' E 120°20'1214.1
2014-Oct-15 11:33N 31°58' E 120°21'3012079.0
2014-Oct-15 11:33N 31°47' E 120°55'65611624.7
2014-Oct-15 11:29N 23°04' E 113°29'66221477.3
2014-Oct-15 11:27N 31°59' E 120°49'66217791.3
2014-Oct-15 11:25N 23°04' E 113°29'5319127.4
2014-Oct-15 11:25N 22°11' E 113°35'6997858.3
2014-Oct-15 11:20N 31°33' E 121°20'52602.0
2014-Oct-15 11:14N 32°02' E 120°30'346481.3
2014-Oct-15 10:31N 37°43' E 121°36'35871521.9
2014-Oct-15 10:31N 31°47' E 120°56'65620904.7
2014-Oct-15 10:29N 23°04' E 113°29'64722822.2
2014-Oct-15 10:28N 31°58' E 120°21'623763.5
2014-Oct-15 10:27N 31°30' E 121°26'43608.5
2014-Oct-15 10:22N 31°59' E 120°49'12615150.3
2014-Oct-15 10:22N 30°25' E 122°27'6864153.3
2014-Oct-15 10:12N 22°11' E 113°35'10201592.3
2014-Oct-15 09:33N 37°43' E 121°36'354254875.3
2014-Oct-15 09:33N 31°57' E 120°06'3616285.6
2014-Oct-15 09:33N 31°60' E 120°49'2417317.2
2014-Oct-15 09:33N 31°58' E 120°20'195.2
2014-Oct-15 09:32N 31°58' E 120°21'378432.6
2014-Oct-15 09:32N 31°46' E 121°03'10843251.2
2014-Oct-15 09:32N 30°25' E 122°27'763005.2
2014-Oct-15 09:31N 31°25' E 121°32'661125211.0
2014-Oct-15 09:30N 23°02' E 113°31'507871.0
2014-Oct-15 09:30N 22°11' E 113°35'53673.2
2014-Oct-15 09:25N 23°04' E 113°29'65430580.3
2014-Oct-15 09:24N 32°02' E 120°30'6542106.1
2014-Oct-15 09:05N 23°04' E 113°29'6461202.1
2014-Oct-15 08:33N 31°58' E 120°20'351180501.7
2014-Oct-15 08:33N 37°43' E 121°36'3621303593.3
2014-Oct-15 08:33N 31°42' E 121°10'4419732.6
2014-Oct-15 08:33N 31°58' E 120°21'772195.6
2014-Oct-15 08:31N 31°20' E 121°41'6834811.4
2014-Oct-15 08:30N 30°25' E 122°27'653213659.1
2014-Oct-15 08:30N 23°02' E 113°31'65246055.8
2014-Oct-15 08:29N 32°01' E 120°25'651585902.5
2014-Oct-15 08:29N 23°04' E 113°29'0 2.9
2014-Oct-15 08:26N 23°04' E 113°29'53384.8
2014-Oct-15 08:18N 22°11' E 113°35'10201376.9
2014-Oct-15 07:33N 37°43' E 121°35'365438304.5
2014-Oct-15 07:33N 31°38' E 121°16'517364.8
2014-Oct-15 07:33N 31°58' E 120°20'646332465.2
2014-Oct-15 07:33N 23°04' E 113°29'642144498.4
2014-Oct-15 07:33N 31°56' E 120°15'1433961.1
2014-Oct-15 07:30N 30°24' E 122°23'65731971.8
2014-Oct-15 07:29N 22°55' E 113°27'66513145.3
2014-Oct-15 07:26N 31°47' E 120°55'69618709.4
2014-Oct-15 07:24N 22°11' E 113°35'45343.4
2014-Oct-15 07:16N 22°57' E 113°37'11357.9
2014-Oct-15 07:14N 23°04' E 113°29'647952.9
2014-Oct-15 06:33N 31°58' E 120°21'35136110.0
2014-Oct-15 06:33N 37°43' E 121°39'35223474.2
2014-Oct-15 06:32N 31°57' E 120°18'5841595.7
2014-Oct-15 06:32N 31°34' E 121°20'69996751.9
2014-Oct-15 06:31N 22°11' E 113°35'27932366.1
2014-Oct-15 06:31N 23°55' E 118°16'50115291.1
2014-Oct-15 06:29N 32°02' E 120°31'6557652.3
2014-Oct-15 06:24N 23°04' E 113°29'64512342.2
2014-Oct-15 06:21N 30°23' E 122°17'721412.3
2014-Oct-15 06:18N 31°21' E 121°26'847197.5
2014-Oct-15 06:17N 30°02' E 121°59'61813412.9
2014-Oct-15 06:14N 23°04' E 113°29'9859284.7
2014-Oct-15 06:08N 39°05' E 117°46'10331802.0
2014-Oct-15 05:33N 22°13' E 113°40'  
Track history (hours):
 
Tides and Currents Weather Stations Pressure Air Temp Water Temp Dewpoint Dewpoint Depression Visibility Wind Speed Wind Dir Waves Ship Positions

Callsign 000000 (name unknown)

Last reported at 2014-Oct-25 05:33 UTC. Time now 2014-Oct-25 06:27 UTC.
Position N 23°04' E 113°29'.

Type: Fishing. MMSI: 200007452.

Date/timePositionNaut miles runAvg speedWind from/ knotsBaromVisibWave heightAir tempDewpointWater temp
2014-Oct-25 05:33N 23°04' E 113°29'66059395.7
2014-Oct-25 05:33N 31°40' E 121°13'69926484.2
2014-Oct-25 05:31N 22°11' E 113°37'6853567.6
2014-Oct-25 05:20N 31°57' E 120°16'2936.1
2014-Oct-25 04:31N 31°58' E 120°51'69858426.4
2014-Oct-25 04:30N 22°16' E 113°39'38687.2
2014-Oct-25 04:27N 22°53' E 113°32'47279.9
2014-Oct-25 04:27N 22°54' E 113°28'10241.2
2014-Oct-25 04:25N 23°04' E 113°29'6553034.2
2014-Oct-25 04:12N 31°47' E 120°53'6551028.2
2014-Oct-25 03:33N 23°04' E 113°29'65049816.5
2014-Oct-25 03:33N 31°14' E 121°29'123429.2
2014-Oct-25 03:32N 31°27' E 121°29'66585455.2
2014-Oct-25 03:32N 23°02' E 113°23'467266.2
2014-Oct-25 03:31N 22°19' E 113°42'6943482.3
2014-Oct-25 03:20N 31°58' E 120°51'4962.4
2014-Oct-25 02:33N 31°22' E 121°29'764577.1
2014-Oct-25 02:32N 31°55' E 120°08'36918.3
2014-Oct-25 02:29N 31°58' E 120°51'66211516.2
2014-Oct-25 02:26N 23°04' E 113°29'0 8.7
2014-Oct-25 02:24N 23°04' E 113°29'6562131.1
2014-Oct-25 02:06N 31°20' E 121°33'50215846.2
2014-Oct-25 02:04N 39°05' E 117°44'3 6.0
2014-Oct-25 01:32N 39°04' E 117°48'49615264.0
2014-Oct-25 01:30N 31°21' E 121°27'3179.8
2014-Oct-25 01:29N 31°21' E 121°31'513219.7
2014-Oct-25 01:28N 31°58' E 120°51'66217924.8
2014-Oct-25 01:26N 23°04' E 113°29'0 8.9
2014-Oct-25 01:24N 23°04' E 113°29'94454800.2
2014-Oct-25 01:23N 36°48' E 122°20'3103157.1
2014-Oct-25 01:17N 31°47' E 120°53'655891.4
2014-Oct-25 00:33N 23°04' E 113°29'9851182217.2
2014-Oct-25 00:33N 39°03' E 117°51'49427801.6
2014-Oct-25 00:32N 31°23' E 121°30'6576304.2
2014-Oct-25 00:26N 23°04' E 113°29'659752.4
2014-Oct-24 23:33N 31°25' E 121°30'41057.4
2014-Oct-24 23:33N 31°21' E 121°27'65490610.8
2014-Oct-24 23:33N 23°04' E 113°29'652234572.1
2014-Oct-24 23:33N 31°15' E 121°31'3364825.8
2014-Oct-24 23:28N 36°48' E 122°28'94713971.4
2014-Oct-24 23:24N 23°04' E 113°29'6622321.0
2014-Oct-24 23:07N 31°58' E 120°51'4986.8
2014-Oct-24 22:34N 31°22' E 121°30'334400655.0
2014-Oct-24 22:33N 36°53' E 122°28'30750256.4
2014-Oct-24 22:33N 31°60' E 120°37'65690857.9
2014-Oct-24 22:33N 23°04' E 113°29'66282195.8
2014-Oct-24 22:32N 31°58' E 120°51'66214355.8
2014-Oct-24 22:29N 23°04' E 113°30'96414465.6
2014-Oct-24 22:25N 37°43' E 121°11'3723101.8
2014-Oct-24 22:18N 31°30' E 121°22'5370.8
2014-Oct-24 21:34N 32°01' E 120°32'34634601.2
2014-Oct-24 21:33N 37°45' E 121°17'969436015.3
2014-Oct-24 21:33N 23°04' E 113°29'1 7.3
2014-Oct-24 21:26N 23°04' E 113°30'9515724.0
2014-Oct-24 21:16N 36°54' E 122°25'3167687.5
2014-Oct-24 21:14N 31°47' E 120°54'37228.8
2014-Oct-24 21:04N 31°57' E 120°12'611.7
2014-Oct-24 20:33N 31°58' E 120°19'35032329.7
2014-Oct-24 20:32N 37°45' E 121°19'35239617.3
2014-Oct-24 20:32N 31°57' E 120°16'3139796.7
2014-Oct-24 20:30N 36°50' E 122°29'3153358.8
2014-Oct-24 20:24N 31°59' E 120°00'63855996.2
2014-Oct-24 20:24N 23°04' E 113°29'64511839.5
2014-Oct-24 20:20N 31°58' E 120°17'442159279.3
2014-Oct-24 20:20N 24°40' E 119°02'3197084.4
2014-Oct-24 20:18N 23°04' E 113°30'653887.5
2014-Oct-24 19:33N 32°02' E 120°27'445106842.7
2014-Oct-24 19:33N 24°43' E 119°03'32139861.4
2014-Oct-24 19:33N 23°04' E 113°29'649779161.9
2014-Oct-24 19:33N 31°60' E 120°23'034.6
2014-Oct-24 19:32N 31°60' E 120°22'24180.9
2014-Oct-24 19:24N 31°58' E 120°51'3493839.4
2014-Oct-24 19:18N 37°46' E 121°14'96956268.7
2014-Oct-24 19:17N 23°04' E 113°30'6409372.3
2014-Oct-24 19:13N 31°57' E 120°10'1724.8
2014-Oct-24 18:33N 32°02' E 120°29'65490605.0
2014-Oct-24 18:33N 23°04' E 113°29'643110304.1
2014-Oct-24 18:32N 31°57' E 120°16'175702.9
2014-Oct-24 18:32N 32°01' E 120°36'5170.3
2014-Oct-24 18:30N 32°02' E 120°31'34638903.7
2014-Oct-24 18:30N 37°46' E 121°18'97016866.7
2014-Oct-24 18:26N 23°04' E 113°30'10266689.6
2014-Oct-24 18:17N 38°44' E 121°29'5980.6
2014-Oct-24 17:33N 37°45' E 121°23'34711239.7
2014-Oct-24 17:32N 32°01' E 120°36'40510571.0
2014-Oct-24 17:29N 38°44' E 121°27'102521456.5
2014-Oct-24 17:26N 23°04' E 113°30'1 8.7
2014-Oct-24 17:21N 23°04' E 113°29'4657.9
2014-Oct-24 16:33N 22°25' E 113°54'1000450074.7
2014-Oct-24 16:33N 37°46' E 121°24'972194402.2
2014-Oct-24 16:33N 23°04' E 113°28'6625345.4
2014-Oct-24 16:25N 31°58' E 120°51'4782585.4
2014-Oct-24 16:14N 24°20' E 118°19'87926152.3
2014-Oct-24 16:12N 38°44' E 121°28'102535836.5
2014-Oct-24 16:10N 23°04' E 113°29'110.3
2014-Oct-24 16:06N 23°04' E 113°30'272503.4
2014-Oct-24 15:33N 24°17' E 118°16'82450305.0
2014-Oct-24 15:32N 37°46' E 121°25'97292130.5
2014-Oct-24 15:32N 23°04' E 113°29'6623306.1
2014-Oct-24 15:19N 31°58' E 120°51'662831.2
2014-Oct-24 14:32N 23°04' E 113°29'95820777.4
2014-Oct-24 14:29N 36°36' E 123°15'78764404.5
2014-Oct-24 14:28N 24°14' E 118°10'82832058.0
2014-Oct-24 14:27N 37°44' E 121°31'601418.9
2014-Oct-24 14:24N 38°44' E 121°35'102835927.6
2014-Oct-24 14:22N 23°04' E 113°29'65911041.8
2014-Oct-24 14:19N 31°40' E 121°11'6642573.5
2014-Oct-24 14:03N 23°02' E 113°24'6641306.9
2014-Oct-24 13:33N 31°44' E 121°06'361108392.0
2014-Oct-24 13:33N 37°45' E 121°28'973291941.5
2014-Oct-24 13:32N 23°05' E 113°27'26378927.3
2014-Oct-24 13:32N 24°12' E 118°04'4895317.7
2014-Oct-24 13:27N 31°58' E 120°51'481939.0
2014-Oct-24 13:25N 31°21' E 121°26'67745139.4
2014-Oct-24 13:24N 22°23' E 113°45'4185.8
2014-Oct-24 13:23N 22°20' E 113°42'464466.8
2014-Oct-24 13:22N 23°04' E 113°29'0 0.7
2014-Oct-24 13:11N 23°04' E 113°29'5181.5
2014-Oct-24 12:33N 22°14' E 113°39'10141825440.2
2014-Oct-24 12:33N 37°45' E 121°24'1000719818.5
2014-Oct-24 12:33N 22°27' E 113°47'68541769.5
2014-Oct-24 12:32N 31°58' E 120°51'66295362.8
2014-Oct-24 12:32N 23°04' E 113°29'028.0
2014-Oct-24 12:31N 23°04' E 113°29'65621476.9
2014-Oct-24 12:30N 31°60' E 120°37'30610805.8
2014-Oct-24 12:28N 36°37' E 123°15'79929651.4
2014-Oct-24 12:26N 24°06' E 117°59'491551.2
2014-Oct-24 11:33N 31°60' E 120°21'53888.5
2014-Oct-24 11:33N 32°02' E 120°27'20600.0
2014-Oct-24 11:31N 31°58' E 120°51'30312832.4
2014-Oct-24 11:29N 36°37' E 123°15'9588647.6
2014-Oct-24 11:23N 23°04' E 113°29'030.3
2014-Oct-24 11:22N 23°04' E 113°29'5247126.7
2014-Oct-24 11:22N 22°12' E 113°34'10189094.7
2014-Oct-24 11:16N 37°45' E 121°26'3592554.6
2014-Oct-24 11:07N 31°47' E 120°55'67111847.1
2014-Oct-24 11:04N 22°33' E 113°48'6701321.3
2014-Oct-24 10:33N 32°02' E 120°27'2110710.2
2014-Oct-24 10:33N 31°58' E 120°51'348250695.7
2014-Oct-24 10:33N 37°45' E 121°29'35116603.5
2014-Oct-24 10:32N 31°59' E 120°21'67110875.7
2014-Oct-24 10:28N 22°27' E 113°46'105555842.6
2014-Oct-24 10:27N 38°44' E 121°29'102613193.7
2014-Oct-24 10:22N 23°04' E 113°29'422429.6
2014-Oct-24 10:21N 22°27' E 113°49'421486.4
2014-Oct-24 10:20N 23°04' E 113°29'522191.5
2014-Oct-24 10:18N 22°12' E 113°34'7044614.7
2014-Oct-24 10:09N 31°59' E 120°49'1424.0
2014-Oct-24 09:33N 32°02' E 120°33'211709.3
2014-Oct-24 09:33N 31°56' E 120°09'63947921.4
2014-Oct-24 09:32N 23°04' E 113°29'022.3
2014-Oct-24 09:31N 23°04' E 113°29'66137186.2
2014-Oct-24 09:30N 32°00' E 120°45'703168602.7
2014-Oct-24 09:30N 22°12' E 113°34'206034.1
2014-Oct-24 09:30N 22°27' E 113°49'100281984.9
2014-Oct-24 09:29N 37°45' E 121°33'10026296.8
2014-Oct-24 09:20N 22°27' E 113°46'100219489.5
2014-Oct-24 09:17N 37°34' E 121°57'3412825.7
2014-Oct-24 09:09N 31°58' E 120°51'348568.6
2014-Oct-24 08:33N 37°44' E 121°31'35467128.6
2014-Oct-24 08:32N 31°57' E 120°04'63843325.2
2014-Oct-24 08:31N 23°04' E 113°29'53958.9
2014-Oct-24 08:28N 22°12' E 113°34'6997073.1
2014-Oct-24 08:22N 31°39' E 121°13'680816180.5
2014-Oct-24 08:22N 22°27' E 113°46'100338816.1
2014-Oct-24 08:21N 37°34' E 122°00'3361380.8
2014-Oct-24 08:06N 32°06' E 120°33'68232297.2
2014-Oct-24 08:05N 22°27' E 113°49'6601265.3
2014-Oct-24 07:33N 31°58' E 120°00'35390848.2
2014-Oct-24 07:33N 37°45' E 121°27'100066648.5
2014-Oct-24 07:32N 22°27' E 113°48'412871.9
2014-Oct-24 07:31N 23°04' E 113°29'953190693.6
2014-Oct-24 07:31N 36°56' E 122°28'452378.1
2014-Oct-24 07:30N 37°34' E 121°59'3553460.5
2014-Oct-24 07:24N 31°42' E 121°09'31906.6
2014-Oct-24 07:22N 31°59' E 120°39'3171288.7
2014-Oct-24 07:07N 26°46' E 119°43'314559.3
2014-Oct-24 06:33N 31°59' E 120°21'349209669.6
2014-Oct-24 06:33N 37°45' E 121°22'99969146.0
2014-Oct-24 06:32N 22°27' E 113°47'1002721319.4
2014-Oct-24 06:32N 37°35' E 121°55'515199.3
2014-Oct-24 06:32N 36°52' E 122°28'31712976.5
2014-Oct-24 06:30N 31°58' E 120°03'681204275.0
2014-Oct-24 06:30N 22°12' E 113°34'19179.8
2014-Oct-24 06:24N 22°27' E 113°46'68062757.3
2014-Oct-24 06:23N 31°43' E 121°06'6593171.0
2014-Oct-24 06:10N 23°04' E 113°29'658395064.7
2014-Oct-24 06:10N 32°00' E 120°40'1625.9
2014-Oct-24 05:33N 31°59' E 120°21'64813879.1
2014-Oct-24 05:31N 23°04' E 113°29'97269966.0
2014-Oct-24 05:30N 37°31' E 121°56'99958012.9
2014-Oct-24 05:29N 22°27' E 113°47'99855272.9
2014-Oct-24 05:28N 37°45' E 121°18'36210098.3
2014-Oct-24 05:26N 31°43' E 121°06'28755.2
2014-Oct-24 05:23N 32°00' E 120°40'34415.3
2014-Oct-24 05:18N 32°01' E 119°59'3111967.2
2014-Oct-24 05:09N 36°49' E 122°20'3023670.7
2014-Oct-24 05:04N 32°00' E 120°34'6971365.2
2014-Oct-24 04:33N 22°12' E 113°34'986147863.8
2014-Oct-24 04:33N 36°45' E 122°20'3026116.3
2014-Oct-24 04:30N 31°59' E 120°21'690828533.1
2014-Oct-24 04:30N 22°10' E 113°36'70422229.7
2014-Oct-24 04:28N 31°58' E 120°51'68413681.8
2014-Oct-24 04:25N 22°27' E 113°46'68124265.1
2014-Oct-24 04:23N 32°00' E 120°40'65826047.6
2014-Oct-24 04:22N 23°04' E 113°29'6594352.0
2014-Oct-24 04:13N 31°43' E 121°06'65917569.5
2014-Oct-24 04:10N 23°04' E 113°29'971184041.8
2014-Oct-24 04:10N 37°45' E 121°25'346564.1
2014-Oct-24 03:33N 32°00' E 120°40'34618067.5
2014-Oct-24 03:32N 37°45' E 121°22'348208687.9
2014-Oct-24 03:32N 31°58' E 120°51'66262729.0
2014-Oct-24 03:31N 23°04' E 113°29'65915011.9
2014-Oct-24 03:29N 31°43' E 121°06'33866.9
2014-Oct-24 03:26N 32°01' E 120°32'675142993.6
2014-Oct-24 03:26N 22°19' E 114°08'32242.7
2014-Oct-24 03:18N 22°12' E 113°34'62304.0
2014-Oct-24 03:18N 22°16' E 113°39'6843825.5
2014-Oct-24 03:07N 31°59' E 120°21'64828089.7
2014-Oct-24 03:06N 23°04' E 113°29'6521198.8
2014-Oct-24 02:33N 32°02' E 120°26'5638.4
2014-Oct-24 02:33N 31°59' E 120°21'161548.2
2014-Oct-24 02:32N 32°00' E 120°40'7002520342.0
2014-Oct-24 02:32N 22°11' E 113°35'533621.1
2014-Oct-24 02:31N 23°04' E 113°29'5319114.9
2014-Oct-24 02:31N 22°12' E 113°35'10157096.8
2014-Oct-24 02:23N 37°44' E 121°17'36120968.8
2014-Oct-24 02:22N 31°43' E 121°06'2075.3
2014-Oct-24 02:06N 31°58' E 120°51'2647.9
2014-Oct-24 01:34N 31°60' E 120°20'30528109.8
2014-Oct-24 01:33N 36°48' E 122°20'98842357.0
2014-Oct-24 01:31N 22°12' E 113°35'5347776.4
2014-Oct-24 01:31N 23°04' E 113°29'96477116.3
2014-Oct-24 01:31N 37°42' E 121°10'3438689.5
2014-Oct-24 01:28N 32°00' E 120°40'341569.1
2014-Oct-24 01:27N 31°60' E 119°60'68111141.6
2014-Oct-24 01:23N 22°12' E 113°34'70320419.9
2014-Oct-24 01:21N 31°58' E 120°51'28156.6
2014-Oct-24 01:10N 31°57' E 120°18'3 5.1
2014-Oct-24 00:33N 31°55' E 120°15'61311.7
2014-Oct-24 00:33N 31°60' E 120°20'151617.9
2014-Oct-24 00:32N 31°58' E 120°03'54861597.9
2014-Oct-24 00:32N 23°17' E 116°53'56165103.2
2014-Oct-24 00:31N 32°00' E 120°40'70017750.0
2014-Oct-24 00:29N 22°12' E 113°35'6982479.5
2014-Oct-24 00:12N 31°60' E 120°36'3437391.6
2014-Oct-24 00:09N 37°42' E 121°09'402461.6
2014-Oct-24 00:08N 37°31' E 121°57'37012103.1
2014-Oct-24 00:06N 31°21' E 121°27'1 1.8
2014-Oct-23 23:33N 31°22' E 121°28'37333607.4
2014-Oct-23 23:33N 37°35' E 121°57'97542271.3
2014-Oct-23 23:31N 23°04' E 113°29'5347739.2
2014-Oct-23 23:31N 22°12' E 113°35'68463164.8
2014-Oct-23 23:31N 31°56' E 120°15'151564.5
2014-Oct-23 23:30N 32°01' E 120°31'8264.4
2014-Oct-23 23:28N 32°00' E 120°40'34219860.0
2014-Oct-23 23:27N 37°42' E 121°09'9633980.3
2014-Oct-23 23:13N 23°04' E 113°29'6407914.4
2014-Oct-23 23:08N 31°57' E 120°08'68719628.9
2014-Oct-23 23:06N 22°11' E 113°25'7021302.1
2014-Oct-23 22:33N 31°24' E 121°31'3912745.3
2014-Oct-23 22:33N 31°47' E 120°54'352117.8
2014-Oct-23 22:32N 31°56' E 120°15'92127.1
2014-Oct-23 22:32N 32°00' E 120°24'121907.6
2014-Oct-23 22:32N 31°57' E 120°11'25632.6
2014-Oct-23 22:29N 32°00' E 120°40'70026814.0
2014-Oct-23 22:28N 22°12' E 113°35'69033571.6
2014-Oct-23 22:26N 31°60' E 120°20'34512307.0
2014-Oct-23 22:25N 37°36' E 121°57'9761756255.2
2014-Oct-23 22:25N 23°04' E 113°29'011.6
2014-Oct-23 22:22N 23°04' E 113°29'12453.4
2014-Oct-23 22:21N 22°53' E 113°34'43172.0
2014-Oct-23 22:06N 22°11' E 113°25'1019193141.2
2014-Oct-23 22:06N 37°45' E 121°17'3259.7
2014-Oct-23 21:33N 37°34' E 121°56'34783388.6
2014-Oct-23 21:33N 31°57' E 120°16'294.0
2014-Oct-23 21:32N 31°57' E 120°18'3953.8
2014-Oct-23 21:32N 31°56' E 120°14'365387.1
2014-Oct-23 21:31N 31°47' E 120°54'35953855.6
2014-Oct-23 21:31N 37°45' E 121°19'37736673.3
2014-Oct-23 21:30N 31°28' E 121°26'69829212.7
2014-Oct-23 21:29N 22°12' E 113°35'70012299.2
2014-Oct-23 21:26N 31°40' E 121°14'501875.9
2014-Oct-23 21:24N 31°60' E 120°20'64824039.1
2014-Oct-23 21:22N 23°04' E 113°29'65957838.1
2014-Oct-23 21:22N 31°60' E 120°41'70530930.6
2014-Oct-23 21:20N 22°12' E 113°24'7044211.7
2014-Oct-23 21:10N 32°00' E 120°40'65976471.5
2014-Oct-23 21:10N 23°04' E 113°29'6481071.8
2014-Oct-23 20:33N 31°59' E 120°21'725561.8
2014-Oct-23 20:33N 31°56' E 120°14'366463.0
2014-Oct-23 20:33N 31°47' E 120°54'323478.2
2014-Oct-23 20:33N 31°60' E 120°20'173381.9
2014-Oct-23 20:32N 32°00' E 120°40'31452.6
2014-Oct-23 20:32N 31°60' E 120°36'348178773.9
2014-Oct-23 20:32N 37°45' E 121°23'101818893.9
2014-Oct-23 20:29N 22°12' E 113°35'7001260715.9
2014-Oct-23 20:29N 31°40' E 121°14'996.4
2014-Oct-23 20:23N 31°33' E 121°20'6589674.3
2014-Oct-23 20:19N 23°04' E 113°29'974103160.9
2014-Oct-23 20:19N 37°34' E 121°57'9746472.3
2014-Oct-23 20:10N 23°04' E 113°29'6551082.9
2014-Oct-23 19:33N 32°01' E 120°32'6578.1
2014-Oct-23 19:33N 32°03' E 120°26'34118309.3
2014-Oct-23 19:32N 37°35' E 122°00'337855.9
2014-Oct-23 19:32N 37°45' E 121°21'971349436.4
2014-Oct-23 19:31N 23°04' E 113°29'5331833.3
2014-Oct-23 19:31N 22°12' E 113°35'696227766.9
2014-Oct-23 19:31N 31°47' E 120°54'3618428.9
2014-Oct-23 19:31N 31°56' E 120°14'6426210.7
2014-Oct-23 19:25N 23°04' E 113°29'10638.0
2014-Oct-23 19:24N 22°57' E 113°38'6606108.9
2014-Oct-23 19:17N 32°00' E 120°40'2330.9
2014-Oct-23 18:33N 31°56' E 120°14'5262545.8
2014-Oct-23 18:33N 31°40' E 121°12'35986072.1
2014-Oct-23 18:33N 37°36' E 122°04'382972.6
2014-Oct-23 18:32N 37°46' E 121°17'34428792.8
2014-Oct-23 18:31N 32°04' E 120°32'6992516971.6
2014-Oct-23 18:31N 22°12' E 113°35'696192713.4
2014-Oct-23 18:31N 31°47' E 120°54'521475.0
2014-Oct-23 18:29N 32°03' E 119°56'68219636.8
2014-Oct-23 18:27N 22°11' E 113°35'531485.8
2014-Oct-23 18:25N 23°04' E 113°29'010.5
2014-Oct-23 18:22N 23°04' E 113°29'102810946.5
2014-Oct-23 18:17N 38°46' E 121°29'414570.7
2014-Oct-23 17:33N 31°56' E 120°14'4943934.1
2014-Oct-23 17:33N 31°42' E 121°09'35664087.8
2014-Oct-23 17:33N 37°35' E 121°59'102241820.5
2014-Oct-23 17:31N 22°12' E 113°35'681204312.5
2014-Oct-23 17:31N 31°60' E 119°60'35218922.0
2014-Oct-23 17:30N 37°46' E 121°22'101891622.6
2014-Oct-23 17:29N 22°11' E 113°35'69018820.4
2014-Oct-23 17:27N 31°60' E 120°20'64816422.9
2014-Oct-23 17:25N 23°04' E 113°29'011.2
2014-Oct-23 17:22N 23°04' E 113°29'65535197.8
2014-Oct-23 17:21N 31°47' E 120°54'18100.0
2014-Oct-23 17:10N 32°00' E 120°40'1727.5
2014-Oct-23 16:33N 31°60' E 120°20'136837.9
2014-Oct-23 16:33N 31°57' E 120°05'460118334.7
2014-Oct-23 16:33N 24°23' E 118°40'8152933503.5
2014-Oct-23 16:33N 37°45' E 121°25'35479674.5
2014-Oct-23 16:33N 31°56' E 120°14'363676.3
2014-Oct-23 16:32N 31°47' E 120°54'13750.3
2014-Oct-23 16:31N 31°42' E 121°08'6594510.3
2014-Oct-23 16:22N 23°04' E 113°29'044.3
2014-Oct-23 16:22N 23°04' E 113°29'66213103.6
2014-Oct-23 16:19N 32°01' E 120°47'637.5
2014-Oct-23 16:09N 32°00' E 120°40'70020660.4
2014-Oct-23 16:07N 22°12' E 113°35'461311.1
2014-Oct-23 16:05N 22°57' E 113°37'6601242.0
2014-Oct-23 15:33N 32°00' E 120°40'172898.9
2014-Oct-23 15:33N 31°60' E 120°20'64826199.7
2014-Oct-23 15:31N 23°04' E 113°29'659148275.9
2014-Oct-23 15:31N 31°42' E 121°08'493017.3
2014-Oct-23 15:30N 31°56' E 120°14'6842463105.4
2014-Oct-23 15:30N 22°11' E 113°35'1018282010.9
2014-Oct-23 15:30N 37°44' E 121°26'101827155.6
2014-Oct-23 15:28N 22°12' E 113°35'531061.2
2014-Oct-23 15:25N 23°04' E 113°29'65511675.1
2014-Oct-23 15:21N 31°47' E 120°54'24132.8
2014-Oct-23 15:11N 32°01' E 120°32'4073802.0
2014-Oct-23 15:04N 38°44' E 121°35'406791.0
2014-Oct-23 14:33N 32°02' E 120°30'263560.0
2014-Oct-23 14:33N 31°47' E 120°54'114759.6
2014-Oct-23 14:33N 31°44' E 121°06'466198.3
2014-Oct-23 14:32N 31°56' E 120°14'35357821.6
2014-Oct-23 14:32N 37°45' E 121°26'97287436.9
2014-Oct-23 14:31N 23°04' E 113°29'64833311.3
2014-Oct-23 14:30N 31°60' E 120°20'3448783.8
2014-Oct-23 14:28N 37°34' E 122°00'102128940.6
2014-Oct-23 14:26N 22°11' E 113°35'7005649.4
2014-Oct-23 14:18N 32°00' E 120°40'700168019.1
2014-Oct-23 14:18N 22°11' E 113°35'53603.2
2014-Oct-23 14:13N 23°04' E 113°29'6624498.4
2014-Oct-23 14:04N 31°60' E 120°48'346681.6
2014-Oct-23 13:34N 37°45' E 121°21'346124487.8
2014-Oct-23 13:33N 32°00' E 120°40'223219.4
2014-Oct-23 13:33N 31°46' E 121°01'371456.2
2014-Oct-23 13:31N 31°60' E 120°20'2383.5
2014-Oct-23 13:31N 31°60' E 120°23'69125398.7
2014-Oct-23 13:29N 22°11' E 113°35'1023111586.0
2014-Oct-23 13:29N 37°35' E 122°03'35318941.3
2014-Oct-23 13:28N 31°47' E 120°54'392481.3
2014-Oct-23 13:27N 31°56' E 120°09'41433906.7
2014-Oct-23 13:26N 38°44' E 121°36'1076184425.3
2014-Oct-23 13:26N 22°11' E 113°35'533407.9
2014-Oct-23 13:25N 23°04' E 113°29'0 4.6
2014-Oct-23 13:19N 23°04' E 113°29'11103.6
2014-Oct-23 13:13N 22°56' E 113°36'66361234.8
2014-Oct-23 13:12N 31°40' E 121°14'66869.6
2014-Oct-23 13:08N 31°60' E 119°60'1425.1
2014-Oct-23 12:33N 31°57' E 120°16'4444.1
2014-Oct-23 12:33N 31°60' E 120°20'162578.4
2014-Oct-23 12:33N 31°59' E 120°02'68147113.3
2014-Oct-23 12:32N 22°11' E 113°35'1017366252.0
2014-Oct-23 12:31N 37°44' E 121°24'351264.2
2014-Oct-23 12:30N 37°35' E 122°06'10259509.5
2014-Oct-23 12:23N 22°11' E 113°35'107619170.9
2014-Oct-23 12:20N 38°44' E 121°35'104066862.6
2014-Oct-23 12:19N 22°49' E 113°36'6685515.7
2014-Oct-23 12:12N 31°40' E 121°12'364570.7
2014-Oct-23 11:33N 37°44' E 121°27'359322758.3
2014-Oct-23 11:33N 31°47' E 120°54'4225207.0
2014-Oct-23 11:33N 31°58' E 120°07'5412888.7
2014-Oct-23 11:33N 31°43' E 121°07'29462.6
2014-Oct-23 11:29N 32°00' E 120°40'4068759.3
2014-Oct-23 11:27N 38°44' E 121°35'54731257.0
2014-Oct-23 11:25N 29°38' E 122°16'61552729.3
2014-Oct-23 11:25N 23°04' E 113°29'615158111.7
2014-Oct-23 11:25N 29°38' E 122°16'64735310.9
2014-Oct-23 11:23N 22°11' E 113°35'0 4.3
2014-Oct-23 11:18N 22°11' E 113°35'6907304.4
2014-Oct-23 11:12N 31°60' E 120°20'3249.1
2014-Oct-23 10:33N 31°47' E 120°54'3722477.9
2014-Oct-23 10:33N 31°57' E 120°12'241553.0
2014-Oct-23 10:32N 32°00' E 120°40'34569022.3
2014-Oct-23 10:32N 37°44' E 121°24'34840404.4
2014-Oct-23 10:31N 31°60' E 120°20'69026141.8
2014-Oct-23 10:30N 22°11' E 113°35'103125409.9
2014-Oct-23 10:27N 37°39' E 122°13'98521887.0
2014-Oct-23 10:25N 23°04' E 113°29'531313.1
2014-Oct-23 10:22N 22°11' E 113°35'11172.4
2014-Oct-23 10:18N 22°14' E 113°23'107610938.2
2014-Oct-23 10:13N 38°44' E 121°31'411628.8
2014-Oct-23 09:33N 31°58' E 120°17'35078689.4
2014-Oct-23 09:33N 37°43' E 121°28'35780333.5
2014-Oct-23 09:33N 31°47' E 120°54'321093.2
2014-Oct-23 09:31N 31°60' E 120°20'40839735.8
2014-Oct-23 09:30N 38°44' E 121°29'1073110403.8
2014-Oct-23 09:30N 22°11' E 113°35'70028311.3
2014-Oct-23 09:28N 32°00' E 120°40'1 9.2
2014-Oct-23 09:24N 31°60' E 120°40'7005392.4
2014-Oct-23 09:16N 22°11' E 113°35'53485.0
2014-Oct-23 09:10N 23°04' E 113°29'6551083.4
2014-Oct-23 08:34N 31°47' E 120°54'323280.0
2014-Oct-23 08:33N 31°60' E 120°20'347416570.5
2014-Oct-23 08:33N 37°42' E 121°29'34588686.5
2014-Oct-23 08:33N 32°00' E 120°35'69723463.5
2014-Oct-23 08:31N 22°11' E 113°35'103361990.2
2014-Oct-23 08:30N 37°40' E 122°17'1033371894.1
2014-Oct-23 08:30N 22°11' E 113°35'53651.1
2014-Oct-23 08:25N 23°04' E 113°29'6583435.7
2014-Oct-23 08:13N 32°00' E 120°40'68155758.7
2014-Oct-23 08:13N 22°27' E 113°46'9991529.4
2014-Oct-23 07:33N 37°41' E 121°32'34394986.0
2014-Oct-23 07:33N 32°02' E 120°30'9194.7
2014-Oct-23 07:30N 31°60' E 120°20'65293861.3
2014-Oct-23 07:30N 23°02' E 113°24'66328736.6
2014-Oct-23 07:29N 32°00' E 120°40'7004293.5
2014-Oct-23 07:19N 22°11' E 113°35'0 5.4
2014-Oct-23 07:15N 22°11' E 113°35'103128336.4
2014-Oct-23 07:12N 37°39' E 122°15'34517514.7
2014-Oct-23 07:11N 32°04' E 120°32'342541.7
2014-Oct-23 06:33N 37°42' E 121°35'344137768.4
2014-Oct-23 06:33N 32°02' E 120°30'34728415.9
2014-Oct-23 06:32N 37°39' E 122°12'103018352.2
2014-Oct-23 06:29N 22°11' E 113°35'70019246.1
2014-Oct-23 06:27N 32°04' E 120°35'66485408.1
2014-Oct-23 06:26N 23°03' E 113°20'531335.6
2014-Oct-23 06:24N 22°11' E 113°35'0 0.5
2014-Oct-23 05:33N 22°11' E 113°36'69062083.4
2014-Oct-23 05:32N 31°60' E 120°20'35036019.2
2014-Oct-23 05:32N 37°44' E 121°36'102231436.1
2014-Oct-23 05:30N 22°11' E 113°35'1027154009.1
2014-Oct-23 05:30N 37°37' E 122°08'34510515.9
2014-Oct-23 05:28N 32°02' E 120°30'66034424.8
2014-Oct-23 05:26N 23°03' E 113°20'653740.6
2014-Oct-23 04:33N 31°60' E 120°20'6959.2
2014-Oct-23 04:33N 32°02' E 120°26'34665605.9
2014-Oct-23 04:33N 37°44' E 121°32'1017130742.2
2014-Oct-23 04:32N 22°13' E 113°40'6929512.1
2014-Oct-23 04:28N 31°47' E 120°54'3561859.4
2014-Oct-23 04:17N 37°37' E 122°09'98628403.8
2014-Oct-23 04:14N 23°03' E 113°20'531240.8
2014-Oct-23 04:12N 22°11' E 113°35'103610449.2
2014-Oct-23 04:06N 39°05' E 117°44'194356.9
2014-Oct-23 03:33N 37°44' E 121°28'349104577.0
2014-Oct-23 03:33N 31°60' E 120°20'1733.8
2014-Oct-23 03:33N 31°58' E 120°20'3118686.6
2014-Oct-23 03:33N 31°47' E 120°54'6962506440.2
2014-Oct-23 03:33N 22°10' E 113°36'1037162313.6
2014-Oct-23 03:33N 39°04' E 117°47'221797125.9
2014-Oct-23 03:33N 37°35' E 122°06'34224648.2
2014-Oct-23 03:32N 32°00' E 120°40'28348.7
2014-Oct-23 03:27N 31°44' E 121°07'66674925.9
2014-Oct-23 03:26N 23°03' E 113°20'6593925.7
2014-Oct-23 03:16N 31°51' E 120°43'2130.0
2014-Oct-23 02:33N 31°60' E 120°20'348313145.5
2014-Oct-23 02:33N 37°44' E 121°23'3223018.8
2014-Oct-23 02:33N 37°34' E 122°01'35235160.8
2014-Oct-23 02:33N 31°47' E 120°54'69847393.9
2014-Oct-23 02:32N 22°11' E 113°32'103727853.8
2014-Oct-23 02:30N 39°03' E 117°52'9889668.2
2014-Oct-23 02:23N 23°03' E 113°20'828.0
2014-Oct-23 02:06N 23°04' E 113°29'432307.5
2014-Oct-23 02:05N 22°24' E 113°44'6751296.7
2014-Oct-23 01:33N 31°60' E 120°20'344176664.9
2014-Oct-23 01:33N 37°33' E 121°60'35174285.0
2014-Oct-23 01:33N 31°47' E 120°54'678152661.6
2014-Oct-23 01:33N 22°26' E 113°45'102050988.7
2014-Oct-23 01:32N 39°04' E 117°50'1778953.1
2014-Oct-23 01:30N 37°42' E 121°10'101229617.6
2014-Oct-23 01:28N 22°11' E 113°32'44558.0
2014-Oct-23 01:24N 22°53' E 113°18'15153.1
2014-Oct-23 01:18N 23°04' E 113°29'97913827.6
2014-Oct-23 01:14N 37°34' E 122°11'353523.6
2014-Oct-23 00:33N 31°47' E 120°54'35123376.3
2014-Oct-23 00:32N 37°31' E 122°15'34042157.9
2014-Oct-23 00:32N 32°00' E 120°40'34067959.3
2014-Oct-23 00:31N 37°34' E 121°56'1002106053.4
2014-Oct-23 00:31N 22°27' E 113°46'341794.8
2014-Oct-23 00:30N 22°55' E 113°25'442010.3
2014-Oct-23 00:28N 22°11' E 113°32'69217919.3
2014-Oct-23 00:26N 31°60' E 120°20'6483449.2
2014-Oct-23 00:15N 23°04' E 113°29'43257.3
2014-Oct-23 00:05N 22°27' E 113°53'6741294.0
2014-Oct-22 23:33N 31°47' E 120°54'663341032.3
2014-Oct-22 23:33N 22°53' E 113°31'65684356.8
2014-Oct-22 23:33N 31°60' E 120°20'64812402.5
2014-Oct-22 23:30N 23°04' E 113°29'6583269.3
2014-Oct-22 23:18N 32°00' E 120°40'6653996.7
2014-Oct-22 23:08N 23°03' E 113°18'66719362.7
2014-Oct-22 23:06N 31°27' E 121°29'3564.5
2014-Oct-22 22:33N 31°47' E 120°54'358128724.9
2014-Oct-22 22:33N 37°44' E 121°14'34518794.2
2014-Oct-22 22:32N 32°00' E 120°40'171110.1
2014-Oct-22 22:31N 31°60' E 120°20'4463319.1
2014-Oct-22 22:23N 24°38' E 119°07'3233919.0
2014-Oct-22 22:18N 23°04' E 113°29'6598568.1
2014-Oct-22 22:13N 31°25' E 121°32'70105.3
2014-Oct-22 21:33N 31°60' E 120°20'35112043.0
2014-Oct-22 21:31N 37°47' E 121°23'592877.3
2014-Oct-22 21:30N 38°46' E 121°27'1027184897.9
2014-Oct-22 21:30N 23°04' E 113°29'97525621.7
2014-Oct-22 21:27N 37°34' E 121°60'35297354.1
2014-Oct-22 21:27N 31°47' E 120°54'1895.4
2014-Oct-22 21:16N 32°00' E 120°40'1723.8
2014-Oct-22 20:33N 31°60' E 120°20'352140604.4
2014-Oct-22 20:33N 37°47' E 121°26'36116675.9
2014-Oct-22 20:31N 31°47' E 120°54'3542369.9
2014-Oct-22 20:23N 37°35' E 122°05'97812621.4
2014-Oct-22 20:18N 23°04' E 113°29'65818093.5
2014-Oct-22 20:16N 32°00' E 120°40'1825.5
2014-Oct-22 19:33N 31°47' E 120°54'36281417.9
2014-Oct-22 19:32N 37°48' E 121°23'372414.5
2014-Oct-22 19:31N 37°37' E 122°08'3447651.4
2014-Oct-22 19:29N 32°00' E 120°40'65820611.0
2014-Oct-22 19:27N 23°04' E 113°29'10254928.9
2014-Oct-22 19:14N 38°43' E 121°31'2 2.4
2014-Oct-22 18:33N 38°43' E 121°29'102517483.3
2014-Oct-22 18:30N 23°04' E 113°29'658592561.2
2014-Oct-22 18:30N 32°00' E 120°40'67189459.1
2014-Oct-22 18:29N 22°42' E 113°40'995111949.9
2014-Oct-22 18:29N 37°36' E 122°07'324659.7
2014-Oct-22 18:28N 37°46' E 121°28'5761.9
2014-Oct-22 17:33N 38°43' E 121°28'562902.8
2014-Oct-22 17:32N 37°46' E 121°28'30903.3
2014-Oct-22 17:30N 37°35' E 122°03'977106553.6
2014-Oct-22 17:30N 23°04' E 113°29'20422.8
2014-Oct-22 17:27N 22°45' E 113°33'6695549.0
2014-Oct-22 17:20N 31°47' E 120°54'362467.4
2014-Oct-22 16:33N 37°47' E 121°25'9931787481.9
2014-Oct-22 16:33N 22°44' E 113°27'99362739.8
2014-Oct-22 16:32N 37°34' E 121°58'97410597.1
2014-Oct-22 16:27N 23°04' E 113°29'102637311.5
2014-Oct-22 16:25N 38°43' E 121°32'41713909.3
2014-Oct-22 16:23N 31°47' E 120°54'18421.2
2014-Oct-22 16:21N 32°00' E 120°40'69110631.3
2014-Oct-22 16:17N 22°11' E 113°54'17123.0
2014-Oct-22 16:08N 22°27' E 113°46'6718192.2
2014-Oct-22 16:04N 31°60' E 120°20'671142051.9
2014-Oct-22 16:03N 22°27' E 113°48'6811336.4
2014-Oct-22 15:33N 32°00' E 120°40'6921246116.9
2014-Oct-22 15:33N 22°13' E 113°49'652234889.7
2014-Oct-22 15:32N 29°47' E 122°30'48792231.4
2014-Oct-22 15:32N 37°51' E 121°27'285612.9
2014-Oct-22 15:32N 37°34' E 121°56'35140780.1
2014-Oct-22 15:31N 31°47' E 120°54'65524563.0
2014-Oct-22 15:30N 23°04' E 113°29'648105984.1
2014-Oct-22 15:29N 31°60' E 120°20'40925839.9
2014-Oct-22 15:28N 38°44' E 121°35'104652314.8
2014-Oct-22 15:27N 22°48' E 113°21'32332.7
2014-Oct-22 15:21N 22°23' E 113°45'10031252.7
2014-Oct-22 14:33N 37°31' E 121°57'100975651.6
2014-Oct-22 14:33N 22°19' E 113°41'61486.2
2014-Oct-22 14:32N 22°20' E 113°48'68537353.3
2014-Oct-22 14:31N 31°60' E 120°38'67360592.0
2014-Oct-22 14:31N 22°51' E 113°18'66634258.4
2014-Oct-22 14:29N 31°13' E 121°30'645481.5
2014-Oct-22 14:29N 32°00' E 120°40'68118035.3
2014-Oct-22 14:26N 22°27' E 113°46'67186308.4
2014-Oct-22 14:26N 31°60' E 120°20'32201.0
2014-Oct-22 14:16N 31°47' E 120°54'1361988.0
2014-Oct-22 14:12N 29°53' E 122°22'62852580.6
2014-Oct-22 14:12N 23°04' E 113°29'6481018.2
2014-Oct-22 13:33N 31°60' E 120°20'111805.9
2014-Oct-22 13:33N 32°04' E 120°32'696139282.6
2014-Oct-22 13:33N 22°13' E 113°38'463041.0
2014-Oct-22 13:32N 22°54' E 113°14'6729227.2
2014-Oct-22 13:27N 31°47' E 120°54'181379.2
2014-Oct-22 13:27N 32°00' E 120°40'3405296.8
2014-Oct-22 13:23N 37°35' E 121°54'721094.2
2014-Oct-22 13:19N 38°44' E 121°32'405533.7
2014-Oct-22 12:33N 32°03' E 120°26'621392.7
2014-Oct-22 12:33N 31°60' E 120°20'17596.8
2014-Oct-22 12:32N 32°00' E 120°40'67533759.7
2014-Oct-22 12:30N 22°54' E 113°13'67437902.7
2014-Oct-22 12:29N 31°20' E 121°32'69512512.1
2014-Oct-22 12:26N 22°12' E 113°34'69654452.2
2014-Oct-22 12:25N 31°47' E 120°54'4372325.9
2014-Oct-22 12:14N 24°41' E 119°05'4253043.1
2014-Oct-22 12:06N 31°26' E 121°29'66122.6
2014-Oct-22 11:33N 31°59' E 120°21'41077598.5
2014-Oct-22 11:33N 38°44' E 121°35'409122750.4
2014-Oct-22 11:33N 31°60' E 120°20'325466.6
2014-Oct-22 11:32N 31°47' E 120°54'31980.8
2014-Oct-22 11:30N 31°30' E 121°26'69923964.7
2014-Oct-22 11:29N 22°12' E 113°34'531430.5
2014-Oct-22 11:26N 23°04' E 113°29'65810676.9
2014-Oct-22 11:23N 32°00' E 120°40'45095279.0
2014-Oct-22 11:22N 24°39' E 119°02'7896777.1
2014-Oct-22 11:15N 37°33' E 121°58'343489.7
2014-Oct-22 10:33N 31°60' E 120°20'51946.5
2014-Oct-22 10:33N 31°56' E 120°15'694594.4
2014-Oct-22 10:32N 31°27' E 121°28'534675.3
2014-Oct-22 10:32N 32°00' E 120°40'4066556.1
2014-Oct-22 10:28N 38°44' E 121°32'41929562.2
2014-Oct-22 10:27N 31°47' E 120°54'65510670.8
2014-Oct-22 10:23N 23°04' E 113°29'53282.0
2014-Oct-22 10:12N 22°12' E 113°34'471197.4
2014-Oct-22 10:10N 22°54' E 113°13'6751111.0
2014-Oct-22 09:33N 31°31' E 121°22'284610.7
2014-Oct-22 09:33N 31°47' E 120°54'4191507095.0
2014-Oct-22 09:33N 38°44' E 121°32'107522754.4
2014-Oct-22 09:30N 22°12' E 113°34'69070979.8
2014-Oct-22 09:30N 31°60' E 120°20'64812337.5
2014-Oct-22 09:26N 23°04' E 113°29'18777.2
2014-Oct-22 09:25N 22°54' E 113°13'19996.0
2014-Oct-22 09:24N 22°55' E 113°33'4085129.4
2014-Oct-22 09:19N 26°46' E 119°43'65818805.5
2014-Oct-22 09:17N 37°34' E 121°59'3589770.2
2014-Oct-22 09:15N 31°38' E 121°15'5174.4
2014-Oct-22 08:33N 31°60' E 120°20'487448.6
2014-Oct-22 08:33N 31°40' E 121°11'660169675.5
2014-Oct-22 08:33N 23°03' E 113°31'97683649.2
2014-Oct-22 08:32N 37°34' E 122°00'991132083.2
2014-Oct-22 08:32N 22°54' E 113°13'1861.7
2014-Oct-22 08:14N 23°04' E 113°29'53292.5
2014-Oct-22 08:04N 22°12' E 113°34'5199.7
2014-Oct-22 07:33N 23°02' E 113°23'664239131.9
2014-Oct-22 07:33N 31°43' E 121°07'35515019.3
2014-Oct-22 07:31N 37°35' E 122°04'98331594.5
2014-Oct-22 07:29N 22°55' E 113°36'663125577.2
2014-Oct-22 07:29N 31°41' E 121°10'42425856.1
2014-Oct-22 07:28N 38°44' E 121°37'4067862.3
2014-Oct-22 07:25N 31°60' E 120°49'412711.5
2014-Oct-22 07:24N 31°59' E 120°01'63879183.1
2014-Oct-22 07:24N 23°04' E 113°29'6523146.3
2014-Oct-22 07:11N 30°25' E 122°27'68727461.2
2014-Oct-22 07:10N 22°12' E 113°34'107553020.8
2014-Oct-22 07:08N 38°44' E 121°34'0 0.4
2014-Oct-22 06:34N 38°44' E 121°34'409163646.6
2014-Oct-22 06:33N 31°60' E 120°20'346103846.5
2014-Oct-22 06:33N 37°35' E 122°07'35343833.0
2014-Oct-22 06:33N 31°45' E 121°03'699419567.3
2014-Oct-22 06:33N 22°12' E 113°34'69644732.6
2014-Oct-22 06:32N 31°47' E 120°54'1141488.0
2014-Oct-22 06:27N 30°25' E 122°27'65265199.1
2014-Oct-22 06:26N 23°04' E 113°29'6596979.0
2014-Oct-22 06:21N 31°45' E 121°04'3681663.0
2014-Oct-22 06:08N 37°51' E 121°46'5495.2
2014-Oct-22 05:33N 38°44' E 121°30'539140.9
2014-Oct-22 05:33N 37°52' E 121°43'363652938.1
2014-Oct-22 05:33N 31°57' E 120°14'34989752.1
2014-Oct-22 05:33N 37°34' E 122°02'9821767512.7
2014-Oct-22 05:33N 22°56' E 113°34'44718.5
2014-Oct-22 05:29N 22°12' E 113°34'2754.0
2014-Oct-22 05:29N 22°14' E 113°35'511282.2
2014-Oct-22 05:26N 23°04' E 113°29'10279653.3
2014-Oct-22 05:20N 38°44' E 121°31'4094353.6
2014-Oct-22 05:14N 31°60' E 120°20'24249.9
2014-Oct-22 05:09N 32°05' E 119°52'1666635.8
2014-Oct-22 05:07N 30°25' E 122°27'13719790.6
2014-Oct-22 05:07N 32°05' E 120°36'0 0.8
2014-Oct-22 04:33N 32°04' E 120°36'668114487.4
2014-Oct-22 04:33N 22°51' E 113°34'656472159.6
2014-Oct-22 04:33N 31°59' E 120°20'68417976.7
2014-Oct-22 04:31N 22°17' E 113°35'471911.2
2014-Oct-22 04:29N 23°04' E 113°29'652391203.1
2014-Oct-22 04:29N 30°25' E 122°27'1621061.0
2014-Oct-22 04:20N 32°03' E 119°55'64112334.8
2014-Oct-22 04:17N 22°57' E 113°37'97511664.1
2014-Oct-22 04:12N 37°32' E 121°57'9811539.4
2014-Oct-22 03:33N 22°54' E 113°28'1035338882.6
2014-Oct-22 03:33N 38°44' E 121°29'4081468985.4
2014-Oct-22 03:33N 31°60' E 120°20'652293565.7
2014-Oct-22 03:33N 23°02' E 113°24'6552358210.0
2014-Oct-22 03:33N 32°01' E 120°23'659263640.4
2014-Oct-22 03:33N 22°51' E 113°34'65843078.9
2014-Oct-22 03:32N 30°25' E 122°27'68636311.2
2014-Oct-22 03:31N 22°11' E 113°36'6882465.3
2014-Oct-22 03:14N 31°14' E 121°29'3806741.3
2014-Oct-22 03:11N 37°34' E 121°56'3514955.8
2014-Oct-22 03:07N 31°45' E 121°03'25499.7
2014-Oct-22 03:04N 31°60' E 120°39'3162.7
2014-Oct-22 02:34N 31°58' E 120°02'204299.6
2014-Oct-22 02:33N 32°03' E 120°26'33953093.0
2014-Oct-22 02:33N 37°34' E 121°54'430193610.7
2014-Oct-22 02:33N 30°25' E 122°27'698224.2
2014-Oct-22 02:32N 31°15' E 121°33'658789368.3
2014-Oct-22 02:32N 22°57' E 113°30'4581370.2
2014-Oct-22 02:32N 22°13' E 113°40'367110121.8
2014-Oct-22 02:32N 22°33' E 120°17'56712076.5
2014-Oct-22 02:29N 31°60' E 120°20'327165.6
2014-Oct-22 02:29N 31°47' E 120°54'4193694.6
2014-Oct-22 02:22N 38°44' E 121°34'4076058.4
2014-Oct-22 02:18N 31°59' E 120°38'4126363.7
2014-Oct-22 02:14N 38°48' E 121°44'4232519.1
2014-Oct-22 02:04N 31°46' E 121°03'66582539.7
2014-Oct-22 02:04N 23°03' E 113°20'6451282.5
2014-Oct-22 01:33N 31°57' E 120°08'674808310.8
2014-Oct-22 01:33N 22°17' E 113°44'680222481.3
2014-Oct-22 01:33N 31°58' E 120°20'3927827.0
2014-Oct-22 01:33N 31°46' E 121°03'65943133.9
2014-Oct-22 01:32N 23°03' E 113°30'6579531.7
2014-Oct-22 01:28N 31°59' E 120°38'66027300.4
2014-Oct-22 01:27N 23°03' E 113°25'979440440.4
2014-Oct-22 01:26N 37°48' E 121°30'38787120.0
2014-Oct-22 01:26N 31°20' E 121°33'729984.1
2014-Oct-22 01:26N 30°25' E 122°27'1142708.2
2014-Oct-22 01:23N 31°47' E 120°54'4426.5
2014-Oct-22 01:23N 31°47' E 120°59'4182241.7
2014-Oct-22 01:12N 38°44' E 121°35'103224608.1
2014-Oct-22 01:09N 22°57' E 113°37'1017.7
2014-Oct-22 00:33N 23°04' E 113°29'655393037.0
2014-Oct-22 00:33N 31°47' E 120°54'3716568.6
2014-Oct-22 00:33N 31°57' E 120°13'2115047.7
2014-Oct-22 00:33N 32°04' E 120°36'13770608.1
2014-Oct-22 00:33N 30°25' E 122°27'44346915.8
2014-Oct-22 00:32N 37°45' E 121°20'100463382.3
2014-Oct-22 00:32N 22°22' E 113°44'4208784.5
2014-Oct-22 00:29N 26°45' E 119°43'29238985.3
2014-Oct-22 00:28N 31°23' E 121°30'66336190.8
2014-Oct-22 00:27N 22°52' E 113°34'13173.7
2014-Oct-22 00:22N 23°04' E 113°29'97212068.9
2014-Oct-22 00:18N 37°32' E 121°56'4715261.4
2014-Oct-22 00:12N 29°42' E 122°12'65312443.4
2014-Oct-22 00:09N 22°09' E 113°28'5592.6
2014-Oct-21 23:33N 23°04' E 113°29'0100.5
2014-Oct-21 23:33N 23°04' E 113°29'645774182.8
2014-Oct-21 23:33N 31°58' E 120°18'161444.0
2014-Oct-21 23:32N 32°04' E 120°36'13711494.4
2014-Oct-21 23:32N 30°25' E 122°27'13311377.0
2014-Oct-21 23:31N 31°60' E 120°38'581935.9
2014-Oct-21 23:29N 31°24' E 121°32'32210439.9
2014-Oct-21 23:27N 36°43' E 122°23'86758883.7
2014-Oct-21 23:26N 23°09' E 116°40'96817003.2
2014-Oct-21 23:23N 38°44' E 121°32'4199914.8
2014-Oct-21 23:21N 31°47' E 120°54'6636981.4
2014-Oct-21 23:15N 22°51' E 113°34'6477535.2
2014-Oct-21 23:10N 31°58' E 120°02'6381057.8
2014-Oct-21 22:34N 23°04' E 113°29'6492337181.7
2014-Oct-21 22:33N 32°00' E 120°22'12681.8
2014-Oct-21 22:32N 32°04' E 120°36'261538.0
2014-Oct-21 22:31N 31°58' E 120°06'15226056.7
2014-Oct-21 22:31N 30°25' E 122°27'126151028.6
2014-Oct-21 22:31N 31°59' E 120°49'66358174.4
2014-Oct-21 22:30N 23°04' E 113°29'949179741.9
2014-Oct-21 22:30N 36°50' E 122°28'95816271.9
2014-Oct-21 22:26N 22°51' E 113°34'62427714.6
2014-Oct-21 22:25N 29°34' E 122°24'15415796.6
2014-Oct-21 22:25N 31°47' E 120°54'483768.0
2014-Oct-21 22:24N 31°59' E 119°60'68363009.5
2014-Oct-21 22:23N 22°10' E 113°32'686829.7
2014-Oct-21 21:34N 31°57' E 120°11'145169.7
2014-Oct-21 21:33N 32°02' E 120°27'6032171671.6
2014-Oct-21 21:33N 23°04' E 115°19'60186564.4
2014-Oct-21 21:33N 31°47' E 120°54'227351.8
2014-Oct-21 21:33N 32°02' E 120°35'308158484.2
2014-Oct-21 21:33N 36°56' E 122°28'880132027.8
2014-Oct-21 21:32N 23°09' E 116°40'535192693.9
2014-Oct-21 21:32N 30°25' E 122°27'65244282.3
2014-Oct-21 21:31N 23°04' E 113°29'662238263.0
2014-Oct-21 21:31N 32°02' E 120°45'641.4
2014-Oct-21 21:22N 31°60' E 120°38'3542539.1
2014-Oct-21 21:22N 32°03' E 119°56'4407687.6
2014-Oct-21 21:19N 24°47' E 118°47'308410.4
2014-Oct-21 20:34N 23°04' E 113°30'645290145.6
2014-Oct-21 20:33N 31°58' E 120°18'645773956.6
2014-Oct-21 20:33N 23°04' E 113°29'656393422.0
2014-Oct-21 20:33N 32°02' E 120°33'13754851.5
2014-Oct-21 20:33N 30°25' E 122°27'137247021.4
2014-Oct-21 20:33N 32°01' E 120°32'2427.9
2014-Oct-21 20:33N 32°00' E 120°35'222094.9
2014-Oct-21 20:32N 31°47' E 120°54'5652911.5
2014-Oct-21 20:20N 23°10' E 116°37'57579601.1
2014-Oct-21 20:20N 32°02' E 120°45'34210814.5
2014-Oct-21 20:18N 37°39' E 121°56'9781313.4
2014-Oct-21 19:33N 23°04' E 113°30'654213976.5
2014-Oct-21 19:33N 32°02' E 120°29'2610549.6
2014-Oct-21 19:33N 31°47' E 120°54'1933922.7
2014-Oct-21 19:33N 32°00' E 120°39'1322644.8
2014-Oct-21 19:33N 32°01' E 120°24'14226895.2
2014-Oct-21 19:33N 30°25' E 122°27'65216300.6
2014-Oct-21 19:30N 23°04' E 113°29'654214131.1
2014-Oct-21 19:30N 32°02' E 120°30'69929950.9
2014-Oct-21 19:29N 22°10' E 113°32'102629783.2
2014-Oct-21 19:27N 37°38' E 121°57'10025820.4
2014-Oct-21 19:16N 22°27' E 113°53'671939.4
2014-Oct-21 18:33N 32°01' E 120°25'6597.2
2014-Oct-21 18:33N 32°02' E 120°31'13855298.8
2014-Oct-21 18:33N 30°25' E 122°27'1393188.4
2014-Oct-21 18:30N 32°02' E 120°30'4059993.1
2014-Oct-21 18:28N 38°44' E 121°27'40414263.2
2014-Oct-21 18:26N 32°02' E 120°45'17504.1
2014-Oct-21 18:24N 31°47' E 120°54'6982176.8
2014-Oct-21 18:05N 22°10' E 113°32'6921317.4
2014-Oct-21 17:33N 31°59' E 120°21'815052.5
2014-Oct-21 17:33N 32°02' E 120°30'406291987.0
2014-Oct-21 17:33N 38°44' E 121°30'1026175961.5
2014-Oct-21 17:33N 23°04' E 113°30'65751451.5
2014-Oct-21 17:32N 32°00' E 120°39'66679931.1
2014-Oct-21 17:31N 22°51' E 113°34'141035.5
2014-Oct-21 17:31N 23°04' E 113°29'65242678.1
2014-Oct-21 17:30N 30°25' E 122°27'68940023.1
2014-Oct-21 17:29N 22°10' E 113°32'10226093.3
2014-Oct-21 17:19N 37°33' E 121°58'347460.9
2014-Oct-21 16:33N 31°57' E 120°15'643105137.2
2014-Oct-21 16:33N 23°04' E 113°30'64330854.0
2014-Oct-21 16:32N 31°56' E 120°16'41333763.4
2014-Oct-21 16:31N 38°44' E 121°33'40625187.8
2014-Oct-21 16:30N 32°02' E 120°30'34247376.6
2014-Oct-21 16:30N 37°36' E 121°59'97629051.6
2014-Oct-21 16:28N 23°04' E 113°29'41580.5
2014-Oct-21 16:23N 22°27' E 113°47'27441.5
2014-Oct-21 16:20N 22°51' E 113°34'67014895.3
2014-Oct-21 16:17N 32°02' E 120°45'6724161.1
2014-Oct-21 16:07N 22°55' E 113°26'451012.4
2014-Oct-21 16:05N 22°10' E 113°32'6991328.4
2014-Oct-21 15:33N 32°02' E 120°30'6541177769.6
2014-Oct-21 15:33N 23°04' E 113°29'647387971.9
2014-Oct-21 15:33N 31°59' E 120°19'41013907.6
2014-Oct-21 15:31N 38°43' E 121°36'50036006.3
2014-Oct-21 15:30N 30°25' E 122°27'65928587.9
2014-Oct-21 15:29N 22°54' E 113°29'32868.4
2014-Oct-21 15:27N 22°27' E 113°47'419134.1
2014-Oct-21 15:27N 23°04' E 113°30'66268054.9
2014-Oct-21 15:26N 32°02' E 120°45'70612900.8
2014-Oct-21 15:23N 22°10' E 113°32'695846.5
2014-Oct-21 14:33N 32°01' E 120°24'408112848.4
2014-Oct-21 14:33N 38°44' E 121°36'97045923.9
2014-Oct-21 14:32N 22°37' E 120°14'48333447.5
2014-Oct-21 14:31N 30°25' E 122°27'11425559.8
2014-Oct-21 14:31N 31°47' E 120°54'65531855.0
2014-Oct-21 14:30N 23°04' E 113°30'543956.0
2014-Oct-21 14:29N 22°10' E 113°32'2392.3
2014-Oct-21 14:14N 22°27' E 113°49'219.5
2014-Oct-21 14:09N 22°27' E 113°47'68453562.0
2014-Oct-21 14:08N 32°02' E 120°45'6621149.4
2014-Oct-21 13:33N 23°04' E 113°29'6452321690.2
2014-Oct-21 13:33N 31°57' E 120°18'668267208.7
2014-Oct-21 13:33N 22°27' E 113°47'40657.2
2014-Oct-21 13:30N 23°04' E 113°30'16345.2
2014-Oct-21 13:27N 22°53' E 113°18'6686945.1
2014-Oct-21 13:21N 30°25' E 122°27'1302559.6
2014-Oct-21 13:18N 32°02' E 120°45'17408.0
2014-Oct-21 13:16N 31°47' E 120°54'6983496.8
2014-Oct-21 13:04N 22°10' E 113°32'6851365.0
2014-Oct-21 12:33N 31°56' E 120°11'64095973.5
2014-Oct-21 12:33N 23°04' E 113°29'656295261.4
2014-Oct-21 12:33N 31°21' E 121°31'561166.4
2014-Oct-21 12:30N 32°02' E 120°45'66295277.9
2014-Oct-21 12:30N 23°04' E 113°30'65535719.3
2014-Oct-21 12:28N 31°47' E 120°54'11417039.0
2014-Oct-21 12:28N 30°25' E 122°27'6672778.1
2014-Oct-21 12:14N 22°28' E 113°47'311124230.1
2014-Oct-21 12:14N 24°37' E 118°55'3263495.0
2014-Oct-21 12:08N 22°53' E 113°17'7104.6
2014-Oct-21 12:04N 22°55' E 113°25'1020.0
2014-Oct-21 11:33N 23°04' E 113°29'27919334.5
2014-Oct-21 11:32N 23°17' E 118°32'51192046.5
2014-Oct-21 11:32N 31°23' E 121°30'666342387.7
2014-Oct-21 11:32N 22°55' E 113°28'3223386.3
2014-Oct-21 11:32N 22°28' E 113°47'67016187.2
2014-Oct-21 11:29N 31°59' E 120°20'1443063.9
2014-Oct-21 11:26N 30°25' E 122°27'1143587.2
2014-Oct-21 11:24N 31°47' E 120°54'67210756.0
2014-Oct-21 11:21N 22°49' E 113°20'67912860.2
2014-Oct-21 11:18N 31°59' E 120°48'6612380724.0
2014-Oct-21 11:18N 23°04' E 113°30'18411.4
2014-Oct-21 11:15N 22°54' E 113°13'9915044.5
2014-Oct-21 11:03N 37°35' E 121°57'9751938.2
2014-Oct-21 10:33N 23°04' E 113°29'655262024.6
2014-Oct-21 10:33N 31°47' E 120°54'3642999.2
2014-Oct-21 10:33N 31°26' E 121°29'66631147.3
2014-Oct-21 10:31N 22°53' E 113°32'4733598.9
2014-Oct-21 10:31N 22°06' E 113°34'102516330.4
2014-Oct-21 10:28N 37°33' E 121°58'97458427.6
2014-Oct-21 10:27N 23°04' E 113°30'65278202.9
2014-Oct-21 10:26N 30°25' E 122°27'66796010.5
2014-Oct-21 10:26N 22°28' E 113°47'68424609.9
2014-Oct-21 10:24N 32°02' E 120°45'38676.3
2014-Oct-21 10:21N 32°00' E 119°60'67611370.7
2014-Oct-21 10:17N 22°17' E 113°35'6883647.9
2014-Oct-21 10:06N 32°01' E 120°25'2 3.8
2014-Oct-21 09:34N 32°02' E 120°27'661793411.8
2014-Oct-21 09:33N 22°52' E 113°33'13987.5
2014-Oct-21 09:33N 23°04' E 113°29'65263437.1
2014-Oct-21 09:32N 30°25' E 122°27'15422142.5
2014-Oct-21 09:32N 31°58' E 120°04'661476272.5
2014-Oct-21 09:32N 22°28' E 113°47'67617636.9
2014-Oct-21 09:29N 31°47' E 120°54'69310141.2
2014-Oct-21 09:25N 22°14' E 113°36'29717.9
2014-Oct-21 09:23N 22°42' E 113°29'99193882.4
2014-Oct-21 09:22N 37°31' E 121°57'79631149.6
2014-Oct-21 09:21N 24°32' E 118°42'1342880.3
2014-Oct-21 09:18N 22°37' E 117°28'703537.1
2014-Oct-21 09:17N 23°14' E 118°32'2788013.0
2014-Oct-21 09:15N 23°04' E 113°30'41308.4
2014-Oct-21 09:07N 22°27' E 113°48'68411556.5
2014-Oct-21 09:03N 32°02' E 120°45'6621346.9
2014-Oct-21 08:34N 23°04' E 113°29'135675.4
2014-Oct-21 08:33N 22°52' E 113°33'298214770.1
2014-Oct-21 08:33N 24°25' E 118°42'467560262.6
2014-Oct-21 08:33N 32°02' E 120°31'67714868.1
2014-Oct-21 08:31N 22°28' E 113°47'66722223.4
2014-Oct-21 08:29N 30°25' E 122°27'53813184.3
2014-Oct-21 08:26N 22°38' E 117°27'57750662.1
2014-Oct-21 08:26N 31°57' E 120°11'291135.3
2014-Oct-21 08:24N 32°02' E 120°45'68413452.2
2014-Oct-21 08:21N 22°27' E 113°48'41385.1
2014-Oct-21 08:15N 23°04' E 113°30'2838208.9
2014-Oct-21 08:13N 23°14' E 118°37'5277801.6
2014-Oct-21 08:08N 31°47' E 120°54'114190.9
2014-Oct-21 07:33N 30°25' E 122°27'114102229.9
2014-Oct-21 07:33N 31°47' E 120°54'65584222.2
2014-Oct-21 07:32N 23°04' E 113°29'4210688.9
2014-Oct-21 07:32N 22°27' E 113°48'68420861.7
2014-Oct-21 07:30N 32°02' E 120°45'1591778.2
2014-Oct-21 07:25N 29°42' E 122°12'6156249.4
2014-Oct-21 07:19N 23°04' E 113°29'28485109.1
2014-Oct-21 07:19N 23°15' E 118°37'2792777.8
2014-Oct-21 07:13N 22°55' E 113°35'17123.7
2014-Oct-21 07:04N 22°53' E 113°17'6711301.0
2014-Oct-21 06:33N 32°04' E 120°28'65669409.1
2014-Oct-21 06:33N 23°04' E 113°29'58105027.0
2014-Oct-21 06:33N 22°06' E 113°34'69154066.4
2014-Oct-21 06:32N 30°25' E 122°27'6529096.6
2014-Oct-21 06:28N 23°04' E 113°29'6558332.6
2014-Oct-21 06:23N 31°47' E 120°54'5392598.3
2014-Oct-21 06:11N 23°23' E 117°18'2062981.4
2014-Oct-21 06:06N 22°55' E 113°35'6541188.8
2014-Oct-21 05:33N 30°25' E 122°27'6522347028.2
2014-Oct-21 05:33N 23°04' E 113°29'655157166.6
2014-Oct-21 05:33N 31°60' E 120°34'67820325.2
2014-Oct-21 05:31N 22°27' E 113°48'41734.7
2014-Oct-21 05:28N 23°04' E 113°29'541730.8
2014-Oct-21 05:26N 22°11' E 113°34'22393.3
2014-Oct-21 05:22N 22°24' E 113°54'35523.1
2014-Oct-21 05:18N 22°55' E 113°35'436.2
2014-Oct-21 05:12N 22°51' E 113°34'1421.1
2014-Oct-21 04:33N 23°04' E 113°29'65229338.0
2014-Oct-21 04:32N 30°25' E 122°27'68925579.8
2014-Oct-21 04:30N 22°10' E 113°32'4532096.8
2014-Oct-21 04:30N 22°55' E 113°35'11257.1
2014-Oct-21 04:28N 23°04' E 113°29'45500.8
2014-Oct-21 04:22N 22°21' E 113°43'674814.3
2014-Oct-21 03:33N 30°25' E 122°27'65698365.3
2014-Oct-21 03:32N 23°03' E 113°25'48495.9
2014-Oct-21 03:27N 22°17' E 113°40'99133345.0
2014-Oct-21 03:25N 36°55' E 122°28'9598898.3
2014-Oct-21 03:18N 22°55' E 113°35'322.0
2014-Oct-21 03:10N 22°52' E 113°34'13132.9
2014-Oct-21 03:04N 23°04' E 113°29'6551296.9
2014-Oct-21 02:33N 32°01' E 120°32'138165117.4
2014-Oct-21 02:33N 30°25' E 122°27'68460097.9
2014-Oct-21 02:33N 22°12' E 113°37'69625307.8
2014-Oct-21 02:31N 32°04' E 120°28'656117991.0
2014-Oct-21 02:31N 23°04' E 113°29'11131.2
2014-Oct-21 02:26N 22°56' E 113°36'66224070.3
2014-Oct-21 02:24N 31°30' E 121°26'32332.7
2014-Oct-21 02:19N 31°47' E 120°54'0 0.0
2014-Oct-21 01:33N 31°47' E 120°54'293451.8
2014-Oct-21 01:33N 32°04' E 120°28'676172.5
2014-Oct-21 01:32N 31°25' E 121°31'698167442.2
2014-Oct-21 01:32N 22°12' E 113°34'529932.0
2014-Oct-21 01:32N 23°04' E 113°29'652782306.4
2014-Oct-21 01:32N 30°25' E 122°27'142422.5
2014-Oct-21 01:12N 32°01' E 120°24'2944.9
2014-Oct-21 00:33N 31°47' E 120°54'11451111.1
2014-Oct-21 00:33N 30°25' E 122°27'1428391.6
2014-Oct-21 00:32N 32°04' E 120°28'671827.9
2014-Oct-21 00:30N 31°21' E 121°27'9428235.1
2014-Oct-21 00:29N 29°57' E 122°15'626125274.4
2014-Oct-21 00:29N 23°04' E 113°29'652703.2
2014-Oct-20 23:33N 30°25' E 122°27'142170665.2
2014-Oct-20 23:33N 32°04' E 120°28'698193219.9
2014-Oct-20 23:33N 22°12' E 113°35'69689471.1
2014-Oct-20 23:33N 31°47' E 120°54'6602376989.9
2014-Oct-20 23:33N 23°02' E 113°23'633325559.7
2014-Oct-20 23:33N 29°55' E 122°19'976235.0
2014-Oct-20 23:32N 31°21' E 121°27'673161634.6
2014-Oct-20 23:31N 22°27' E 113°48'678695.7
2014-Oct-20 22:33N 32°04' E 120°28'14263999.4
2014-Oct-20 22:33N 30°25' E 122°27'11429216.3
2014-Oct-20 22:33N 31°47' E 120°54'69617390.4
2014-Oct-20 22:30N 22°11' E 113°36'19500.9
2014-Oct-20 22:28N 22°27' E 113°48'67386590.0
2014-Oct-20 22:27N 31°21' E 121°27'6624421.1
2014-Oct-20 22:18N 22°51' E 113°34'664885.2
2014-Oct-20 21:33N 32°04' E 120°28'14236571.1
2014-Oct-20 21:33N 30°25' E 122°27'65828203.4
2014-Oct-20 21:32N 22°51' E 113°34'66214442.9
2014-Oct-20 21:29N 31°21' E 121°27'69380477.6
2014-Oct-20 21:28N 22°11' E 113°36'6817571.1
2014-Oct-20 21:23N 31°58' E 120°05'66230170.3
2014-Oct-20 21:22N 22°27' E 113°48'1642729.3
2014-Oct-20 21:18N 23°09' E 116°40'15418421.3
2014-Oct-20 21:18N 24°09' E 119°14'448610.0
2014-Oct-20 20:34N 31°21' E 121°27'677482.4
2014-Oct-20 20:33N 32°04' E 120°28'173184.1
2014-Oct-20 20:33N 31°57' E 120°10'48883642.4
2014-Oct-20 20:32N 23°58' E 118°22'2854303.6
2014-Oct-20 20:28N 22°11' E 113°36'191894.2
2014-Oct-20 20:28N 22°27' E 113°48'66724241.1
2014-Oct-20 20:26N 30°25' E 122°27'5356375.0
2014-Oct-20 20:21N 23°09' E 116°40'154718.2
2014-Oct-20 20:08N 24°11' E 119°14'478827.6
2014-Oct-20 19:34N 32°04' E 120°28'121450.1
2014-Oct-20 19:33N 31°57' E 120°17'47299898.5
2014-Oct-20 19:33N 24°09' E 119°14'41324801.7
2014-Oct-20 19:32N 30°25' E 122°27'766512.5
2014-Oct-20 19:31N 31°21' E 121°27'6931548.7
2014-Oct-20 19:04N 22°11' E 113°36'6921332.1
2014-Oct-20 18:33N 32°00' E 120°24'6968.4
2014-Oct-20 18:33N 32°04' E 120°28'6717103.6
2014-Oct-20 18:32N 31°21' E 121°27'766512.5
2014-Oct-20 18:32N 30°25' E 122°27'6555680.7
2014-Oct-20 18:25N 22°54' E 113°35'64740882.6
2014-Oct-20 18:24N 32°07' E 119°55'6852072.0
2014-Oct-20 18:04N 22°11' E 113°36'6861343.8
2014-Oct-20 17:33N 30°25' E 122°27'7639072.8
2014-Oct-20 17:33N 31°21' E 121°27'674517.7
2014-Oct-20 17:32N 32°04' E 120°28'44809.4
2014-Oct-20 17:32N 32°02' E 120°31'681612786.0
2014-Oct-20 17:32N 22°24' E 113°46'342126.5
2014-Oct-20 17:31N 22°57' E 113°38'66410726.0
2014-Oct-20 17:28N 31°59' E 120°51'48515717.3
2014-Oct-20 17:26N 24°02' E 119°14'3303064.9
2014-Oct-20 17:19N 22°11' E 113°36'68187518.5
2014-Oct-20 17:19N 32°00' E 119°59'64712253.5
2014-Oct-20 17:16N 22°51' E 113°34'6675372.0
2014-Oct-20 17:08N 31°27' E 121°29'4 6.1
2014-Oct-20 16:33N 31°24' E 121°32'8237063.7
2014-Oct-20 16:33N 31°58' E 120°03'224341.2
2014-Oct-20 16:33N 32°04' E 120°28'696104376.3
2014-Oct-20 16:32N 22°12' E 113°38'68439085.6
2014-Oct-20 16:31N 30°25' E 122°27'764483.8
2014-Oct-20 16:30N 31°21' E 121°27'565171.3
2014-Oct-20 16:30N 32°00' E 120°40'48228936.3
2014-Oct-20 16:29N 24°04' E 119°14'320115089.8
2014-Oct-20 16:29N 22°53' E 113°34'361029.0
2014-Oct-20 16:26N 22°17' E 113°40'35951.1
2014-Oct-20 16:24N 22°51' E 113°34'418.3
2014-Oct-20 16:11N 22°55' E 113°35'6581047.7
2014-Oct-20 15:33N 31°21' E 121°27'6723945.0
2014-Oct-20 15:33N 32°04' E 120°28'1611828.6
2014-Oct-20 15:33N 31°57' E 120°11'67693646.0
2014-Oct-20 15:33N 22°15' E 113°43'7408.0
2014-Oct-20 15:32N 22°12' E 113°36'401181.5
2014-Oct-20 15:30N 22°51' E 113°34'65844705.3
2014-Oct-20 15:29N 30°25' E 122°27'6546847.5
2014-Oct-20 15:23N 22°55' E 113°35'66642079.5
2014-Oct-20 15:22N 32°02' E 120°45'4154.0
2014-Oct-20 15:20N 32°00' E 120°49'1923.3
2014-Oct-20 14:33N 32°04' E 120°28'68520726.0
2014-Oct-20 14:31N 22°21' E 113°45'68022067.6
2014-Oct-20 14:29N 31°21' E 121°27'69312666.3
2014-Oct-20 14:26N 22°12' E 113°34'697801.2
2014-Oct-20 13:34N 32°04' E 120°28'677482.4
2014-Oct-20 13:33N 31°21' E 121°27'541652.3
2014-Oct-20 13:31N 32°02' E 120°45'6664855.3
2014-Oct-20 13:23N 22°55' E 113°35'43826.5
2014-Oct-20 13:20N 22°12' E 113°34'6983313.5
2014-Oct-20 13:07N 31°48' E 120°56'2952.1
2014-Oct-20 12:33N 32°04' E 120°28'673069.5
2014-Oct-20 12:32N 31°21' E 121°27'69392443.5
2014-Oct-20 12:32N 22°12' E 113°35'69675977.7
2014-Oct-20 12:31N 31°47' E 120°55'6775611.8
2014-Oct-20 12:24N 22°28' E 113°47'4415725.3
2014-Oct-20 12:24N 23°03' E 113°19'659131899.4
2014-Oct-20 12:23N 30°25' E 122°27'656786.2
2014-Oct-20 11:33N 23°03' E 113°25'65984684.5
2014-Oct-20 11:33N 32°04' E 120°28'69854587.0
2014-Oct-20 11:32N 22°11' E 113°35'69259327.3
2014-Oct-20 11:31N 31°21' E 121°27'37742.5
2014-Oct-20 11:28N 31°47' E 120°55'113916.9
2014-Oct-20 11:21N 30°25' E 122°27'1442027.6
2014-Oct-20 11:17N 31°58' E 120°18'3 4.4
2014-Oct-20 10:33N 31°60' E 120°22'76236.2
2014-Oct-20 10:33N 32°04' E 120°28'655786570.4
2014-Oct-20 10:33N 23°04' E 113°29'65749256.6
2014-Oct-20 10:33N 32°04' E 120°30'651709.4
2014-Oct-20 10:30N 31°21' E 121°27'541388.4
2014-Oct-20 10:28N 32°02' E 120°45'17233.2
2014-Oct-20 10:23N 31°47' E 120°55'34128.7
2014-Oct-20 10:07N 31°57' E 120°17'2 4.1
2014-Oct-20 09:33N 31°57' E 120°14'1113674.8
2014-Oct-20 09:33N 32°02' E 120°26'32592.3
2014-Oct-20 09:33N 32°04' E 120°28'122994.6
2014-Oct-20 09:33N 31°57' E 120°17'342697.3
2014-Oct-20 09:32N 31°47' E 120°55'696227841.4
2014-Oct-20 09:32N 22°11' E 113°35'532778.6
2014-Oct-20 09:31N 23°04' E 113°29'65433139.7
2014-Oct-20 09:30N 31°21' E 121°27'764031.3
2014-Oct-20 09:29N 30°25' E 122°27'6664080.1
2014-Oct-20 09:19N 22°27' E 113°49'670883.7
2014-Oct-20 08:33N 31°59' E 120°20'43281.5
2014-Oct-20 08:33N 31°57' E 120°17'1315845.2
2014-Oct-20 08:33N 32°02' E 120°32'6237353.9
2014-Oct-20 08:33N 31°21' E 121°27'668515.5
2014-Oct-20 08:33N 32°04' E 120°28'1428532.8
2014-Oct-20 08:32N 30°25' E 122°27'6843507.5
2014-Oct-20 08:20N 22°12' E 113°38'531192.3
2014-Oct-20 08:17N 23°04' E 113°30'66211563.5
2014-Oct-20 08:14N 32°02' E 120°45'17286.1
2014-Oct-20 08:10N 31°47' E 120°55'6551063.9
2014-Oct-20 07:33N 23°04' E 113°30'5122825.1
2014-Oct-20 07:33N 22°14' E 113°41'681408677.6
2014-Oct-20 07:33N 31°57' E 120°17'125989.1
2014-Oct-20 07:33N 32°04' E 120°28'19316174.9
2014-Oct-20 07:32N 29°31' E 122°45'165296817.5
2014-Oct-20 07:32N 31°47' E 120°55'372556.6
2014-Oct-20 07:31N 31°21' E 121°27'33813681.3
2014-Oct-20 07:30N 36°55' E 122°29'390998.4
2014-Oct-20 07:06N 30°25' E 122°27'6521182.4
2014-Oct-20 06:33N 23°04' E 113°30'951428061.0
2014-Oct-20 06:33N 36°53' E 122°27'305219811.9
2014-Oct-20 06:33N 32°04' E 120°28'1428127.6
2014-Oct-20 06:32N 30°25' E 122°27'764284.3
2014-Oct-20 06:31N 31°21' E 121°27'371772.2
2014-Oct-20 06:30N 31°47' E 120°55'685107242.7
2014-Oct-20 06:29N 22°19' E 113°44'8310.7
2014-Oct-20 06:28N 22°27' E 113°47'97342724.3
2014-Oct-20 06:26N 36°48' E 122°28'9573987.1
2014-Oct-20 06:12N 22°51' E 113°34'6691038.0
2014-Oct-20 05:33N 32°01' E 120°43'2340844.0
2014-Oct-20 05:33N 31°57' E 120°17'318286361.8
2014-Oct-20 05:33N 36°54' E 122°37'316162296.6
2014-Oct-20 05:33N 31°59' E 120°20'6911769.7
2014-Oct-20 05:33N 31°21' E 121°27'6611353.3
2014-Oct-20 05:32N 32°04' E 120°28'142170665.2
2014-Oct-20 05:32N 30°25' E 122°27'1131711.3
2014-Oct-20 05:28N 31°47' E 120°55'6775959.9
2014-Oct-20 05:22N 22°27' E 113°47'1 4.0
2014-Oct-20 05:05N 22°27' E 113°48'6781299.3
2014-Oct-20 04:33N 32°04' E 120°28'655471867.0
2014-Oct-20 04:33N 23°04' E 113°30'6531175169.6
2014-Oct-20 04:33N 32°02' E 120°27'14139143.3
2014-Oct-20 04:33N 30°25' E 122°27'13066944.6
2014-Oct-20 04:33N 32°02' E 120°45'542525.9
2014-Oct-20 04:32N 31°21' E 121°27'673346232.6
2014-Oct-20 04:32N 22°27' E 113°47'67716813.5
2014-Oct-20 04:29N 31°47' E 120°55'11148.7
2014-Oct-20 04:25N 31°58' E 120°52'6672583.0
2014-Oct-20 04:09N 22°55' E 113°35'6601111.6
2014-Oct-20 03:33N 32°04' E 120°28'655393219.6
2014-Oct-20 03:33N 23°04' E 113°30'467821.2
2014-Oct-20 03:33N 22°20' E 113°42'693356195.4
2014-Oct-20 03:33N 32°02' E 120°45'5432415.2
2014-Oct-20 03:33N 31°21' E 121°27'661132222.6
2014-Oct-20 03:33N 22°51' E 113°34'28808.1
2014-Oct-20 03:30N 22°27' E 113°47'66854627.1
2014-Oct-20 03:30N 30°25' E 122°27'1167476.3
2014-Oct-20 03:29N 31°50' E 120°54'201076.8
2014-Oct-20 03:28N 32°01' E 120°35'23293.7
2014-Oct-20 03:23N 31°47' E 120°55'1 9.6
2014-Oct-20 03:17N 31°47' E 120°54'6 8.8
2014-Oct-20 02:33N 31°47' E 121°02'6592372487.5
2014-Oct-20 02:33N 23°04' E 113°29'652782283.9
2014-Oct-20 02:33N 30°25' E 122°27'763188.1
2014-Oct-20 02:32N 31°21' E 121°27'68855003.0
2014-Oct-20 02:31N 22°15' E 113°39'69530533.4
2014-Oct-20 02:30N 31°45' E 121°06'25510.7
2014-Oct-20 02:27N 32°02' E 120°45'182256.0
2014-Oct-20 02:26N 31°47' E 120°55'50528.0
2014-Oct-20 02:21N 32°01' E 119°59'681860.7
2014-Oct-20 01:33N 22°12' E 113°34'698279174.1
2014-Oct-20 01:33N 32°04' E 120°29'14184857.1
2014-Oct-20 01:33N 30°25' E 122°27'652117342.6
2014-Oct-20 01:33N 23°04' E 113°29'660215909.8
2014-Oct-20 01:33N 31°42' E 121°10'66518704.9
2014-Oct-20 01:30N 23°02' E 113°22'66133528.6
2014-Oct-20 01:29N 31°22' E 121°29'82296760.9
2014-Oct-20 01:29N 31°58' E 120°02'25250.2
2014-Oct-20 01:23N 32°01' E 120°32'6639783.5
2014-Oct-20 01:19N 22°51' E 113°34'17223769.9
2014-Oct-20 01:19N 23°09' E 116°39'5653596.9
2014-Oct-20 01:09N 31°47' E 120°54'677187473.4
2014-Oct-20 01:09N 22°27' E 113°46'9921669.0
2014-Oct-20 00:33N 37°42' E 121°10'44179414.0
2014-Oct-20 00:33N 30°25' E 122°27'7533967.0
2014-Oct-20 00:33N 31°22' E 121°29'64231502.7
2014-Oct-20 00:33N 32°04' E 120°32'66333157.7
2014-Oct-20 00:32N 22°56' E 113°30'661264231.0
2014-Oct-20 00:32N 32°01' E 120°32'570513035.5
2014-Oct-20 00:32N 23°09' E 116°39'56478116.4
2014-Oct-20 00:31N 31°37' E 121°17'70033598.3
2014-Oct-20 00:30N 22°11' E 113°34'69719001.3
2014-Oct-20 00:28N 31°47' E 120°55'65628788.4
2014-Oct-20 00:26N 23°04' E 113°29'6553148.7
2014-Oct-20 00:14N 31°47' E 120°54'171213.4
2014-Oct-20 00:13N 32°02' E 120°45'6855563.5
2014-Oct-20 00:06N 22°27' E 113°47'6781266.0
2014-Oct-19 23:33N 32°01' E 120°32'2421723.1
2014-Oct-19 23:33N 31°47' E 120°54'35764233.7
2014-Oct-19 23:33N 37°43' E 121°20'35732106.4
2014-Oct-19 23:32N 31°47' E 120°55'11311000.8
2014-Oct-19 23:32N 30°25' E 122°27'75271752.2
2014-Oct-19 23:32N 31°22' E 121°29'69586242.3
2014-Oct-19 23:31N 22°12' E 113°34'21337.7
2014-Oct-19 23:28N 22°28' E 113°48'40544.2
2014-Oct-19 23:23N 23°04' E 113°29'111523.2
2014-Oct-19 23:23N 22°54' E 113°24'67210570.0
2014-Oct-19 23:19N 32°02' E 120°45'46486.8
2014-Oct-19 23:13N 31°31' E 121°24'56214149.2
2014-Oct-19 23:11N 23°09' E 116°39'561892.3
2014-Oct-19 22:33N 31°28' E 121°28'343823.6
2014-Oct-19 22:33N 31°47' E 120°54'418753238.2
2014-Oct-19 22:33N 38°44' E 121°31'6172748.0
2014-Oct-19 22:33N 37°43' E 121°30'34625915.9
2014-Oct-19 22:32N 32°00' E 120°40'13222604.5
2014-Oct-19 22:31N 30°25' E 122°27'1388394.0
2014-Oct-19 22:30N 32°01' E 120°32'69759710.4
2014-Oct-19 22:30N 22°11' E 113°35'69719140.5
2014-Oct-19 22:28N 31°47' E 120°55'65628442.2
2014-Oct-19 22:26N 23°04' E 113°29'14454.1
2014-Oct-19 22:24N 22°51' E 113°34'9831155.8
2014-Oct-19 21:33N 37°43' E 121°32'358644484.2
2014-Oct-19 21:33N 31°47' E 120°55'1162.3
2014-Oct-19 21:33N 31°47' E 120°54'11425553.0
2014-Oct-19 21:33N 30°25' E 122°27'796281.0
2014-Oct-19 21:32N 31°26' E 121°29'66612624.1
2014-Oct-19 21:29N 22°51' E 113°34'66685618.3
2014-Oct-19 21:28N 31°24' E 121°31'697278820.3
2014-Oct-19 21:28N 22°11' E 113°35'69655717.5
2014-Oct-19 21:27N 32°01' E 120°32'6559099.1
2014-Oct-19 21:23N 23°04' E 113°29'6626406.6
2014-Oct-19 21:17N 32°02' E 120°45'24184.1
2014-Oct-19 21:09N 31°58' E 120°17'3456.4
2014-Oct-19 20:33N 31°47' E 120°54'3581290528.4
2014-Oct-19 20:33N 37°43' E 121°36'985506439.0
2014-Oct-19 20:33N 22°51' E 113°34'670172381.8
2014-Oct-19 20:33N 32°02' E 120°45'13042619.9
2014-Oct-19 20:33N 30°25' E 122°27'1449630.7
2014-Oct-19 20:32N 31°56' E 120°16'141614.0
2014-Oct-19 20:31N 32°01' E 120°32'69616941.3
2014-Oct-19 20:29N 22°11' E 113°35'69619432.8
2014-Oct-19 20:27N 31°47' E 120°55'49659497.7
2014-Oct-19 20:26N 23°52' E 118°14'2665200.1
2014-Oct-19 20:23N 23°04' E 113°29'102715868.5
2014-Oct-19 20:19N 38°43' E 121°35'116451.4
2014-Oct-19 20:04N 36°53' E 122°26'316625.2
2014-Oct-19 19:33N 31°47' E 120°54'359107709.2
2014-Oct-19 19:33N 37°44' E 121°32'442122278.5
2014-Oct-19 19:33N 30°25' E 122°27'13058604.4
2014-Oct-19 19:33N 32°02' E 120°45'3011816.1
2014-Oct-19 19:33N 31°56' E 120°11'3181143781.4
2014-Oct-19 19:33N 36°53' E 122°28'9961194781.8
2014-Oct-19 19:33N 22°11' E 113°35'69627547.6
2014-Oct-19 19:31N 31°47' E 120°55'252884.6
2014-Oct-19 19:31N 32°01' E 120°32'663149202.6
2014-Oct-19 19:30N 22°51' E 113°34'14195.8
2014-Oct-19 19:26N 23°04' E 113°29'655744.6
2014-Oct-19 18:33N 31°47' E 120°54'359143587.2
2014-Oct-19 18:33N 37°45' E 121°27'35944549.6
2014-Oct-19 18:33N 31°47' E 120°55'696835617.0
2014-Oct-19 18:33N 22°11' E 113°35'69696437.7
2014-Oct-19 18:32N 32°01' E 120°32'11281.6
2014-Oct-19 18:30N 32°02' E 120°45'34311.4
2014-Oct-19 18:23N 31°57' E 120°06'638135157.9
2014-Oct-19 18:23N 23°04' E 113°29'2731121.8
2014-Oct-19 18:09N 23°55' E 118°21'2715699.1
2014-Oct-19 18:06N 22°52' E 113°34'6621235.0
2014-Oct-19 17:34N 31°47' E 120°54'35999443.7
2014-Oct-19 17:33N 37°45' E 121°29'35999419.4
2014-Oct-19 17:33N 31°47' E 120°55'696139271.5
2014-Oct-19 17:33N 22°11' E 113°35'4478420.4
2014-Oct-19 17:33N 22°55' E 113°35'187.8
2014-Oct-19 17:32N 22°56' E 113°36'6588970.4
2014-Oct-19 17:27N 32°01' E 120°31'65530212.7
2014-Oct-19 17:26N 23°04' E 113°29'65227614.6
2014-Oct-19 17:25N 30°25' E 122°27'1315955.8
2014-Oct-19 17:23N 32°02' E 120°45'371316.9
2014-Oct-19 17:22N 31°58' E 120°02'581384.7
2014-Oct-19 17:19N 31°42' E 121°08'28124.8
2014-Oct-19 17:06N 32°02' E 120°45'67016875.7
2014-Oct-19 17:04N 22°51' E 113°34'6631320.3
2014-Oct-19 16:33N 32°01' E 120°31'255255.8
2014-Oct-19 16:33N 31°47' E 120°55'696139274.3
2014-Oct-19 16:33N 22°11' E 113°35'69620041.7
2014-Oct-19 16:31N 31°47' E 120°54'35921886.1
2014-Oct-19 16:30N 37°44' E 121°34'36031594.3
2014-Oct-19 16:29N 31°45' E 121°05'6619180.8
2014-Oct-19 16:25N 22°57' E 113°38'103013736.0
2014-Oct-19 16:20N 38°43' E 121°32'5002333.4
2014-Oct-19 16:07N 30°25' E 122°27'1305390.2
2014-Oct-19 16:06N 32°02' E 120°45'1832.1
2014-Oct-19 15:33N 31°47' E 120°55'185739.3
2014-Oct-19 15:33N 32°02' E 120°45'40327393.3
2014-Oct-19 15:32N 38°43' E 121°29'40515682.8
2014-Oct-19 15:31N 32°01' E 120°31'638096.7
2014-Oct-19 15:30N 31°24' E 121°31'697100312.5
2014-Oct-19 15:30N 22°11' E 113°35'421105.8
2014-Oct-19 15:27N 22°54' E 113°31'11552.7
2014-Oct-19 15:26N 23°04' E 113°29'65529483.3
2014-Oct-19 15:25N 31°47' E 120°54'67311825.6
2014-Oct-19 15:21N 22°19' E 114°08'100337237.8
2014-Oct-19 15:20N 37°43' E 121°39'9781264.4
2014-Oct-19 14:33N 22°60' E 113°31'979881135.3
2014-Oct-19 14:33N 37°42' E 121°42'102252559.0
2014-Oct-19 14:32N 22°11' E 113°36'69545516.9
2014-Oct-19 14:31N 31°47' E 120°54'17825.1
2014-Oct-19 14:30N 32°02' E 120°45'542102.0
2014-Oct-19 14:28N 31°22' E 121°28'624550.7
2014-Oct-19 14:28N 32°01' E 120°32'66015953.6
2014-Oct-19 14:25N 23°03' E 113°20'65928929.2
2014-Oct-19 14:24N 30°25' E 122°27'65269037.6
2014-Oct-19 14:23N 23°04' E 113°29'14146.0
2014-Oct-19 14:18N 22°51' E 113°34'6536736.3
2014-Oct-19 14:12N 31°57' E 120°17'64713300.2
2014-Oct-19 14:09N 22°57' E 113°37'9791653.2
2014-Oct-19 13:33N 37°43' E 121°38'354159203.3
2014-Oct-19 13:33N 31°56' E 120°15'68048973.6
2014-Oct-19 13:32N 22°14' E 113°40'69245295.9
2014-Oct-19 13:31N 32°01' E 120°32'627432.9
2014-Oct-19 13:31N 31°22' E 121°28'65678720.3
2014-Oct-19 13:30N 23°05' E 113°26'654117641.3
2014-Oct-19 13:30N 30°25' E 122°27'6529946.0
2014-Oct-19 13:26N 23°04' E 113°29'6559003.0
2014-Oct-19 13:22N 31°47' E 120°54'66313567.6
2014-Oct-19 13:19N 22°51' E 113°34'66470280.4
2014-Oct-19 13:18N 31°47' E 120°55'18447.7
2014-Oct-19 13:16N 32°02' E 120°45'66436766.4
2014-Oct-19 13:15N 22°57' E 113°37'10125.6
2014-Oct-19 13:10N 23°04' E 113°30'4879.2
2014-Oct-19 12:34N 22°17' E 113°44'1012227781.8
2014-Oct-19 12:33N 37°44' E 121°33'3591292359.2
2014-Oct-19 12:33N 31°47' E 120°55'674161852.6
2014-Oct-19 12:33N 22°18' E 114°08'1056253506.5
2014-Oct-19 12:33N 38°44' E 121°29'41339121.5
2014-Oct-19 12:32N 31°56' E 120°07'774061.2
2014-Oct-19 12:31N 31°22' E 121°28'621581.4
2014-Oct-19 12:29N 32°01' E 120°32'69173174.9
2014-Oct-19 12:28N 22°15' E 113°40'511646.8
2014-Oct-19 12:26N 23°04' E 113°29'0 0.8
2014-Oct-19 12:19N 23°04' E 113°29'6525458.2
2014-Oct-19 12:12N 30°25' E 122°27'1141919.3
2014-Oct-19 12:09N 31°47' E 120°54'114194.1
2014-Oct-19 11:33N 30°25' E 122°27'445228779.0
2014-Oct-19 11:33N 37°47' E 121°30'1018229021.2
2014-Oct-19 11:33N 22°11' E 113°48'1913822.9
2014-Oct-19 11:33N 22°18' E 114°08'674242612.9
2014-Oct-19 11:33N 31°47' E 120°54'65865821.0
2014-Oct-19 11:32N 22°56' E 113°36'65751424.6
2014-Oct-19 11:31N 31°22' E 121°28'68054396.6
2014-Oct-19 11:31N 22°22' E 113°44'683204964.4
2014-Oct-19 11:30N 32°01' E 120°32'25255.9
2014-Oct-19 11:25N 31°47' E 120°55'6564047.8
2014-Oct-19 11:15N 23°04' E 113°30'66319721.7
2014-Oct-19 11:13N 31°59' E 120°51'6634589.5
2014-Oct-19 11:04N 23°04' E 113°30'9761872.8
2014-Oct-19 10:33N 37°50' E 121°25'36419292.2
2014-Oct-19 10:32N 31°47' E 120°54'383160.3
2014-Oct-19 10:31N 31°22' E 121°28'662625.8
2014-Oct-19 10:30N 32°02' E 120°27'293444.8
2014-Oct-19 10:29N 31°47' E 120°55'65643701.9
2014-Oct-19 10:28N 23°04' E 113°30'66017595.8
2014-Oct-19 10:26N 32°00' E 120°43'13031190.9
2014-Oct-19 10:26N 30°25' E 122°27'66112330.1
2014-Oct-19 10:23N 22°18' E 114°08'68268198.4
2014-Oct-19 10:22N 32°02' E 120°45'6624774.2
2014-Oct-19 10:14N 23°04' E 113°30'646965.6
2014-Oct-19 09:33N 31°59' E 120°19'310367.7
2014-Oct-19 09:33N 31°60' E 120°22'30822.8
2014-Oct-19 09:31N 31°47' E 120°54'3867945.8
2014-Oct-19 09:31N 31°22' E 121°28'582240.6
2014-Oct-19 09:30N 31°60' E 120°36'2174517.9
2014-Oct-19 09:30N 31°47' E 120°55'65539328.2
2014-Oct-19 09:29N 23°04' E 113°30'66258105.9
2014-Oct-19 09:28N 32°02' E 120°45'68268193.7
2014-Oct-19 09:27N 22°18' E 114°08'10597428.5
2014-Oct-19 09:19N 38°44' E 121°36'6482.4
2014-Oct-19 08:32N 37°43' E 121°13'343137382.9
2014-Oct-19 08:32N 32°01' E 120°31'2514847.3
2014-Oct-19 08:32N 31°47' E 120°54'333653.8
2014-Oct-19 08:32N 31°57' E 120°17'6292.8
2014-Oct-19 08:30N 32°01' E 120°22'64917319.6
2014-Oct-19 08:28N 23°04' E 113°30'65248878.5
2014-Oct-19 08:27N 30°25' E 122°27'65220945.4
2014-Oct-19 08:26N 23°04' E 113°30'654138579.2
2014-Oct-19 08:25N 31°22' E 121°28'54976.8
2014-Oct-19 08:22N 32°02' E 120°45'181150.6
2014-Oct-19 08:21N 31°47' E 120°55'6566483.1
2014-Oct-19 08:15N 23°04' E 113°30'651936.6
2014-Oct-19 07:33N 32°01' E 120°25'295159.8
2014-Oct-19 07:33N 31°47' E 120°54'381461.4
2014-Oct-19 07:31N 31°22' E 121°28'682415.8
2014-Oct-19 07:30N 32°01' E 120°22'64937107.4
2014-Oct-19 07:29N 23°04' E 113°30'029.3
2014-Oct-19 07:28N 23°04' E 113°30'65247881.0
2014-Oct-19 07:27N 30°25' E 122°27'65280897.8
2014-Oct-19 07:27N 23°04' E 113°30'656262203.4
2014-Oct-19 07:27N 31°47' E 120°55'18576.1
2014-Oct-19 07:25N 32°02' E 120°45'6702893.6
2014-Oct-19 07:11N 22°51' E 113°34'6561041.9
2014-Oct-19 06:33N 31°59' E 120°21'3219089.8
2014-Oct-19 06:33N 31°47' E 120°55'11367840.8
2014-Oct-19 06:33N 30°25' E 122°27'114204431.4
2014-Oct-19 06:33N 31°47' E 120°54'663119399.5
2014-Oct-19 06:33N 22°51' E 113°34'658338517.7
2014-Oct-19 06:33N 32°01' E 120°22'683422.4
2014-Oct-19 06:31N 31°22' E 121°28'65412532.9
2014-Oct-19 06:28N 23°04' E 113°30'0 3.7
2014-Oct-19 06:26N 23°04' E 113°30'10276451.6
2014-Oct-19 06:16N 38°44' E 121°31'40336266.5
2014-Oct-19 06:15N 32°04' E 120°29'65633730.3
2014-Oct-19 06:14N 23°04' E 113°30'6625540.4
2014-Oct-19 06:07N 32°02' E 120°45'2545.0
2014-Oct-19 05:33N 31°56' E 120°16'348257.7
2014-Oct-19 05:33N 31°47' E 120°54'314677.6
2014-Oct-19 05:33N 32°01' E 120°22'649212524.1
2014-Oct-19 05:32N 23°04' E 113°30'3413448.6
2014-Oct-19 05:32N 22°34' E 113°46'66376970.9
2014-Oct-19 05:32N 30°25' E 122°27'14218202.3
2014-Oct-19 05:31N 32°04' E 120°29'293122.6
2014-Oct-19 05:31N 31°47' E 120°55'371056.7
2014-Oct-19 05:29N 31°22' E 121°28'49842706.9
2014-Oct-19 05:28N 39°05' E 117°44'177159010.2
2014-Oct-19 05:28N 38°44' E 121°29'105516949.5
2014-Oct-19 05:24N 22°27' E 113°48'41260.7
2014-Oct-19 05:15N 23°04' E 113°30'66221856.8
2014-Oct-19 05:13N 32°02' E 120°45'44821228.5
2014-Oct-19 05:12N 39°05' E 117°44'98641256.2
2014-Oct-19 05:10N 23°04' E 113°30'3861.7
2014-Oct-19 04:33N 22°31' E 113°51'67128431.5
2014-Oct-19 04:32N 31°47' E 120°54'38136186.6
2014-Oct-19 04:32N 31°22' E 121°28'665266.7
2014-Oct-19 04:31N 32°04' E 120°29'181405.4
2014-Oct-19 04:30N 31°56' E 120°10'44369384.3
2014-Oct-19 04:30N 39°04' E 117°50'2107.1
2014-Oct-19 04:29N 39°04' E 117°47'986168962.8
2014-Oct-19 04:28N 23°04' E 113°30'6508411.1
2014-Oct-19 04:24N 32°01' E 120°22'65011188.4
2014-Oct-19 04:20N 23°04' E 113°29'65610217.2
2014-Oct-19 04:16N 31°47' E 120°55'1 1.1
2014-Oct-19 03:33N 31°47' E 120°54'671268258.0
2014-Oct-19 03:33N 22°32' E 113°51'667100012.6
2014-Oct-19 03:33N 32°01' E 120°22'14443075.6
2014-Oct-19 03:32N 30°25' E 122°27'652195580.3
2014-Oct-19 03:32N 23°04' E 113°29'66491968.2
2014-Oct-19 03:32N 32°02' E 120°49'18521.6
2014-Oct-19 03:30N 32°04' E 120°29'4414814.9
2014-Oct-19 03:24N 39°05' E 117°44'99749175.3
2014-Oct-19 03:23N 22°51' E 113°34'99715814.1
2014-Oct-19 03:19N 39°05' E 117°45'44227896.6
2014-Oct-19 03:18N 31°58' E 120°03'46780.4
2014-Oct-19 03:15N 31°47' E 120°55'18272.0
2014-Oct-19 03:11N 32°02' E 120°45'130206.6
2014-Oct-19 02:33N 30°25' E 122°27'14419893.9
2014-Oct-19 02:33N 32°01' E 120°22'191707.9
2014-Oct-19 02:32N 32°02' E 120°45'66214099.9
2014-Oct-19 02:29N 23°04' E 113°29'65653641.7
2014-Oct-19 02:28N 31°47' E 120°55'656294987.8
2014-Oct-19 02:28N 23°04' E 113°30'985141875.8
2014-Oct-19 02:28N 39°04' E 117°48'46326045.6
2014-Oct-19 02:27N 31°47' E 120°54'46214857.1
2014-Oct-19 02:25N 39°04' E 117°51'4384300.6
2014-Oct-19 02:19N 32°06' E 120°32'6763052.5
2014-Oct-19 02:06N 22°32' E 113°51'0 0.0
2014-Oct-19 01:33N 22°31' E 113°51'66753340.9
2014-Oct-19 01:33N 32°01' E 120°22'65077946.7
2014-Oct-19 01:32N 23°04' E 113°29'662183293.4
2014-Oct-19 01:32N 32°02' E 120°45'182628.9
2014-Oct-19 01:32N 31°47' E 120°55'169430.6
2014-Oct-19 01:31N 32°02' E 120°49'12811199.3
2014-Oct-19 01:31N 30°25' E 122°27'65894770.4
2014-Oct-19 01:30N 22°51' E 113°34'66526027.2
2014-Oct-19 01:29N 31°31' E 121°20'48424551.5
2014-Oct-19 01:28N 39°04' E 117°50'1019192985.2
2014-Oct-19 01:27N 22°27' E 113°48'41220.8
2014-Oct-19 01:16N 23°04' E 113°30'58674.5
2014-Oct-19 01:11N 22°19' E 114°09'17452.2
2014-Oct-19 01:09N 22°09' E 113°54'4 6.7
2014-Oct-19 00:33N 22°11' E 113°50'686822832.7
2014-Oct-19 00:33N 32°01' E 120°22'14415668.5
2014-Oct-19 00:32N 30°25' E 122°27'8226933.8
2014-Oct-19 00:32N 31°29' E 121°26'68416875.7
2014-Oct-19 00:29N 22°23' E 113°43'432104.7
2014-Oct-19 00:28N 23°04' E 113°30'66416376.2
2014-Oct-19 00:26N 32°02' E 120°49'6647032.7
2014-Oct-19 00:20N 23°04' E 113°29'6596759.0
2014-Oct-19 00:14N 31°36' E 121°17'21361.1
2014-Oct-19 00:11N 31°47' E 120°55'18221.3
2014-Oct-19 00:06N 32°02' E 120°45'1731.7
2014-Oct-18 23:33N 31°47' E 120°54'689103410.0
2014-Oct-18 23:33N 22°14' E 113°43'697278882.8
2014-Oct-18 23:33N 32°02' E 120°45'193890.1
2014-Oct-18 23:33N 32°01' E 120°22'6927695.7
2014-Oct-18 23:32N 31°24' E 121°31'658107727.4
2014-Oct-18 23:32N 23°04' E 113°29'652102044.2
2014-Oct-18 23:32N 30°25' E 122°27'44179430.1
2014-Oct-18 23:31N 37°42' E 121°09'100348803.0
2014-Oct-18 23:30N 22°17' E 113°40'48361.2
2014-Oct-18 23:22N 23°04' E 113°30'6567023.9
2014-Oct-18 23:17N 31°47' E 120°55'4373605.3
2014-Oct-18 23:09N 24°41' E 119°05'388647.1
2014-Oct-18 22:33N 30°25' E 122°27'44251308.4
2014-Oct-18 22:33N 37°43' E 121°19'96875771.0
2014-Oct-18 22:32N 23°04' E 113°29'65015907.6
2014-Oct-18 22:30N 32°01' E 120°22'692146470.0
2014-Oct-18 22:29N 22°11' E 113°36'532799.9
2014-Oct-18 22:28N 23°04' E 113°30'65859227.9
2014-Oct-18 22:28N 31°24' E 121°31'79449.7
2014-Oct-18 22:17N 31°58' E 120°06'66215688.7
2014-Oct-18 22:15N 22°28' E 113°46'67854225.0
2014-Oct-18 22:14N 31°48' E 120°55'6616466.9
2014-Oct-18 22:08N 22°55' E 113°35'9781713.1
2014-Oct-18 21:33N 37°44' E 121°28'34729767.5
2014-Oct-18 21:33N 32°01' E 120°22'692191574.5
2014-Oct-18 21:32N 22°12' E 113°34'5315755.8
2014-Oct-18 21:32N 23°04' E 113°29'014.5
2014-Oct-18 21:32N 23°04' E 113°29'65224450.8
2014-Oct-18 21:30N 30°25' E 122°27'6558153.3
2014-Oct-18 21:26N 22°55' E 113°35'453.5
2014-Oct-18 21:21N 22°51' E 113°34'66718621.6
2014-Oct-18 21:19N 31°52' E 120°53'12135.8
2014-Oct-18 21:14N 32°02' E 120°45'1781069.1
2014-Oct-18 21:04N 34°49' E 119°31'3 5.0
2014-Oct-18 20:33N 34°50' E 119°28'304365192.7
2014-Oct-18 20:33N 30°25' E 122°27'14513747.7
2014-Oct-18 20:33N 31°57' E 120°15'73091.4
2014-Oct-18 20:33N 32°01' E 120°22'692249049.8
2014-Oct-18 20:32N 22°12' E 113°34'3911808.9
2014-Oct-18 20:32N 22°51' E 113°34'142897.0
2014-Oct-18 20:32N 23°04' E 113°29'97318831.9
2014-Oct-18 20:29N 37°43' E 121°33'3442587.7
2014-Oct-18 20:21N 32°02' E 120°45'66248628.1
2014-Oct-18 20:20N 23°04' E 113°29'9741249.2
2014-Oct-18 19:33N 37°43' E 121°35'350157633.0
2014-Oct-18 19:33N 31°58' E 120°20'214431.4
2014-Oct-18 19:33N 32°02' E 120°45'704361807.6
2014-Oct-18 19:33N 22°12' E 113°34'692276765.3
2014-Oct-18 19:33N 32°01' E 120°22'6581184874.2
2014-Oct-18 19:33N 22°51' E 113°34'141296.6
2014-Oct-18 19:32N 23°04' E 113°29'0 1.2
2014-Oct-18 19:29N 23°04' E 113°29'652335276.7
2014-Oct-18 19:29N 30°25' E 122°27'128846.7
2014-Oct-18 19:20N 32°00' E 120°47'40292.6
2014-Oct-18 19:12N 31°59' E 119°59'1813057.1
2014-Oct-18 19:08N 29°49' E 122°25'3662.3
2014-Oct-18 18:33N 30°25' E 122°27'658338479.0
2014-Oct-18 18:33N 22°51' E 113°34'403987.8
2014-Oct-18 18:32N 22°11' E 113°35'7011261646.8
2014-Oct-18 18:32N 32°00' E 120°42'34544348.7
2014-Oct-18 18:32N 37°42' E 121°38'34796013.7
2014-Oct-18 18:32N 32°01' E 120°22'65016238.7
2014-Oct-18 18:29N 23°04' E 113°29'0 0.2
2014-Oct-18 18:08N 23°04' E 113°29'10478.3
2014-Oct-18 18:07N 22°54' E 113°30'30645.9
2014-Oct-18 18:04N 22°28' E 113°46'6771337.4
2014-Oct-18 17:34N 31°24' E 121°31'587470.4
2014-Oct-18 17:33N 32°00' E 120°37'66599748.1
2014-Oct-18 17:33N 22°51' E 113°34'141296.6
2014-Oct-18 17:32N 23°04' E 113°29'652146692.4
2014-Oct-18 17:32N 30°25' E 122°27'144103412.1
2014-Oct-18 17:32N 32°01' E 120°22'69215006.3
2014-Oct-18 17:29N 22°11' E 113°35'53271.3
2014-Oct-18 17:17N 23°04' E 113°29'657897.6
2014-Oct-18 16:33N 32°03' E 120°33'666149760.7
2014-Oct-18 16:33N 22°51' E 113°34'658182254.4
2014-Oct-18 16:33N 30°25' E 122°27'65261764.5
2014-Oct-18 16:32N 23°04' E 113°29'057.1
2014-Oct-18 16:32N 23°04' E 113°29'64270075.0
2014-Oct-18 16:31N 31°57' E 120°14'68516327.0
2014-Oct-18 16:29N 22°11' E 113°35'68118299.6
2014-Oct-18 16:27N 31°56' E 120°08'13759.5
2014-Oct-18 16:26N 32°01' E 120°22'691381.1
2014-Oct-18 16:23N 31°24' E 121°31'6680.2
2014-Oct-18 15:33N 32°04' E 120°29'6623860.6
2014-Oct-18 15:33N 31°23' E 121°30'702960.9
2014-Oct-18 15:32N 31°59' E 120°20'2515.4
2014-Oct-18 15:32N 32°01' E 120°22'321816.6
2014-Oct-18 15:31N 31°47' E 120°55'422670.6
2014-Oct-18 15:30N 31°56' E 120°08'1502295.3
2014-Oct-18 15:26N 30°25' E 122°27'68629421.4
2014-Oct-18 15:24N 22°11' E 113°35'53753.7
2014-Oct-18 15:20N 23°04' E 113°29'62718644.2
2014-Oct-18 15:18N 29°51' E 122°22'1021738.2
2014-Oct-18 15:15N 31°22' E 121°28'65565460.8
2014-Oct-18 15:14N 23°04' E 113°29'102911910.6
2014-Oct-18 15:09N 38°44' E 121°37'97013850.4
2014-Oct-18 15:05N 22°38' E 120°05'5651090.6
2014-Oct-18 14:34N 32°02' E 120°25'14364219.5
2014-Oct-18 14:33N 30°25' E 122°27'14272821.2
2014-Oct-18 14:33N 32°01' E 120°25'34933923.6
2014-Oct-18 14:33N 37°44' E 121°43'38592438.2
2014-Oct-18 14:32N 31°19' E 121°34'65690860.6
2014-Oct-18 14:32N 23°04' E 113°29'543212.8
2014-Oct-18 14:31N 22°11' E 113°38'69228955.8
2014-Oct-18 14:30N 31°22' E 121°28'684562.5
2014-Oct-18 14:29N 32°01' E 120°22'5637067.7
2014-Oct-18 14:24N 22°38' E 120°10'55114057.8
2014-Oct-18 14:22N 31°47' E 120°55'66017863.0
2014-Oct-18 14:19N 22°55' E 113°35'11309.6
2014-Oct-18 14:17N 23°04' E 113°29'6485472.6
2014-Oct-18 14:10N 31°58' E 120°22'1301318.8
2014-Oct-18 14:04N 30°32' E 122°15'13719026.5
2014-Oct-18 14:04N 31°56' E 120°08'1122.5
2014-Oct-18 13:33N 31°59' E 120°21'91766.8
2014-Oct-18 13:33N 32°02' E 120°31'81425.8
2014-Oct-18 13:33N 31°58' E 120°22'14222208.6
2014-Oct-18 13:32N 30°25' E 122°27'7616098.4
2014-Oct-18 13:32N 31°22' E 121°28'688798.7
2014-Oct-18 13:32N 32°01' E 120°22'3257214.6
2014-Oct-18 13:32N 31°47' E 120°55'4422681.0
2014-Oct-18 13:32N 31°15' E 121°31'65216292.7
2014-Oct-18 13:29N 23°04' E 113°29'3776710.1
2014-Oct-18 13:26N 22°37' E 120°16'3642082.7
2014-Oct-18 13:15N 22°16' E 113°43'50426.4
2014-Oct-18 13:08N 23°04' E 113°29'6481119.4
2014-Oct-18 12:33N 31°58' E 120°22'72723.8
2014-Oct-18 12:33N 31°56' E 120°14'196174.8
2014-Oct-18 12:33N 32°01' E 120°36'12502.6
2014-Oct-18 12:32N 32°01' E 120°22'14432318.1
2014-Oct-18 12:31N 30°25' E 122°27'764702.8
2014-Oct-18 12:30N 31°22' E 121°29'65529492.8
2014-Oct-18 12:29N 23°04' E 113°29'97829590.5
2014-Oct-18 12:27N 37°45' E 121°44'42127556.4
2014-Oct-18 12:26N 30°44' E 122°16'49327.8
2014-Oct-18 12:17N 31°11' E 121°28'6736409.0
2014-Oct-18 12:11N 22°20' E 113°44'32301.9
2014-Oct-18 12:05N 22°51' E 113°34'64627377.9
2014-Oct-18 12:03N 31°59' E 120°01'650779523.9
2014-Oct-18 12:03N 22°54' E 113°22'6641327.8
2014-Oct-18 11:33N 30°25' E 122°27'672604648.4
2014-Oct-18 11:33N 22°23' E 113°44'667218290.9
2014-Oct-18 11:33N 31°56' E 120°07'645193550.2
2014-Oct-18 11:33N 22°54' E 113°35'66792381.7
2014-Oct-18 11:32N 30°51' E 122°17'415497503.2
2014-Oct-18 11:32N 37°45' E 121°39'9771171832.7
2014-Oct-18 11:32N 23°04' E 113°29'65089937.1
2014-Oct-18 11:32N 32°01' E 120°22'65924472.3
2014-Oct-18 11:30N 22°55' E 113°26'1086.7
2014-Oct-18 11:23N 23°04' E 113°29'6394476.2
2014-Oct-18 11:14N 31°58' E 120°06'43389.7
2014-Oct-18 11:08N 31°47' E 120°55'521205.6
2014-Oct-18 11:05N 31°04' E 121°28'6481222.2
2014-Oct-18 10:33N 22°55' E 113°30'658124644.5
2014-Oct-18 10:33N 30°25' E 122°27'1499921.3
2014-Oct-18 10:32N 31°57' E 120°10'640576366.1
2014-Oct-18 10:32N 23°04' E 113°29'975134996.5
2014-Oct-18 10:32N 37°45' E 121°34'3542797.1
2014-Oct-18 10:24N 31°59' E 119°60'17770731.1
2014-Oct-18 10:24N 29°51' E 122°22'62745125.1
2014-Oct-18 10:23N 23°04' E 113°29'65093543.2
2014-Oct-18 10:23N 32°01' E 120°22'191591.4
2014-Oct-18 10:22N 32°02' E 120°45'130161.1
2014-Oct-18 09:33N 30°25' E 122°27'653261255.8
2014-Oct-18 09:33N 23°01' E 113°31'976100348.6
2014-Oct-18 09:33N 37°45' E 121°29'353211930.6
2014-Oct-18 09:33N 31°57' E 120°16'7438.4
2014-Oct-18 09:32N 32°01' E 120°22'23107.5
2014-Oct-18 09:19N 32°02' E 120°49'66426568.0
2014-Oct-18 09:17N 23°04' E 113°29'0418.0
2014-Oct-18 09:17N 23°04' E 113°29'6624873.5
2014-Oct-18 09:09N 32°02' E 120°45'18597.3
2014-Oct-18 09:07N 31°47' E 120°55'383222.9
2014-Oct-18 09:06N 31°24' E 121°31'70126.5
2014-Oct-18 08:33N 31°60' E 120°21'144103491.0
2014-Oct-18 08:33N 30°25' E 122°27'65231703.7
2014-Oct-18 08:32N 23°04' E 113°30'64980619.8
2014-Oct-18 08:32N 32°01' E 120°22'684584.9
2014-Oct-18 08:31N 31°26' E 121°29'523622.9
2014-Oct-18 08:30N 32°02' E 120°45'66250700.1
2014-Oct-18 08:29N 23°04' E 113°29'6386437.8
2014-Oct-18 08:23N 32°02' E 119°57'638383070.9
2014-Oct-18 08:23N 23°04' E 113°29'97419927.2
2014-Oct-18 08:20N 37°46' E 121°29'3491393.6
2014-Oct-18 08:05N 31°59' E 120°51'6631256.6
2014-Oct-18 07:33N 23°04' E 113°30'6912459.7
2014-Oct-18 07:33N 21°58' E 113°08'1045940410.4
2014-Oct-18 07:33N 37°48' E 121°30'379681631.8
2014-Oct-18 07:33N 31°29' E 121°25'79282900.5
2014-Oct-18 07:33N 31°60' E 119°60'639135269.7
2014-Oct-18 07:33N 23°05' E 113°26'653112009.8
2014-Oct-18 07:32N 30°25' E 122°27'14412321.9
2014-Oct-18 07:32N 32°01' E 120°22'2106.5
2014-Oct-18 07:31N 31°59' E 120°23'7170.0
2014-Oct-18 07:28N 31°57' E 120°15'25344.9
2014-Oct-18 07:24N 32°02' E 120°45'6625741.9
2014-Oct-18 07:17N 23°04' E 113°29'51509.8
2014-Oct-18 07:11N 22°14' E 113°36'6881098.8
2014-Oct-18 06:34N 31°60' E 120°21'6482333139.5
2014-Oct-18 06:34N 23°04' E 113°30'652391008.2
2014-Oct-18 06:33N 30°25' E 122°27'714642863.8
2014-Oct-18 06:33N 21°53' E 113°12'1047289837.1
2014-Oct-18 06:33N 37°48' E 121°26'350251762.8
2014-Oct-18 06:33N 32°02' E 120°26'69038823.3
2014-Oct-18 06:32N 22°16' E 113°36'687154641.8
2014-Oct-18 06:32N 32°01' E 120°22'13846.5
2014-Oct-18 06:31N 31°56' E 120°08'663076.1
2014-Oct-18 06:30N 31°32' E 121°20'65887775.7
2014-Oct-18 06:29N 23°04' E 113°29'63910843.0
2014-Oct-18 06:26N 31°58' E 120°05'45547.8
2014-Oct-18 06:21N 31°47' E 120°55'66022847.3
2014-Oct-18 06:19N 22°55' E 113°35'330.7
2014-Oct-18 06:13N 22°57' E 113°37'6598.4
2014-Oct-18 05:34N 21°57' E 113°12'712427137.8
2014-Oct-18 05:33N 30°25' E 122°27'149537180.3
2014-Oct-18 05:33N 31°57' E 120°09'6131131.3
2014-Oct-18 05:33N 31°36' E 121°16'371133461.4
2014-Oct-18 05:33N 37°47' E 121°30'975219445.6
2014-Oct-18 05:33N 23°04' E 113°30'65357371.7
2014-Oct-18 05:32N 32°02' E 120°27'655262172.9
2014-Oct-18 05:32N 22°57' E 113°37'652130303.4
2014-Oct-18 05:32N 32°01' E 120°22'65448084.3
2014-Oct-18 05:31N 22°55' E 113°35'13108.5
2014-Oct-18 05:24N 23°02' E 113°23'10333718629.1
2014-Oct-18 05:23N 38°44' E 121°36'10299594.3
2014-Oct-18 05:17N 23°04' E 113°29'1459.8
2014-Oct-18 05:03N 22°51' E 113°34'1326.7
2014-Oct-18 04:33N 23°04' E 113°30'659395565.2
2014-Oct-18 04:33N 31°40' E 121°12'5246350.7
2014-Oct-18 04:33N 31°57' E 120°15'356106921.2
2014-Oct-18 04:33N 37°48' E 121°29'4451603573.5
2014-Oct-18 04:33N 30°25' E 122°27'13644433.7
2014-Oct-18 04:33N 32°01' E 120°35'66123561.7
2014-Oct-18 04:31N 22°55' E 113°35'65467311.9
2014-Oct-18 04:31N 32°01' E 120°22'67228810.7
2014-Oct-18 04:29N 22°27' E 113°48'4114776.5
2014-Oct-18 04:29N 23°04' E 113°29'6623024.0
2014-Oct-18 04:16N 32°02' E 120°45'4046385.1
2014-Oct-18 04:12N 38°44' E 121°33'10271595.8
2014-Oct-18 03:34N 23°04' E 113°30'652335153.9
2014-Oct-18 03:33N 30°25' E 122°27'10312779.0
2014-Oct-18 03:33N 31°42' E 121°08'4414435.3
2014-Oct-18 03:33N 31°59' E 120°20'71280151.0
2014-Oct-18 03:32N 21°58' E 113°11'7042534807.6
2014-Oct-18 03:32N 31°56' E 120°08'64338607.5
2014-Oct-18 03:31N 22°55' E 113°35'3823063.1
2014-Oct-18 03:31N 22°19' E 113°19'1072160817.0
2014-Oct-18 03:31N 38°44' E 121°31'407733095.1
2014-Oct-18 03:31N 32°01' E 120°22'67226891.1
2014-Oct-18 03:29N 22°27' E 113°48'67814708.0
2014-Oct-18 03:26N 32°00' E 120°36'4474498.6
2014-Oct-18 03:20N 39°05' E 117°44'98517647.7
2014-Oct-18 03:17N 23°04' E 113°29'6626492.9
2014-Oct-18 03:11N 32°02' E 120°45'6689175.9
2014-Oct-18 03:07N 23°03' E 113°19'18413.3
2014-Oct-18 03:04N 22°51' E 113°34'1326.1
2014-Oct-18 02:34N 23°04' E 113°30'649467008.2
2014-Oct-18 02:33N 31°60' E 120°22'443797347.5
2014-Oct-18 02:33N 39°05' E 117°47'441105950.5
2014-Oct-18 02:33N 32°02' E 120°24'143171741.2
2014-Oct-18 02:33N 30°25' E 122°27'442318284.5
2014-Oct-18 02:33N 37°43' E 121°12'34181804.0
2014-Oct-18 02:33N 32°03' E 120°32'237372.7
2014-Oct-18 02:33N 31°56' E 120°07'4929483.4
2014-Oct-18 02:32N 31°45' E 121°04'7505.9
2014-Oct-18 02:32N 31°47' E 120°55'4181506424.8
2014-Oct-18 02:32N 38°44' E 121°30'10303709180.3
2014-Oct-18 02:32N 23°02' E 113°24'131761.2
2014-Oct-18 02:31N 22°55' E 113°35'65478530.6
2014-Oct-18 02:31N 32°01' E 120°22'44038671.0
2014-Oct-18 02:30N 39°04' E 117°50'10188726.2
2014-Oct-18 02:23N 22°27' E 113°48'6842461924.8
2014-Oct-18 02:23N 32°02' E 120°45'6626751.2
2014-Oct-18 02:17N 23°04' E 113°29'14342.7
2014-Oct-18 02:15N 22°51' E 113°34'663966.5
2014-Oct-18 01:34N 32°02' E 120°28'14163335.8
2014-Oct-18 01:33N 30°25' E 122°27'652167644.8
2014-Oct-18 01:33N 23°04' E 113°29'655392944.3
2014-Oct-18 01:33N 32°04' E 120°27'1922.3
2014-Oct-18 01:33N 32°03' E 120°26'362274.0
2014-Oct-18 01:32N 31°45' E 121°03'41962921.3
2014-Oct-18 01:32N 38°44' E 121°30'172310411.1
2014-Oct-18 01:32N 39°05' E 117°50'44227884.8
2014-Oct-18 01:31N 32°01' E 120°22'67223962.2
2014-Oct-18 01:29N 22°27' E 113°48'41830.0
2014-Oct-18 01:26N 23°04' E 113°29'98663376.9
2014-Oct-18 01:25N 39°05' E 117°46'44712680.8
2014-Oct-18 01:23N 32°02' E 120°45'67011070.4
2014-Oct-18 01:19N 22°51' E 113°34'1499.4
2014-Oct-18 01:11N 23°04' E 113°29'6571049.1
2014-Oct-18 00:33N 32°04' E 120°31'140167859.2
2014-Oct-18 00:33N 30°25' E 122°27'13619544.0
2014-Oct-18 00:33N 32°01' E 120°35'656214809.3
2014-Oct-18 00:33N 23°04' E 113°29'65955145.9
2014-Oct-18 00:32N 31°45' E 121°03'4208534.1
2014-Oct-18 00:29N 38°44' E 121°33'1028462496.8
2014-Oct-18 00:29N 23°04' E 113°29'65028173.7
2014-Oct-18 00:28N 32°01' E 120°22'6559706.8
2014-Oct-18 00:24N 22°54' E 113°35'111124.2
2014-Oct-18 00:23N 23°04' E 113°29'41372.8
2014-Oct-18 00:16N 22°27' E 113°48'101929817.1
2014-Oct-18 00:14N 39°04' E 117°50'99435076.9
2014-Oct-18 00:13N 22°55' E 113°35'64617894.6
2014-Oct-18 00:11N 31°56' E 120°13'65011304.2
2014-Oct-18 00:07N 22°51' E 113°34'96014160.3
2014-Oct-18 00:03N 36°51' E 122°29'304615.8
2014-Oct-17 23:33N 32°02' E 120°35'340407444.9
2014-Oct-17 23:33N 37°40' E 121°08'962576960.9
2014-Oct-17 23:33N 23°04' E 113°29'953263780.5
2014-Oct-17 23:33N 36°54' E 122°28'38982448.8
2014-Oct-17 23:33N 30°25' E 122°27'1463631.5
2014-Oct-17 23:30N 31°56' E 120°13'442097.5
2014-Oct-17 23:29N 31°45' E 121°03'381604.0
2014-Oct-17 23:28N 32°01' E 120°22'4062413.6
2014-Oct-17 23:18N 38°42' E 121°32'10269467.6
2014-Oct-17 23:11N 23°04' E 113°29'1220.5
2014-Oct-17 23:11N 23°04' E 113°29'11162.8
2014-Oct-17 23:07N 22°55' E 113°35'6551170.0
2014-Oct-17 22:33N 30°25' E 122°27'133119978.1
2014-Oct-17 22:33N 32°00' E 120°38'2522379.2
2014-Oct-17 22:33N 31°56' E 120°09'639575319.8
2014-Oct-17 22:33N 23°04' E 113°29'4113440.8
2014-Oct-17 22:33N 22°27' E 113°47'68054387.3
2014-Oct-17 22:32N 31°45' E 121°03'36028812.2
2014-Oct-17 22:32N 37°45' E 121°20'3485417.2
2014-Oct-17 22:28N 32°01' E 120°22'662401.9
2014-Oct-17 22:26N 32°15' E 119°05'626375524.8
2014-Oct-17 22:26N 23°04' E 113°29'6563386.8
2014-Oct-17 22:14N 31°47' E 120°55'66023527.0
2014-Oct-17 22:13N 22°55' E 113°35'95910626.2
2014-Oct-17 22:07N 36°56' E 122°28'9531699.3
2014-Oct-17 21:34N 23°04' E 113°29'659139658.8
2014-Oct-17 21:33N 32°01' E 120°42'1316740.7
2014-Oct-17 21:32N 30°25' E 122°27'11225164.8
2014-Oct-17 21:32N 31°47' E 120°58'31830113.6
2014-Oct-17 21:31N 36°56' E 122°28'31337512.6
2014-Oct-17 21:31N 32°01' E 120°22'34720500.3
2014-Oct-17 21:30N 37°45' E 121°19'97015516.0
2014-Oct-17 21:26N 23°04' E 113°29'46599.1
2014-Oct-17 21:21N 22°19' E 113°42'677848.2
2014-Oct-17 20:33N 30°25' E 122°27'652234704.2
2014-Oct-17 20:33N 23°04' E 113°29'9711748028.3
2014-Oct-17 20:33N 37°45' E 121°23'3481251999.5
2014-Oct-17 20:33N 32°01' E 120°22'31039856.7
2014-Oct-17 20:33N 36°53' E 122°28'304547004.6
2014-Oct-17 20:33N 32°01' E 120°45'11530.5
2014-Oct-17 20:31N 31°52' E 120°53'696147467.1
2014-Oct-17 20:31N 22°13' E 113°38'424061.2
2014-Oct-17 20:30N 22°55' E 113°35'66726083.3
2014-Oct-17 20:29N 32°02' E 120°45'6626583.4
2014-Oct-17 20:23N 23°04' E 113°29'640460595.1
2014-Oct-17 20:23N 32°04' E 119°55'65811223.9
2014-Oct-17 20:19N 22°32' E 113°51'520.2
2014-Oct-17 20:04N 22°29' E 113°47'6711315.7
2014-Oct-17 19:33N 32°01' E 120°22'650146144.7
2014-Oct-17 19:33N 23°04' E 113°29'973318342.1
2014-Oct-17 19:33N 37°45' E 121°28'983196598.4
2014-Oct-17 19:32N 22°51' E 113°34'658118467.6
2014-Oct-17 19:32N 30°25' E 122°27'65523801.3
2014-Oct-17 19:30N 22°55' E 113°35'66717647.9
2014-Oct-17 19:28N 31°58' E 120°51'3452.4
2014-Oct-17 19:28N 31°60' E 120°50'494615.1
2014-Oct-17 19:27N 32°10' E 119°53'64330069.9
2014-Oct-17 19:26N 23°04' E 113°29'521871.6
2014-Oct-17 19:24N 22°12' E 113°34'7038012.1
2014-Oct-17 19:19N 32°02' E 120°45'662868.4
2014-Oct-17 18:33N 23°04' E 113°29'14980.0
2014-Oct-17 18:32N 22°51' E 113°34'3917557.2
2014-Oct-17 18:32N 22°12' E 113°34'68647506.4
2014-Oct-17 18:31N 30°25' E 122°27'12923191.5
2014-Oct-17 18:31N 32°01' E 120°46'34423379.4
2014-Oct-17 18:30N 37°43' E 121°31'3476855.8
2014-Oct-17 18:27N 32°01' E 120°22'65031180.1
2014-Oct-17 18:26N 23°04' E 113°29'66220368.1
2014-Oct-17 18:24N 32°02' E 120°45'8338.4
2014-Oct-17 18:23N 31°57' E 120°52'6673882.9
2014-Oct-17 18:12N 22°55' E 113°35'6621022.8
2014-Oct-17 17:33N 31°60' E 120°39'132237784.3
2014-Oct-17 17:33N 30°25' E 122°27'14430432.3
2014-Oct-17 17:33N 32°01' E 120°22'34843217.7
2014-Oct-17 17:33N 37°44' E 121°31'973146014.7
2014-Oct-17 17:32N 23°04' E 113°29'14255.2
2014-Oct-17 17:29N 22°51' E 113°34'13128.8
2014-Oct-17 17:23N 23°04' E 113°29'66018426.2
2014-Oct-17 17:21N 31°54' E 120°53'7957.5
2014-Oct-17 17:20N 31°47' E 120°55'69696433.2
2014-Oct-17 17:20N 22°12' E 113°34'7048673.6
2014-Oct-17 17:15N 32°02' E 120°45'1015.0
2014-Oct-17 16:33N 32°01' E 120°32'655294770.1
2014-Oct-17 16:33N 23°04' E 113°29'144460.4
2014-Oct-17 16:33N 22°51' E 113°34'983121973.3
2014-Oct-17 16:33N 37°43' E 121°32'35314958.2
2014-Oct-17 16:31N 31°51' E 120°54'11716840.8
2014-Oct-17 16:31N 30°25' E 122°27'6877846.2
2014-Oct-17 16:25N 22°12' E 113°34'192846.4
2014-Oct-17 16:25N 22°27' E 113°47'411105.5
2014-Oct-17 16:23N 23°04' E 113°29'65022062.0
2014-Oct-17 16:21N 32°01' E 120°22'6544379.0
2014-Oct-17 16:12N 22°55' E 113°35'28376.7
2014-Oct-17 16:08N 22°32' E 113°51'671115050.8
2014-Oct-17 16:07N 31°47' E 120°55'2950.8
2014-Oct-17 15:33N 32°02' E 120°26'652782855.4
2014-Oct-17 15:33N 23°04' E 113°29'649292269.0
2014-Oct-17 15:33N 32°01' E 120°22'325495.7
2014-Oct-17 15:33N 31°48' E 120°56'113204083.4
2014-Oct-17 15:33N 30°25' E 122°27'438157575.2
2014-Oct-17 15:33N 37°41' E 121°35'35613912.3
2014-Oct-17 15:31N 31°47' E 120°55'6567639.4
2014-Oct-17 15:26N 23°04' E 113°29'538601.9
2014-Oct-17 15:26N 22°12' E 113°34'192273.1
2014-Oct-17 15:25N 22°27' E 113°47'68510142.7
2014-Oct-17 15:21N 32°02' E 120°45'66714033.1
2014-Oct-17 15:18N 22°55' E 113°35'4594.6
2014-Oct-17 15:18N 22°51' E 113°34'1418.3
2014-Oct-17 14:33N 23°04' E 113°29'6481165924.2
2014-Oct-17 14:33N 31°59' E 120°21'21168.1
2014-Oct-17 14:33N 32°01' E 120°22'345248659.6
2014-Oct-17 14:33N 37°41' E 121°38'97342697.2
2014-Oct-17 14:32N 23°04' E 113°29'5327270.3
2014-Oct-17 14:32N 22°12' E 113°35'431944.3
2014-Oct-17 14:30N 22°55' E 113°35'4200.2
2014-Oct-17 14:29N 22°51' E 113°34'27215.6
2014-Oct-17 14:21N 22°27' E 113°47'68582157.7
2014-Oct-17 14:21N 32°02' E 120°45'18212.0
2014-Oct-17 14:16N 31°47' E 120°55'65618734.4
2014-Oct-17 14:14N 23°04' E 113°29'0 0.6
2014-Oct-17 13:33N 23°04' E 113°29'643385712.5
2014-Oct-17 13:33N 31°56' E 120°16'724421.1
2014-Oct-17 13:33N 32°01' E 120°22'650167023.5
2014-Oct-17 13:33N 23°04' E 113°29'97370047.9
2014-Oct-17 13:32N 37°43' E 121°34'100157208.6
2014-Oct-17 13:31N 22°27' E 113°47'302127.9
2014-Oct-17 13:30N 22°55' E 113°35'4109.7
2014-Oct-17 13:28N 22°51' E 113°34'40695.6
2014-Oct-17 13:25N 22°11' E 113°36'5362.5
2014-Oct-17 12:33N 23°04' E 113°29'650194850.4
2014-Oct-17 12:33N 32°01' E 120°22'128471.8
2014-Oct-17 12:33N 31°56' E 120°09'639209219.6
2014-Oct-17 12:33N 23°04' E 113°29'5237187.4
2014-Oct-17 12:33N 22°14' E 113°41'101482939.7
2014-Oct-17 12:32N 37°43' E 121°30'981294220.7
2014-Oct-17 12:32N 22°54' E 113°28'985443385.3
2014-Oct-17 12:32N 37°34' E 122°02'3383000.3
2014-Oct-17 12:25N 32°02' E 120°45'679101797.8
2014-Oct-17 12:25N 22°33' E 113°48'67237195.3
2014-Oct-17 12:23N 31°47' E 120°55'65512226.3
2014-Oct-17 12:20N 23°04' E 113°30'649827.2
2014-Oct-17 11:33N 32°01' E 120°22'649167013.4
2014-Oct-17 11:33N 23°04' E 113°29'63742482.5
2014-Oct-17 11:32N 31°58' E 120°02'35321533.1
2014-Oct-17 11:31N 37°43' E 121°31'97951808.2
2014-Oct-17 11:30N 22°55' E 113°35'1166.2
2014-Oct-17 11:20N 23°04' E 113°30'97640399.8
2014-Oct-17 11:19N 37°35' E 122°02'9765897.5
2014-Oct-17 11:09N 23°04' E 113°29'0 0.3
2014-Oct-17 10:33N 23°04' E 113°29'136.4
2014-Oct-17 10:32N 23°04' E 113°30'971317911.2
2014-Oct-17 10:32N 37°43' E 121°29'34610751.4
2014-Oct-17 10:30N 32°01' E 120°22'65011870.1
2014-Oct-17 10:27N 23°04' E 113°29'97538980.4
2014-Oct-17 10:25N 37°34' E 121°59'9817951.6
2014-Oct-17 10:18N 22°55' E 113°35'66719831.8
2014-Oct-17 10:16N 32°02' E 120°45'1824.8
2014-Oct-17 09:33N 31°47' E 120°55'35747622.1
2014-Oct-17 09:33N 37°43' E 121°23'9693489785.5
2014-Oct-17 09:33N 23°04' E 113°29'27236232.1
2014-Oct-17 09:33N 23°58' E 118°20'49512293.9
2014-Oct-17 09:30N 32°01' E 120°22'650194957.9
2014-Oct-17 09:30N 23°03' E 113°30'8205.9
2014-Oct-17 09:28N 23°02' E 113°22'66714830.4
2014-Oct-17 09:25N 32°02' E 120°45'66223587.7
2014-Oct-17 09:23N 23°04' E 113°30'28365.2
2014-Oct-17 09:19N 22°38' E 113°41'13421.5
2014-Oct-17 09:17N 22°27' E 113°48'461575.9
2014-Oct-17 09:15N 21°58' E 113°11'103937031.6
2014-Oct-17 09:13N 37°31' E 121°57'9711452.9
2014-Oct-17 08:33N 23°05' E 113°27'6920602.7
2014-Oct-17 08:33N 21°58' E 113°11'6910286.7
2014-Oct-17 08:33N 23°04' E 113°29'186.7
2014-Oct-17 08:32N 23°04' E 113°30'64918554.1
2014-Oct-17 08:30N 32°01' E 120°22'65487256.2
2014-Oct-17 08:30N 22°55' E 113°35'96914015.3
2014-Oct-17 08:26N 37°42' E 121°09'355106502.6
2014-Oct-17 08:25N 31°47' E 120°55'67128426.7
2014-Oct-17 08:24N 22°38' E 113°41'1009201864.3
2014-Oct-17 08:24N 39°04' E 117°51'9963581.9
2014-Oct-17 08:07N 22°54' E 113°30'1118.9
2014-Oct-17 07:33N 23°04' E 113°29'52389.9
2014-Oct-17 07:33N 22°59' E 113°31'2328032.2
2014-Oct-17 07:33N 22°38' E 113°41'666479586.2
2014-Oct-17 07:33N 32°01' E 120°22'49511968.1
2014-Oct-17 07:31N 23°57' E 118°20'2653991.1
2014-Oct-17 07:27N 22°27' E 113°48'68491201.0
2014-Oct-17 07:26N 31°59' E 120°51'66313406.1
2014-Oct-17 07:23N 23°04' E 113°30'1153.8
2014-Oct-17 07:11N 22°55' E 113°35'64512422.3
2014-Oct-17 07:08N 31°57' E 120°10'44427548.8
2014-Oct-17 07:07N 39°05' E 117°45'9851745.6
2014-Oct-17 06:33N 23°04' E 113°29'649137539.4
2014-Oct-17 06:33N 32°01' E 120°22'666171279.5
2014-Oct-17 06:33N 22°38' E 113°41'282605.1
2014-Oct-17 06:32N 23°04' E 113°30'111509.4
2014-Oct-17 06:32N 22°54' E 113°35'31027.3
2014-Oct-17 06:32N 22°53' E 113°32'6702561.0
2014-Oct-17 06:16N 32°02' E 120°45'1592550.5
2014-Oct-17 06:12N 29°42' E 122°12'168259.1
2014-Oct-17 05:33N 31°59' E 120°19'663796158.6
2014-Oct-17 05:33N 22°38' E 113°41'625321499.7
2014-Oct-17 05:33N 29°42' E 122°13'169607792.9
2014-Oct-17 05:33N 32°01' E 120°22'650584551.6
2014-Oct-17 05:33N 23°04' E 113°29'98693371.7
2014-Oct-17 05:32N 39°05' E 117°47'91171315.7
2014-Oct-17 05:32N 23°54' E 118°16'40714943.1
2014-Oct-17 05:30N 29°42' E 122°12'1594571.4
2014-Oct-17 05:28N 32°02' E 120°45'684129543.7
2014-Oct-17 05:28N 22°27' E 113°48'41560.8
2014-Oct-17 05:23N 23°04' E 113°30'1351.1
2014-Oct-17 05:08N 22°51' E 113°34'490.5
2014-Oct-17 05:05N 22°55' E 113°35'1120.9
2014-Oct-17 04:33N 23°04' E 113°29'65280904.3
2014-Oct-17 04:33N 32°01' E 120°25'6681202816.2
2014-Oct-17 04:33N 22°38' E 113°41'666141052.6
2014-Oct-17 04:33N 32°01' E 120°22'64997408.4
2014-Oct-17 04:32N 23°04' E 113°30'6629198.3
2014-Oct-17 04:28N 32°02' E 120°45'50126515.7
2014-Oct-17 04:27N 23°58' E 118°20'2665656.1
2014-Oct-17 04:24N 22°27' E 113°48'30177.9
2014-Oct-17 04:14N 22°55' E 113°35'6603748.6
2014-Oct-17 04:03N 31°47' E 120°55'1834.7
2014-Oct-17 03:33N 32°02' E 120°45'113000.5
2014-Oct-17 03:33N 32°02' E 120°32'97874.7
2014-Oct-17 03:33N 32°01' E 120°22'64997409.8
2014-Oct-17 03:32N 23°04' E 113°30'126.9
2014-Oct-17 03:31N 23°04' E 113°29'412141.1
2014-Oct-17 03:30N 22°27' E 113°48'30437.8
2014-Oct-17 03:26N 22°55' E 113°35'9775471.0
2014-Oct-17 03:15N 37°31' E 121°57'3442261.0
2014-Oct-17 03:06N 31°57' E 120°15'6431186.1
2014-Oct-17 02:33N 23°04' E 113°29'66282165.7
2014-Oct-17 02:33N 32°02' E 120°45'204140.6
2014-Oct-17 02:33N 32°01' E 120°22'65832918.2
2014-Oct-17 02:31N 22°54' E 113°28'7172.1
2014-Oct-17 02:29N 22°55' E 113°35'11791.8
2014-Oct-17 02:28N 23°04' E 113°29'4174094.7
2014-Oct-17 02:28N 22°27' E 113°48'66914077.9
2014-Oct-17 02:25N 31°59' E 120°19'1441989.0
2014-Oct-17 02:21N 30°25' E 122°27'142179.2
2014-Oct-17 01:33N 32°00' E 120°23'6501169290.4
2014-Oct-17 01:33N 23°04' E 113°29'662595825.9
2014-Oct-17 01:33N 32°01' E 120°46'67018425.9
2014-Oct-17 01:31N 22°54' E 113°30'32622.7
2014-Oct-17 01:28N 22°27' E 113°48'67227813.0
2014-Oct-17 01:27N 32°01' E 120°22'14414782.2
2014-Oct-17 01:26N 30°25' E 122°27'655102472.7
2014-Oct-17 01:26N 22°55' E 113°35'6675171.7
2014-Oct-17 01:18N 32°02' E 120°45'66224315.6
2014-Oct-17 01:16N 23°04' E 113°29'14170.8
2014-Oct-17 01:12N 22°51' E 113°34'1421.4
2014-Oct-17 00:33N 23°04' E 113°29'65267073.3
2014-Oct-17 00:33N 30°25' E 122°27'65832464.1
2014-Oct-17 00:32N 22°51' E 113°34'66319092.0
2014-Oct-17 00:29N 32°02' E 120°29'286614.2
2014-Oct-17 00:29N 31°47' E 120°55'65644543.7
2014-Oct-17 00:28N 23°04' E 113°29'417054.8
2014-Oct-17 00:28N 22°27' E 113°48'67217792.0
2014-Oct-17 00:26N 32°01' E 120°22'6644672.1
2014-Oct-17 00:17N 22°53' E 113°18'169517.7
2014-Oct-17 00:17N 22°55' E 113°35'940187997.1
2014-Oct-17 00:17N 36°40' E 122°15'5317456.6
2014-Oct-17 00:17N 37°31' E 121°57'3353041.8
2014-Oct-17 00:10N 32°02' E 120°45'915.2
2014-Oct-16 23:33N 32°01' E 120°34'136245684.1
2014-Oct-16 23:33N 30°25' E 122°27'652469516.2
2014-Oct-16 23:33N 23°04' E 113°29'975319226.2
2014-Oct-16 23:33N 37°34' E 121°59'34314361.2
2014-Oct-16 23:32N 32°01' E 120°22'65827237.3
2014-Oct-16 23:30N 22°51' E 113°34'97579774.5
2014-Oct-16 23:30N 37°43' E 121°11'96513725.9
2014-Oct-16 23:25N 23°04' E 113°29'27048611.8
2014-Oct-16 23:25N 23°56' E 118°18'2641709.6
2014-Oct-16 23:16N 22°27' E 113°48'68314204.5
2014-Oct-16 23:13N 32°07' E 120°34'6601002.5
2014-Oct-16 22:33N 23°04' E 113°29'27335128.7
2014-Oct-16 22:33N 23°59' E 118°21'26814639.3
2014-Oct-16 22:32N 22°56' E 113°37'65337293.8
2014-Oct-16 22:31N 32°01' E 120°22'65018269.2
2014-Oct-16 22:29N 23°04' E 113°29'976100391.3
2014-Oct-16 22:28N 37°35' E 122°00'35233348.8
2014-Oct-16 22:27N 31°47' E 120°55'183008.3
2014-Oct-16 22:27N 32°02' E 120°45'3473840.0
2014-Oct-16 22:22N 37°47' E 121°18'36114759.5
2014-Oct-16 22:20N 31°47' E 121°00'331887.0
2014-Oct-16 22:19N 32°01' E 120°25'6562796.8
2014-Oct-16 22:05N 22°55' E 113°35'1121.0
2014-Oct-16 21:33N 23°04' E 113°29'971233150.4
2014-Oct-16 21:33N 37°47' E 121°20'98282212.5
2014-Oct-16 21:32N 22°51' E 113°35'151127.6
2014-Oct-16 21:32N 23°04' E 113°29'66076648.0
2014-Oct-16 21:31N 31°45' E 121°05'406890.0
2014-Oct-16 21:31N 32°01' E 120°22'67623183.1
2014-Oct-16 21:29N 22°24' E 113°45'68116347.4
2014-Oct-16 21:26N 32°02' E 120°30'1401784.4
2014-Oct-16 21:22N 30°25' E 122°27'4303136.1
2014-Oct-16 21:14N 37°35' E 122°03'9771459.0
2014-Oct-16 20:33N 23°04' E 113°29'66059408.2
2014-Oct-16 20:33N 31°42' E 121°10'365164220.3
2014-Oct-16 20:33N 37°47' E 121°25'301358.8
2014-Oct-16 20:31N 37°35' E 122°00'34439957.6
2014-Oct-16 20:31N 32°01' E 120°22'68411623.0
2014-Oct-16 20:27N 22°17' E 113°40'67928761.8
2014-Oct-16 20:26N 30°25' E 122°27'1301623.1
2014-Oct-16 20:21N 32°02' E 120°45'6629095.3
2014-Oct-16 20:17N 23°04' E 113°29'6564355.8
2014-Oct-16 20:08N 31°47' E 120°55'66014853.8
2014-Oct-16 20:05N 22°55' E 113°35'4381.9
2014-Oct-16 19:33N 22°12' E 113°36'1020203983.2
2014-Oct-16 19:33N 37°46' E 121°29'974876411.2
2014-Oct-16 19:33N 23°04' E 113°29'97785769.4
2014-Oct-16 19:32N 37°37' E 121°57'97779921.8
2014-Oct-16 19:32N 23°04' E 113°29'66225083.5
2014-Oct-16 19:30N 32°02' E 120°45'6705718.0
2014-Oct-16 19:23N 22°53' E 113°31'65831587.7
2014-Oct-16 19:22N 32°01' E 120°22'4064740.3
2014-Oct-16 19:17N 38°43' E 121°30'5003678.1
2014-Oct-16 19:08N 30°25' E 122°27'65510962.1
2014-Oct-16 19:05N 22°55' E 113°35'9811853.1
2014-Oct-16 18:33N 37°45' E 121°30'974701377.4
2014-Oct-16 18:33N 23°04' E 113°29'662794276.5
2014-Oct-16 18:33N 32°02' E 120°45'70326100.6
2014-Oct-16 18:31N 22°12' E 113°34'69263839.8
2014-Oct-16 18:31N 32°01' E 120°22'755779.0
2014-Oct-16 18:30N 31°13' E 121°30'38741009.6
2014-Oct-16 18:29N 37°40' E 121°55'988169412.1
2014-Oct-16 18:29N 22°55' E 113°27'82112.8
2014-Oct-16 18:29N 22°55' E 113°35'113378.5
2014-Oct-16 18:29N 23°04' E 113°29'65233539.5
2014-Oct-16 18:27N 30°25' E 122°27'6903134.3
2014-Oct-16 18:14N 22°10' E 113°32'107628071.2
2014-Oct-16 18:12N 38°43' E 121°34'1265227.3
2014-Oct-16 18:10N 36°40' E 122°14'9351510.7
2014-Oct-16 17:33N 23°04' E 113°29'975195020.7
2014-Oct-16 17:33N 37°48' E 121°27'216790.0
2014-Oct-16 17:33N 37°42' E 121°52'102894865.4
2014-Oct-16 17:32N 22°10' E 113°32'69427472.4
2014-Oct-16 17:31N 32°01' E 120°22'65419470.2
2014-Oct-16 17:29N 22°55' E 113°35'439023.0
2014-Oct-16 17:28N 22°12' E 113°34'68717782.4
2014-Oct-16 17:26N 30°25' E 122°27'692686.3
2014-Oct-16 17:25N 31°16' E 121°33'6537893.2
2014-Oct-16 17:20N 23°04' E 113°29'102813164.6
2014-Oct-16 17:15N 38°43' E 121°37'4032212.9
2014-Oct-16 17:04N 32°02' E 120°45'6621297.1
2014-Oct-16 16:33N 23°04' E 113°29'65242681.6
2014-Oct-16 16:32N 30°25' E 122°27'690190950.4
2014-Oct-16 16:32N 22°10' E 113°32'69427472.4
2014-Oct-16 16:31N 32°01' E 120°22'7488562.3
2014-Oct-16 16:31N 31°20' E 121°33'6705386.9
2014-Oct-16 16:23N 22°38' E 113°41'29479.8
2014-Oct-16 16:20N 23°04' E 113°29'97921753.4
2014-Oct-16 16:17N 37°44' E 121°48'985236455.2
2014-Oct-16 16:17N 22°55' E 113°35'66759990.7
2014-Oct-16 16:16N 32°02' E 120°45'68460094.4
2014-Oct-16 16:15N 22°27' E 113°47'19402.4
2014-Oct-16 16:12N 22°12' E 113°34'70412607.0
2014-Oct-16 16:09N 31°59' E 120°51'124209.0
2014-Oct-16 15:33N 30°25' E 122°27'7530043.4
2014-Oct-16 15:33N 31°22' E 121°30'656147656.6
2014-Oct-16 15:33N 23°04' E 113°29'978880446.9
2014-Oct-16 15:33N 37°44' E 121°45'998513312.5
2014-Oct-16 15:33N 22°38' E 113°41'292747.7
2014-Oct-16 15:32N 22°10' E 113°32'69428408.8
2014-Oct-16 15:31N 32°01' E 120°22'20431.8
2014-Oct-16 15:28N 32°02' E 120°45'6460.3
2014-Oct-16 15:27N 31°59' E 120°51'70436223.2
2014-Oct-16 15:26N 22°11' E 113°35'19245.2
2014-Oct-16 15:21N 22°27' E 113°47'411416.7
2014-Oct-16 15:20N 23°04' E 113°29'652847.9
2014-Oct-16 14:33N 30°25' E 122°27'652469492.1
2014-Oct-16 14:33N 23°04' E 113°29'4173419.3
2014-Oct-16 14:33N 22°27' E 113°47'221144.0
2014-Oct-16 14:32N 22°10' E 113°32'1026194429.3
2014-Oct-16 14:32N 37°45' E 121°40'977206953.4
2014-Oct-16 14:32N 23°04' E 113°29'65044967.2
2014-Oct-16 14:31N 32°01' E 120°22'66612620.8
2014-Oct-16 14:28N 22°38' E 113°41'27442.1
2014-Oct-16 14:24N 22°12' E 113°35'7047154.6
2014-Oct-16 14:18N 32°02' E 120°45'4357.3
2014-Oct-16 13:33N 32°07' E 119°55'3481254035.6
2014-Oct-16 13:33N 37°44' E 121°43'998276242.7
2014-Oct-16 13:33N 22°38' E 113°41'2910313.8
2014-Oct-16 13:33N 23°04' E 113°29'543743.8
2014-Oct-16 13:32N 22°10' E 113°32'276992620.7
2014-Oct-16 13:32N 23°50' E 118°11'26327804.5
2014-Oct-16 13:32N 23°04' E 113°29'65044118.7
2014-Oct-16 13:31N 32°01' E 120°22'1444498.9
2014-Oct-16 13:29N 30°25' E 122°27'190210265.6
2014-Oct-16 13:18N 00°01' E 113°11'138277760.6
2014-Oct-16 13:17N 23°03' E 113°25'66524691.4
2014-Oct-16 13:15N 32°02' E 120°45'68417230.7
2014-Oct-16 13:13N 22°27' E 113°47'191252.5
2014-Oct-16 13:12N 22°12' E 113°35'432163.0
2014-Oct-16 13:10N 22°55' E 113°35'1118.0
2014-Oct-16 12:33N 23°04' E 113°29'977219837.7
2014-Oct-16 12:33N 37°44' E 121°42'102667149.9
2014-Oct-16 12:32N 22°10' E 113°32'69057728.8
2014-Oct-16 12:31N 30°25' E 122°27'14411497.3
2014-Oct-16 12:31N 32°01' E 120°22'673201841.0
2014-Oct-16 12:30N 22°27' E 113°47'68476994.6
2014-Oct-16 12:30N 32°02' E 120°45'50749290.3
2014-Oct-16 12:29N 23°53' E 118°15'50641408.5
2014-Oct-16 12:29N 32°04' E 120°31'299475.8
2014-Oct-16 12:28N 32°02' E 119°57'523955.0
2014-Oct-16 12:28N 31°47' E 120°55'41723450.0
2014-Oct-16 12:27N 38°43' E 121°30'58177.0
2014-Oct-16 12:07N 37°47' E 121°48'712.3
2014-Oct-16 11:33N 37°44' E 121°40'977703116.3
2014-Oct-16 11:33N 23°04' E 113°29'654168126.6
2014-Oct-16 11:33N 32°03' E 120°26'35039366.3
2014-Oct-16 11:33N 37°47' E 121°45'1030148326.0
2014-Oct-16 11:32N 22°10' E 113°32'69428735.3
2014-Oct-16 11:31N 32°01' E 120°22'49981641.1
2014-Oct-16 11:30N 23°54' E 118°16'50564880.4
2014-Oct-16 11:30N 32°02' E 120°45'66282168.8
2014-Oct-16 11:29N 23°04' E 113°29'532330.1
2014-Oct-16 11:28N 22°12' E 113°35'68714289.1
2014-Oct-16 11:25N 30°25' E 122°27'1554246.5
2014-Oct-16 11:23N 31°58' E 120°03'6435949.8
2014-Oct-16 11:16N 22°55' E 113°35'1115.5
2014-Oct-16 10:33N 23°04' E 113°29'644165696.0
2014-Oct-16 10:33N 31°57' E 120°17'687824169.0
2014-Oct-16 10:33N 22°11' E 113°35'695312600.8
2014-Oct-16 10:33N 31°22' E 121°29'38353037.0
2014-Oct-16 10:32N 37°45' E 121°37'35060067.0
2014-Oct-16 10:32N 32°00' E 120°22'139.0
2014-Oct-16 10:31N 32°01' E 120°22'132690.3
2014-Oct-16 10:30N 31°57' E 120°08'15028478.8
2014-Oct-16 10:30N 30°25' E 122°27'66814834.9
2014-Oct-16 10:27N 22°27' E 113°47'203820.3
2014-Oct-16 10:27N 22°11' E 113°34'54250.3
2014-Oct-16 10:14N 23°04' E 113°29'5580.1
2014-Oct-16 09:33N 22°10' E 113°36'5517891.1
2014-Oct-16 09:33N 23°04' E 113°29'6412307041.5
2014-Oct-16 09:33N 31°56' E 120°12'646101105.0
2014-Oct-16 09:33N 23°02' E 113°22'256346.8
2014-Oct-16 09:32N 22°43' E 113°40'65632793.0
2014-Oct-16 09:31N 31°57' E 120°16'35785747.3
2014-Oct-16 09:31N 37°47' E 121°43'35290578.5
2014-Oct-16 09:31N 32°01' E 120°22'65026877.4
2014-Oct-16 09:29N 23°04' E 113°29'65221538.7
2014-Oct-16 09:27N 30°25' E 122°27'44151197.3
2014-Oct-16 09:27N 37°44' E 121°38'38226454.8
2014-Oct-16 09:26N 31°22' E 121°29'55231.5
2014-Oct-16 09:12N 32°02' E 120°45'2919513.0
2014-Oct-16 09:10N 36°41' E 122°22'98530298.1
2014-Oct-16 09:08N 22°10' E 113°34'5494.1
2014-Oct-16 08:33N 23°04' E 113°29'975389965.2
2014-Oct-16 08:33N 37°44' E 121°35'97590011.5
2014-Oct-16 08:33N 23°05' E 113°27'552566.5
2014-Oct-16 08:31N 22°10' E 113°31'1028127568.6
2014-Oct-16 08:31N 37°47' E 121°38'352105565.4
2014-Oct-16 08:31N 32°01' E 120°22'1449076.8
2014-Oct-16 08:30N 30°25' E 122°27'11333960.3
2014-Oct-16 08:30N 31°47' E 120°55'371612.6
2014-Oct-16 08:28N 31°56' E 120°14'741.1
2014-Oct-16 08:18N 31°58' E 120°21'65117767.7
2014-Oct-16 08:16N 22°55' E 113°35'6679158.8
2014-Oct-16 08:12N 32°02' E 120°45'67740617.6
2014-Oct-16 08:11N 22°45' E 113°31'20209.3
2014-Oct-16 08:05N 23°04' E 113°29'0 0.3
2014-Oct-16 07:33N 23°04' E 113°29'64780267.0
2014-Oct-16 07:33N 31°58' E 120°21'35190334.3
2014-Oct-16 07:32N 37°44' E 121°33'35816131.6
2014-Oct-16 07:31N 31°47' E 120°55'361162551.3
2014-Oct-16 07:31N 37°47' E 121°27'347124861.7
2014-Oct-16 07:31N 32°02' E 120°45'2017649.0
2014-Oct-16 07:31N 32°01' E 120°22'65026273.8
2014-Oct-16 07:29N 23°04' E 113°29'977103481.4
2014-Oct-16 07:29N 38°54' E 117°56'4286214.8
2014-Oct-16 07:25N 31°59' E 120°01'1155.8
2014-Oct-16 07:13N 31°56' E 120°13'64756779.4
2014-Oct-16 07:12N 22°55' E 113°35'631567639.3
2014-Oct-16 07:12N 29°53' E 122°22'629967.8
2014-Oct-16 06:33N 23°04' E 113°29'973700626.3
2014-Oct-16 06:33N 37°42' E 121°36'99677915.6
2014-Oct-16 06:33N 22°31' E 113°51'664108670.3
2014-Oct-16 06:32N 31°58' E 120°21'3130.6
2014-Oct-16 06:31N 32°01' E 120°22'65026571.9
2014-Oct-16 06:29N 23°04' E 113°29'639209172.2
2014-Oct-16 06:29N 31°58' E 120°06'64440683.7
2014-Oct-16 06:28N 22°55' E 113°35'973291941.1
2014-Oct-16 06:28N 37°44' E 121°14'35718369.0
2014-Oct-16 06:27N 31°47' E 120°55'6747632.3
2014-Oct-16 06:21N 22°48' E 113°19'67550648.4
2014-Oct-16 06:21N 31°60' E 120°38'2329.6
2014-Oct-16 05:33N 31°57' E 120°11'6411153500.5
2014-Oct-16 05:33N 23°04' E 113°29'324166390.0
2014-Oct-16 05:33N 24°48' E 119°04'43920275.7
2014-Oct-16 05:32N 32°01' E 120°32'345138105.2
2014-Oct-16 05:32N 37°42' E 121°39'34717580.8
2014-Oct-16 05:31N 32°01' E 120°22'1734398.0
2014-Oct-16 05:28N 29°47' E 122°30'1715549.5
2014-Oct-16 05:26N 31°58' E 120°21'786.3
2014-Oct-16 05:22N 31°56' E 120°13'6428370.3
2014-Oct-16 05:17N 23°04' E 113°29'1193.7
2014-Oct-16 05:10N 22°55' E 113°35'66060913.9
2014-Oct-16 05:09N 31°21' E 121°31'57747.8
2014-Oct-16 05:05N 32°02' E 120°45'2547.2
2014-Oct-16 04:34N 31°57' E 120°16'644772390.7
2014-Oct-16 04:33N 23°04' E 113°29'642330013.7
2014-Oct-16 04:33N 31°56' E 120°13'73463.8
2014-Oct-16 04:33N 31°58' E 120°21'350114428.8
2014-Oct-16 04:33N 37°42' E 121°35'974233842.0
2014-Oct-16 04:33N 23°01' E 113°31'65381052.1
2014-Oct-16 04:32N 32°01' E 120°25'3120.7
2014-Oct-16 04:31N 32°01' E 120°22'672127253.9
2014-Oct-16 04:30N 22°25' E 113°54'462315.3
2014-Oct-16 04:29N 23°04' E 113°29'6627446.6
2014-Oct-16 04:24N 32°02' E 120°45'66720866.5
2014-Oct-16 04:22N 22°55' E 113°35'6627791.0
2014-Oct-16 04:17N 31°24' E 121°31'67214235.2
2014-Oct-16 04:14N 22°31' E 113°52'26186.2
2014-Oct-16 04:06N 22°51' E 113°34'6551223.1
2014-Oct-16 03:33N 31°58' E 120°20'35054791.1
2014-Oct-16 03:33N 37°43' E 121°33'348626976.1
2014-Oct-16 03:33N 31°59' E 120°21'65862324.1
2014-Oct-16 03:32N 22°55' E 113°25'101815.6
2014-Oct-16 03:32N 23°04' E 113°29'65027837.1
2014-Oct-16 03:31N 32°01' E 120°22'69473477.9
2014-Oct-16 03:30N 22°11' E 113°32'68631675.7
2014-Oct-16 03:29N 31°56' E 120°14'64742328.0
2014-Oct-16 03:28N 22°55' E 113°35'651167525.8
2014-Oct-16 03:28N 31°58' E 120°21'64726156.0
2014-Oct-16 03:26N 23°04' E 113°29'9404059.0
2014-Oct-16 03:12N 36°43' E 122°23'96113511.6
2014-Oct-16 03:08N 22°31' E 113°52'3967.9
2014-Oct-16 02:33N 23°04' E 113°29'103105.2
2014-Oct-16 02:33N 22°54' E 113°29'983589663.9
2014-Oct-16 02:33N 37°42' E 121°37'345207094.9
2014-Oct-16 02:33N 32°02' E 120°26'2934219.1
2014-Oct-16 02:33N 31°47' E 120°55'361885.9
2014-Oct-16 02:32N 31°56' E 120°14'68482062.9
2014-Oct-16 02:31N 22°10' E 113°38'68888519.9
2014-Oct-16 02:31N 31°58' E 120°21'31214.6
2014-Oct-16 02:31N 32°01' E 120°22'66812784.2
2014-Oct-16 02:28N 22°30' E 113°51'40229.5
2014-Oct-16 02:17N 23°04' E 113°29'6526050.8
2014-Oct-16 02:11N 30°25' E 122°27'65717511.5
2014-Oct-16 02:08N 22°57' E 113°30'569.6
2014-Oct-16 02:04N 22°55' E 113°35'1121.9
2014-Oct-16 01:33N 23°04' E 113°29'311453.7
2014-Oct-16 01:33N 23°02' E 113°31'65354650.4
2014-Oct-16 01:33N 30°25' E 122°27'1469921.3
2014-Oct-16 01:32N 31°56' E 120°13'161144.2
2014-Oct-16 01:31N 32°02' E 120°31'81790.6
2014-Oct-16 01:31N 32°01' E 120°22'685205487.8
2014-Oct-16 01:31N 22°15' E 113°43'68219331.4
2014-Oct-16 01:28N 31°58' E 120°21'3492033.5
2014-Oct-16 01:18N 37°40' E 121°42'97463735.3
2014-Oct-16 01:17N 23°04' E 113°29'65616502.3
2014-Oct-16 01:15N 31°47' E 120°55'111.1
2014-Oct-16 01:11N 31°47' E 120°55'2134.2
2014-Oct-16 00:34N 32°01' E 120°36'2138584.9
2014-Oct-16 00:33N 31°47' E 120°55'656786936.8
2014-Oct-16 00:33N 23°04' E 113°29'649212558.4
2014-Oct-16 00:33N 32°01' E 120°22'3246.7
2014-Oct-16 00:32N 31°58' E 120°21'794.4
2014-Oct-16 00:28N 31°56' E 120°14'36278.0
2014-Oct-16 00:20N 31°47' E 120°55'3240.1
2014-Oct-15 23:33N 32°00' E 120°21'322269.5
2014-Oct-15 23:32N 31°47' E 120°55'6601187387.8
2014-Oct-15 23:32N 22°57' E 113°33'651146497.2
2014-Oct-15 23:32N 31°58' E 120°21'15819.6
2014-Oct-15 23:31N 32°00' E 120°39'65871758.7
2014-Oct-15 23:30N 23°04' E 113°29'066.6
2014-Oct-15 23:30N 23°04' E 113°29'65645405.0
2014-Oct-15 23:30N 31°47' E 120°55'37507.8
2014-Oct-15 23:25N 31°56' E 120°14'306862.7
2014-Oct-15 23:04N 36°43' E 122°21'296577.2
2014-Oct-15 22:33N 32°02' E 120°30'9339.9
2014-Oct-15 22:32N 32°00' E 120°40'161693.4
2014-Oct-15 22:31N 31°58' E 120°21'64722383.9
2014-Oct-15 22:29N 23°04' E 113°29'111328.4
2014-Oct-15 22:29N 22°55' E 113°36'659182614.4
2014-Oct-15 22:28N 31°47' E 120°55'377352.6
2014-Oct-15 22:28N 31°56' E 120°14'642288958.6
2014-Oct-15 22:28N 23°03' E 113°30'163.0
2014-Oct-15 22:27N 23°04' E 113°29'65643738.1
2014-Oct-15 22:26N 32°00' E 120°36'13453797.7
2014-Oct-15 22:26N 30°25' E 122°27'762132.0
2014-Oct-15 22:24N 31°22' E 121°28'385081.5
2014-Oct-15 22:23N 31°47' E 120°55'3036.3
2014-Oct-15 21:34N 31°58' E 120°21'647465570.5
2014-Oct-15 21:33N 23°04' E 113°29'6561180389.3
2014-Oct-15 21:33N 31°47' E 120°55'30619352.9
2014-Oct-15 21:32N 36°43' E 122°28'3084001.7
2014-Oct-15 21:28N 31°56' E 120°14'191319.5
2014-Oct-15 21:27N 32°01' E 120°35'22103.3
2014-Oct-15 21:14N 31°47' E 120°55'114168.0
2014-Oct-15 20:33N 30°25' E 122°27'387174099.1
2014-Oct-15 20:33N 36°52' E 122°28'950311029.6
2014-Oct-15 20:33N 23°04' E 113°29'647775932.6
2014-Oct-15 20:33N 31°58' E 120°21'206655.5
2014-Oct-15 20:33N 32°02' E 120°45'171303.8
2014-Oct-15 20:32N 31°47' E 120°55'160.6
2014-Oct-15 20:31N 31°47' E 120°55'37619.5
2014-Oct-15 20:28N 31°56' E 120°14'64223575.3
2014-Oct-15 20:26N 23°04' E 113°29'65720202.9
2014-Oct-15 20:24N 32°01' E 120°35'14569.4
2014-Oct-15 20:23N 31°59' E 120°51'66311098.4
2014-Oct-15 20:19N 23°04' E 113°30'646842.0
2014-Oct-15 19:33N 31°58' E 120°21'78024.8
2014-Oct-15 19:33N 31°56' E 120°14'3339657.3
2014-Oct-15 19:33N 31°56' E 120°53'9652.1
2014-Oct-15 19:32N 31°47' E 120°55'1149097.3
2014-Oct-15 19:31N 30°25' E 122°27'1138853.9
2014-Oct-15 19:31N 31°47' E 120°55'65627452.1
2014-Oct-15 19:29N 23°04' E 113°29'0126.8
2014-Oct-15 19:29N 23°04' E 113°29'65739392.5
2014-Oct-15 19:28N 32°01' E 120°35'989.8
2014-Oct-15 19:22N 32°02' E 120°45'66324604.2
2014-Oct-15 19:21N 23°05' E 113°27'13910.4
2014-Oct-15 19:20N 22°59' E 113°39'646833.4
2014-Oct-15 18:33N 31°58' E 120°21'64729465.3
2014-Oct-15 18:32N 23°04' E 113°29'659474806.6
2014-Oct-15 18:32N 31°53' E 120°54'185495.4
2014-Oct-15 18:32N 32°01' E 120°35'2341226.0
2014-Oct-15 18:32N 31°47' E 120°55'37468.5
2014-Oct-15 18:27N 31°56' E 120°14'35274470.6
2014-Oct-15 18:27N 37°40' E 121°42'34210520.0
2014-Oct-15 18:25N 32°02' E 120°45'6189.8
2014-Oct-15 18:23N 31°59' E 120°51'663170591.2
2014-Oct-15 18:23N 23°05' E 113°27'13906.8
2014-Oct-15 18:22N 22°59' E 113°39'65434637.6
2014-Oct-15 18:21N 31°47' E 120°55'68613135.2
2014-Oct-15 18:18N 22°19' E 113°42'47838.8
2014-Oct-15 18:14N 23°04' E 113°29'66270114.3
2014-Oct-15 18:14N 32°02' E 120°45'1304992.0
2014-Oct-15 18:12N 30°25' E 122°27'6525024.2
2014-Oct-15 18:04N 23°04' E 113°30'6461246.5
2014-Oct-15 17:33N 31°58' E 120°21'647775920.5
2014-Oct-15 17:33N 23°04' E 113°29'66333149.7
2014-Oct-15 17:32N 31°59' E 120°51'141024.8
2014-Oct-15 17:31N 32°01' E 120°35'69429752.6
2014-Oct-15 17:30N 22°14' E 113°39'6948084.9
2014-Oct-15 17:25N 31°49' E 120°55'298.0
2014-Oct-15 17:23N 31°47' E 120°55'1145686.1
2014-Oct-15 17:22N 30°25' E 122°27'6496229.9
2014-Oct-15 17:16N 22°59' E 113°39'13612.7
2014-Oct-15 17:15N 23°05' E 113°27'34693.6
2014-Oct-15 17:12N 22°37' E 113°06'100714923.8
2014-Oct-15 17:08N 37°41' E 121°42'974159388.8
2014-Oct-15 17:07N 23°04' E 113°30'122.0
2014-Oct-15 17:05N 23°04' E 113°29'0 0.3
2014-Oct-15 16:33N 23°04' E 113°29'657196961.2
2014-Oct-15 16:33N 32°01' E 120°35'124819.8
2014-Oct-15 16:33N 31°58' E 120°21'64768502.2
2014-Oct-15 16:33N 23°05' E 113°27'656196772.6
2014-Oct-15 16:32N 31°47' E 120°55'122005.1
2014-Oct-15 16:32N 31°59' E 120°51'132589.8
2014-Oct-15 16:32N 31°47' E 120°57'65776276.0
2014-Oct-15 16:31N 23°04' E 113°30'662125386.5
2014-Oct-15 16:31N 32°02' E 120°45'2316435.8
2014-Oct-15 16:31N 31°57' E 120°18'68729088.9
2014-Oct-15 16:29N 22°12' E 113°34'696278520.4
2014-Oct-15 16:29N 31°47' E 120°55'1135989.2
2014-Oct-15 16:28N 30°25' E 122°27'649111247.8
2014-Oct-15 16:28N 22°59' E 113°39'97528082.8
2014-Oct-15 16:26N 37°41' E 121°42'3615057.1
2014-Oct-15 16:21N 31°41' E 121°11'6592452.4
2014-Oct-15 16:05N 23°04' E 113°29'1 2.8
2014-Oct-15 15:33N 23°05' E 113°27'43770.7
2014-Oct-15 15:33N 23°02' E 113°24'6512343940.6
2014-Oct-15 15:33N 31°58' E 120°21'35089964.9
2014-Oct-15 15:33N 37°41' E 121°41'35820782.8
2014-Oct-15 15:32N 31°44' E 121°05'315561.8
2014-Oct-15 15:31N 32°01' E 120°35'272339.6
2014-Oct-15 15:31N 31°47' E 121°02'65926363.0
2014-Oct-15 15:29N 23°04' E 113°29'139.4
2014-Oct-15 15:28N 23°04' E 113°30'6526428.2
2014-Oct-15 15:22N 30°25' E 122°27'68735829.7
2014-Oct-15 15:21N 22°12' E 113°34'69678347.7
2014-Oct-15 15:20N 31°47' E 120°55'65417192.4
2014-Oct-15 15:18N 22°59' E 113°39'64455207.1
2014-Oct-15 15:17N 31°57' E 120°18'33953.0
2014-Oct-15 15:15N 31°47' E 120°55'3144.4
2014-Oct-15 14:33N 31°58' E 120°21'14220410.9
2014-Oct-15 14:33N 30°25' E 122°27'687176535.7
2014-Oct-15 14:33N 22°11' E 113°35'5448239.3
2014-Oct-15 14:33N 23°03' E 113°19'66291601.2
2014-Oct-15 14:32N 31°47' E 120°55'228024.1
2014-Oct-15 14:32N 32°01' E 120°35'315291.7
2014-Oct-15 14:32N 31°45' E 121°06'91599.4
2014-Oct-15 14:31N 31°47' E 120°55'35818659.9
2014-Oct-15 14:30N 37°42' E 121°43'35222635.3
2014-Oct-15 14:29N 31°57' E 120°18'5003542.3
2014-Oct-15 14:21N 23°50' E 118°10'2624304.2
2014-Oct-15 14:17N 23°04' E 113°29'137.3
2014-Oct-15 14:16N 23°04' E 113°30'9741360.1
2014-Oct-15 13:33N 37°42' E 121°39'36186659.8
2014-Oct-15 13:33N 31°42' E 121°09'131545.2
2014-Oct-15 13:32N 31°47' E 120°55'32116491.5
2014-Oct-15 13:32N 31°57' E 120°18'2231.1
2014-Oct-15 13:32N 31°58' E 120°21'64666491.6
2014-Oct-15 13:31N 23°04' E 113°30'120.8
2014-Oct-15 13:29N 23°04' E 113°29'53745.0
2014-Oct-15 13:25N 22°11' E 113°35'69792870.1
2014-Oct-15 13:24N 31°47' E 120°55'4954604.8
2014-Oct-15 13:18N 23°53' E 118°14'4654427.2
2014-Oct-15 13:12N 30°44' E 122°17'419651.7
2014-Oct-15 12:33N 37°42' E 121°38'345207155.1
2014-Oct-15 12:33N 32°02' E 120°30'44159177.8
2014-Oct-15 12:33N 31°39' E 121°14'192153.2
2014-Oct-15 12:32N 31°47' E 120°55'301555.6
2014-Oct-15 12:31N 31°58' E 120°21'689103329.1
2014-Oct-15 12:31N 22°11' E 113°35'53674.3
2014-Oct-15 12:26N 23°04' E 113°29'6526765.5
2014-Oct-15 12:20N 30°25' E 122°27'1432866.8
2014-Oct-15 12:17N 31°57' E 120°18'64531371.8
2014-Oct-15 12:16N 23°04' E 113°29'652914.9
2014-Oct-15 11:33N 30°25' E 122°27'439526890.3
2014-Oct-15 11:33N 37°42' E 121°39'35157354.6
2014-Oct-15 11:33N 31°58' E 120°20'1214.1
2014-Oct-15 11:33N 31°58' E 120°21'3012079.0
2014-Oct-15 11:33N 31°47' E 120°55'65611624.7
2014-Oct-15 11:29N 23°04' E 113°29'66221477.3
2014-Oct-15 11:27N 31°59' E 120°49'66217791.3
2014-Oct-15 11:25N 23°04' E 113°29'5319127.4
2014-Oct-15 11:25N 22°11' E 113°35'6997858.3
2014-Oct-15 11:20N 31°33' E 121°20'52602.0
2014-Oct-15 11:14N 32°02' E 120°30'346481.3
2014-Oct-15 10:31N 37°43' E 121°36'35871521.9
2014-Oct-15 10:31N 31°47' E 120°56'65620904.7
2014-Oct-15 10:29N 23°04' E 113°29'64722822.2
2014-Oct-15 10:28N 31°58' E 120°21'623763.5
2014-Oct-15 10:27N 31°30' E 121°26'43608.5
2014-Oct-15 10:22N 31°59' E 120°49'12615150.3
2014-Oct-15 10:22N 30°25' E 122°27'6864153.3
2014-Oct-15 10:12N 22°11' E 113°35'10201592.3
2014-Oct-15 09:33N 37°43' E 121°36'354254875.3
2014-Oct-15 09:33N 31°57' E 120°06'3616285.6
2014-Oct-15 09:33N 31°60' E 120°49'2417317.2
2014-Oct-15 09:33N 31°58' E 120°20'195.2
2014-Oct-15 09:32N 31°58' E 120°21'378432.6
2014-Oct-15 09:32N 31°46' E 121°03'10843251.2
2014-Oct-15 09:32N 30°25' E 122°27'763005.2
2014-Oct-15 09:31N 31°25' E 121°32'661125211.0
2014-Oct-15 09:30N 23°02' E 113°31'507871.0
2014-Oct-15 09:30N 22°11' E 113°35'53673.2
2014-Oct-15 09:25N 23°04' E 113°29'65430580.3
2014-Oct-15 09:24N 32°02' E 120°30'6542106.1
2014-Oct-15 09:05N 23°04' E 113°29'6461202.1
2014-Oct-15 08:33N 31°58' E 120°20'351180501.7
2014-Oct-15 08:33N 37°43' E 121°36'3621303593.3
2014-Oct-15 08:33N 31°42' E 121°10'4419732.6
2014-Oct-15 08:33N 31°58' E 120°21'772195.6
2014-Oct-15 08:31N 31°20' E 121°41'6834811.4
2014-Oct-15 08:30N 30°25' E 122°27'653213659.1
2014-Oct-15 08:30N 23°02' E 113°31'65246055.8
2014-Oct-15 08:29N 32°01' E 120°25'651585902.5
2014-Oct-15 08:29N 23°04' E 113°29'0 2.9
2014-Oct-15 08:26N 23°04' E 113°29'53384.8
2014-Oct-15 08:18N 22°11' E 113°35'10201376.9
2014-Oct-15 07:33N 37°43' E 121°35'365438304.5
2014-Oct-15 07:33N 31°38' E 121°16'517364.8
2014-Oct-15 07:33N 31°58' E 120°20'646332465.2
2014-Oct-15 07:33N 23°04' E 113°29'642144498.4
2014-Oct-15 07:33N 31°56' E 120°15'1433961.1
2014-Oct-15 07:30N 30°24' E 122°23'65731971.8
2014-Oct-15 07:29N 22°55' E 113°27'66513145.3
2014-Oct-15 07:26N 31°47' E 120°55'69618709.4
2014-Oct-15 07:24N 22°11' E 113°35'45343.4
2014-Oct-15 07:16N 22°57' E 113°37'11357.9
2014-Oct-15 07:14N 23°04' E 113°29'647952.9
2014-Oct-15 06:33N 31°58' E 120°21'35136110.0
2014-Oct-15 06:33N 37°43' E 121°39'35223474.2
2014-Oct-15 06:32N 31°57' E 120°18'5841595.7
2014-Oct-15 06:32N 31°34' E 121°20'69996751.9
2014-Oct-15 06:31N 22°11' E 113°35'27932366.1
2014-Oct-15 06:31N 23°55' E 118°16'50115291.1
2014-Oct-15 06:29N 32°02' E 120°31'6557652.3
2014-Oct-15 06:24N 23°04' E 113°29'64512342.2
2014-Oct-15 06:21N 30°23' E 122°17'721412.3
2014-Oct-15 06:18N 31°21' E 121°26'847197.5
2014-Oct-15 06:17N 30°02' E 121°59'61813412.9
2014-Oct-15 06:14N 23°04' E 113°29'9859284.7
2014-Oct-15 06:08N 39°05' E 117°46'10331802.0
2014-Oct-15 05:33N 22°13' E 113°40'  

Dump ship's entire track history